[[{"header":{"parameterUnit":"m.s-1","parameterCategory":1,"la1":30.6,"la2":29.2853,"lo1":-89.7004,"lo2":-87.6739,"dy":0.0162,"dx":0.0183,"nx":112,"ny":82,"refTime":"2023-09-07T18:00:00:Z","depth":0,"parameterNumber":2,"parameterNumberName":"U-component_of_WINDS"},"data":[0.0,0.0,0.0,0.0,0.0,0.0,0.0,0.0,0.0,0.0,0.0,0.0,0.0,0.0,0.0,0.0,0.0,0.0,0.0,0.0,0.0,0.0,0.0,0.0,0.0,0.0,0.0,0.0,0.0,0.0,0.0,0.0,0.0,0.0,0.0,0.0,0.0,0.0,0.0,0.0,0.0,0.0,0.0,0.0,0.0,0.0,0.0,0.0,0.0,0.0,0.0,0.0,0.0,0.0,0.0,0.0,0.0,0.0,0.0,0.0,0.0,0.0,0.0,0.0,0.0,0.0,0.0,0.0,0.0,0.0,0.0,0.0,0.0,0.0,0.0,0.0,0.0,0.0,0.0,0.0,0.0,0.0,0.0,0.0,0.0,0.0,0.0,0.0,0.0,0.0,3.0356,3.3371,3.8435,4.0989,3.9431,3.9546,3.7279,3.1554,0.0,0.0,0.0,0.0,0.0,0.0,0.0,0.0,0.0,0.0,0.0,0.0,0.0,0.0,0.0,0.0,0.0,0.0,0.0,0.0,0.0,0.0,0.0,0.0,0.0,0.0,0.0,0.0,0.0,0.0,0.0,0.0,0.0,0.0,0.0,0.0,0.0,0.0,0.0,0.0,0.0,0.0,0.0,0.0,0.0,0.0,0.0,0.0,0.0,0.0,0.0,0.0,0.0,0.0,0.0,0.0,0.0,0.0,0.0,0.0,0.0,0.0,0.0,0.0,0.0,0.0,0.0,0.0,0.0,0.0,0.0,0.0,0.0,0.0,0.0,0.0,0.0,0.0,0.0,0.0,0.0,0.0,0.0,0.0,0.0,0.0,0.0,0.0,0.0,0.0,0.0,0.0,0.0,0.0,0.0,0.0,0.0,0.0,0.0,0.0,0.0,0.0,0.0,0.0,3.1924,3.6724,3.9315,4.0315,3.9373,3.743,3.4539,3.046,0.0,0.0,0.0,0.0,0.0,0.0,0.0,0.0,0.0,0.0,0.0,0.0,0.0,0.0,0.0,0.0,0.0,0.0,0.0,0.0,0.0,0.0,0.0,0.0,0.0,0.0,0.0,0.0,0.0,0.0,0.0,0.0,0.0,0.0,0.0,0.0,0.0,0.0,0.0,0.0,0.0,0.0,0.0,0.0,0.0,0.0,0.0,0.0,0.0,0.0,0.0,0.0,0.0,0.0,0.0,0.0,0.0,0.0,0.0,0.0,0.0,0.0,0.0,0.0,0.0,0.0,0.0,0.0,0.0,0.0,0.0,0.0,0.0,0.0,0.0,0.0,0.0,0.0,0.0,0.0,0.0,0.0,0.0,0.0,0.0,0.0,0.0,0.0,0.0,0.0,0.0,0.0,0.0,0.0,0.0,0.0,0.0,0.0,0.0,0.0,0.0,0.0,0.0,3.1418,3.3851,3.7603,3.9912,4.0681,3.9411,3.7698,3.5174,3.1588,3.0386,0.0,0.0,0.0,0.0,0.0,0.0,0.0,0.0,0.0,0.0,0.0,0.0,0.0,0.0,0.0,0.0,0.0,0.0,0.0,0.0,0.0,0.0,0.0,0.0,0.0,0.0,0.0,0.0,0.0,0.0,0.0,0.0,0.0,0.0,0.0,0.0,0.0,0.0,0.0,0.0,0.0,0.0,0.0,0.0,0.0,0.0,0.0,0.0,0.0,0.0,0.0,0.0,0.0,0.0,0.0,0.0,0.0,0.0,0.0,0.0,0.0,0.0,0.0,0.0,0.0,0.0,0.0,0.0,0.0,0.0,0.0,0.0,0.0,0.0,0.0,0.0,0.0,0.0,0.0,0.0,0.0,0.0,0.0,0.0,0.0,0.0,0.0,0.0,0.0,0.0,0.0,0.0,0.0,0.0,0.0,0.0,0.0,0.0,0.0,0.0,0.0,0.0,3.3774,3.5172,3.7738,3.9931,4.0527,3.8834,3.7536,3.5496,3.2374,2.946,0.0,0.0,0.0,0.0,0.0,0.0,0.0,0.0,0.0,0.0,0.0,0.0,0.0,0.0,0.0,0.0,0.0,0.0,0.0,0.0,0.0,0.0,0.0,0.0,0.0,0.0,0.0,0.0,0.0,0.0,0.0,0.0,0.0,0.0,0.0,0.0,0.0,0.0,0.0,0.0,0.0,0.0,0.0,0.0,0.0,0.0,0.0,0.0,0.0,0.0,0.0,0.0,0.0,0.0,0.0,0.0,0.0,0.0,0.0,0.0,0.0,0.0,0.0,0.0,0.0,0.0,0.0,0.0,0.0,0.0,0.0,0.0,0.0,0.0,0.0,0.0,0.0,0.0,0.0,0.0,0.0,0.0,0.0,0.0,0.0,0.0,0.0,0.0,0.0,0.0,0.0,0.0,0.0,0.0,0.0,0.0,0.0,0.0,0.0,0.0,0.0,0.0,3.4128,3.518,3.7738,3.8892,3.8777,3.7026,3.5273,3.3379,3.1324,2.7978,0.0,0.0,0.0,0.0,0.0,0.0,0.0,0.0,0.0,0.0,0.0,0.0,0.0,0.0,0.0,0.0,0.0,0.0,0.0,0.0,0.0,0.0,0.0,0.0,0.0,0.0,0.0,0.0,0.0,0.0,0.0,0.0,0.0,0.0,0.0,0.0,0.0,0.0,0.0,0.0,0.0,0.0,0.0,0.0,0.0,0.0,0.0,0.0,0.0,0.0,0.0,0.0,0.0,0.0,0.0,0.0,0.0,0.0,0.0,0.0,0.0,0.0,0.0,0.0,0.0,0.0,0.0,0.0,0.0,0.0,0.0,0.0,0.0,0.0,0.0,0.0,0.0,0.0,0.0,0.0,0.0,0.0,0.0,0.0,0.0,0.0,0.0,0.0,0.0,0.0,0.0,0.0,0.0,0.0,0.0,0.0,0.0,0.0,0.0,0.0,0.0,0.0,3.4166,3.518,3.7738,3.8296,3.7959,3.6642,3.4388,3.2664,3.1732,0.0,0.0,0.0,0.0,0.0,0.0,0.0,0.0,0.0,0.0,0.0,0.0,0.0,0.0,0.0,0.0,0.0,0.0,0.0,0.0,0.0,0.0,0.0,0.0,0.0,0.0,0.0,0.0,0.0,0.0,0.0,0.0,0.0,0.0,0.0,0.0,0.0,0.0,0.0,0.0,0.0,0.0,0.0,0.0,0.0,0.0,0.0,0.0,0.0,0.0,0.0,0.0,0.0,0.0,0.0,0.0,0.0,0.0,0.0,0.0,0.0,0.0,0.0,0.0,0.0,0.0,0.0,0.0,0.0,0.0,0.0,0.0,0.0,0.0,0.0,0.0,0.0,0.0,0.0,0.0,0.0,0.0,0.0,0.0,0.0,0.0,0.0,0.0,0.0,0.0,0.0,0.0,0.0,0.0,0.0,0.0,0.0,0.0,0.0,0.0,0.0,0.0,3.4068,3.409,3.4872,3.77,3.7526,3.6776,3.5701,3.3203,3.167,3.1575,0.0,0.0,0.0,0.0,0.0,0.0,0.0,0.0,0.0,0.0,0.0,0.0,0.0,0.0,0.0,0.0,0.0,0.0,0.0,0.0,0.0,0.0,0.0,0.0,0.0,0.0,0.0,0.0,0.0,0.0,0.0,0.0,0.0,0.0,0.0,0.0,0.0,0.0,0.0,0.0,0.0,0.0,0.0,0.0,0.0,0.0,0.0,0.0,0.0,0.0,0.0,0.0,0.0,0.0,0.0,0.0,0.0,0.0,0.0,0.0,0.0,0.0,0.0,0.0,0.0,0.0,0.0,0.0,0.0,0.0,0.0,0.0,0.0,0.0,0.0,0.0,0.0,0.0,0.0,0.0,0.0,0.0,0.0,0.0,0.0,0.0,0.0,0.0,0.0,0.0,0.0,0.0,0.0,0.0,0.0,0.0,0.0,0.0,0.0,0.0,0.0,0.0,3.4932,3.3936,3.4218,3.7623,3.6488,3.5048,3.3961,3.1489,3.0177,0.0,0.0,0.0,0.0,0.0,0.0,0.0,0.0,0.0,0.0,0.0,0.0,0.0,0.0,0.0,0.0,0.0,0.0,0.0,0.0,0.0,0.0,0.0,0.0,0.0,0.0,0.0,0.0,0.0,0.0,0.0,0.0,0.0,0.0,0.0,0.0,0.0,0.0,0.0,0.0,0.0,0.0,0.0,0.0,0.0,0.0,0.0,0.0,0.0,0.0,0.0,0.0,0.0,0.0,0.0,0.0,0.0,0.0,0.0,0.0,0.0,0.0,0.0,0.0,0.0,0.0,0.0,0.0,0.0,0.0,0.0,0.0,0.0,0.0,0.0,0.0,0.0,0.0,0.0,0.0,0.0,0.0,0.0,0.0,0.0,0.0,0.0,0.0,0.0,0.0,0.0,0.0,0.0,0.0,0.0,0.0,0.0,0.0,0.0,0.0,0.0,0.0,0.0,3.3983,3.3563,3.3968,3.6776,3.5584,3.4103,3.2942,3.0516,2.924,2.9628,0.0,0.0,0.0,0.0,0.0,0.0,0.0,0.0,0.0,0.0,0.0,0.0,0.0,0.0,0.0,0.0,0.0,0.0,0.0,0.0,0.0,0.0,0.0,0.0,0.0,0.0,0.0,0.0,0.0,0.0,0.0,0.0,0.0,0.0,0.0,0.0,0.0,0.0,0.0,0.0,0.0,0.0,0.0,0.0,0.0,0.0,0.0,0.0,0.0,0.0,0.0,0.0,0.0,0.0,0.0,0.0,0.0,0.0,0.0,0.0,0.0,0.0,0.0,0.0,0.0,0.0,0.0,0.0,0.0,0.0,0.0,0.0,0.0,0.0,0.0,0.0,0.0,0.0,0.0,0.0,0.0,0.0,0.0,0.0,0.0,0.0,0.0,0.0,0.0,0.0,0.0,0.0,0.0,0.0,0.0,0.0,0.0,0.0,0.0,0.0,0.0,0.0,3.3556,3.3377,3.3711,3.5878,3.4597,3.2981,3.1443,2.9344,2.8139,2.8244,0.0,0.0,0.0,0.0,0.0,0.0,0.0,0.0,0.0,0.0,0.0,0.0,0.0,0.0,0.0,0.0,0.0,0.0,0.0,0.0,0.0,0.0,0.0,0.0,0.0,0.0,0.0,0.0,0.0,0.0,0.0,0.0,0.0,0.0,0.0,0.0,0.0,0.0,0.0,0.0,0.0,0.0,0.0,0.0,0.0,0.0,0.0,0.0,0.0,0.0,0.0,0.0,0.0,0.0,0.0,0.0,0.0,0.0,0.0,0.0,0.0,0.0,0.0,0.0,0.0,0.0,0.0,0.0,0.0,0.0,0.0,0.0,0.0,0.0,0.0,0.0,0.0,0.0,0.0,0.0,0.0,0.0,0.0,0.0,0.0,0.0,0.0,0.0,0.0,0.0,0.0,0.0,0.0,0.0,0.0,0.0,0.0,0.0,0.0,0.0,0.0,0.0,3.3566,3.3344,3.3454,3.4913,3.3639,3.1892,2.9868,2.8234,2.7174,2.682,0.0,0.0,0.0,0.0,0.0,0.0,0.0,0.0,0.0,0.0,0.0,0.0,0.0,0.0,0.0,0.0,0.0,0.0,0.0,0.0,0.0,0.0,0.0,0.0,0.0,0.0,0.0,0.0,0.0,0.0,0.0,0.0,0.0,0.0,0.0,0.0,0.0,0.0,0.0,0.0,0.0,0.0,0.0,0.0,0.0,0.0,0.0,0.0,0.0,0.0,0.0,0.0,0.0,0.0,0.0,0.0,0.0,0.0,0.0,0.0,2.4182,2.2855,0.0,0.0,0.0,0.0,0.0,0.0,0.0,0.0,0.0,0.0,0.0,0.0,0.0,0.0,0.0,0.0,0.0,0.0,0.0,0.0,0.0,0.0,0.0,0.0,0.0,0.0,0.0,0.0,0.0,0.0,0.0,0.0,0.0,0.0,0.0,0.0,0.0,0.0,0.0,0.0,3.3486,3.333,3.3223,3.4091,3.3295,3.1892,2.9868,2.8742,2.7754,2.6857,2.6023,0.0,0.0,0.0,0.0,0.0,0.0,0.0,0.0,0.0,0.0,0.0,0.0,0.0,0.0,0.0,0.0,0.0,0.0,0.0,0.0,0.0,0.0,0.0,0.0,0.0,0.0,0.0,0.0,0.0,0.0,0.0,0.0,0.0,0.0,0.0,0.0,0.0,0.0,0.0,0.0,0.0,0.0,0.0,0.0,0.0,0.0,0.0,0.0,0.0,0.0,0.0,0.0,0.0,0.0,0.0,0.0,0.0,0.0,0.0,2.8282,2.6759,0.0,0.0,0.0,0.0,0.0,0.0,0.0,0.0,0.0,0.0,0.0,0.0,0.0,0.0,0.0,0.0,0.0,0.0,0.0,0.0,0.0,0.0,0.0,0.0,0.0,0.0,0.0,0.0,0.0,0.0,0.0,0.0,0.0,0.0,0.0,0.0,0.0,0.0,0.0,0.0,3.4066,3.3566,3.3119,3.3732,3.3051,3.1569,2.9139,2.8503,2.7699,2.6377,2.5838,0.0,0.0,0.0,0.0,0.0,0.0,0.0,0.0,0.0,0.0,0.0,0.0,0.0,0.0,0.0,0.0,0.0,0.0,0.0,0.0,0.0,0.0,0.0,0.0,0.0,0.0,0.0,0.0,0.0,0.0,0.0,0.0,0.0,0.0,0.0,0.0,0.0,0.0,0.0,0.0,0.0,0.0,0.0,0.0,0.0,0.0,0.0,0.0,0.0,0.0,0.0,0.0,0.0,3.3717,3.439,3.4829,3.4921,3.5168,3.5466,3.3996,3.2386,3.0679,2.8747,0.0,0.0,0.0,0.0,0.0,0.0,0.0,0.0,0.0,0.0,0.0,0.0,0.0,0.0,0.0,0.0,0.0,0.0,0.0,0.0,0.0,0.0,2.9998,3.0612,3.0835,3.056,2.9372,0.0,0.0,0.0,0.0,0.0,0.0,0.0,0.0,0.0,0.0,0.0,3.4527,3.3959,3.3331,3.3462,3.2917,3.1355,2.8349,2.8234,2.7641,2.6024,2.5987,2.5709,0.0,0.0,0.0,0.0,0.0,0.0,0.0,0.0,0.0,0.0,0.0,0.0,0.0,0.0,0.0,0.0,0.0,0.0,0.0,0.0,0.0,0.0,0.0,0.0,0.0,0.0,0.0,0.0,0.0,0.0,0.0,0.0,2.3884,2.3385,0.0,0.0,0.0,0.0,0.0,0.0,0.0,0.0,0.0,0.0,0.0,0.0,0.0,3.1626,3.3134,3.4983,3.5642,3.508,3.6533,3.7262,3.7349,3.8035,3.9156,4.0587,4.1202,0.0,3.356,3.1171,0.0,0.0,0.0,0.0,0.0,0.0,0.0,0.0,0.0,0.0,0.0,0.0,0.0,0.0,0.0,0.0,0.0,0.0,0.0,0.0,0.0,0.0,3.3442,3.2802,3.3134,3.3729,3.4271,3.1416,2.8727,2.8727,2.8714,2.8665,0.0,0.0,0.0,0.0,0.0,0.0,3.3961,3.4534,3.4244,3.2741,3.294,3.1783,2.8404,2.8793,2.8533,2.686,2.738,2.7417,2.6619,2.6525,0.0,0.0,0.0,0.0,0.0,0.0,0.0,0.0,0.0,0.0,0.0,0.0,0.0,0.0,0.0,0.0,0.0,0.0,0.0,0.0,0.0,0.0,0.0,0.0,0.0,0.0,0.0,0.0,0.0,2.4986,2.6405,2.5566,2.727,2.7662,0.0,0.0,0.0,0.0,0.0,0.0,0.0,0.0,0.0,3.3314,3.4567,3.5833,3.705,3.9205,4.0253,4.0224,4.1345,4.2069,4.2359,4.2709,4.3295,4.3996,4.4443,4.2926,3.9896,3.6697,3.4561,3.3106,0.0,0.0,0.0,0.0,3.2267,3.3194,3.474,3.4945,3.4508,3.4397,0.0,0.0,0.0,0.0,0.0,0.0,0.0,3.2225,3.245,3.3993,3.5518,3.5614,3.5879,3.6383,3.7277,3.4849,3.2335,3.1804,3.1249,3.0969,3.135,3.1254,0.0,0.0,0.0,3.3802,3.5235,3.5264,3.499,3.4584,3.3393,3.1781,2.9688,2.9444,2.8886,2.766,2.79,2.7733,2.6935,2.6838,2.6759,0.0,0.0,0.0,0.0,0.0,0.0,0.0,0.0,0.0,0.0,0.0,0.0,0.0,0.0,0.0,0.0,0.0,0.0,0.0,0.0,0.0,0.0,0.0,0.0,0.0,0.0,0.0,0.0,2.6831,2.8745,2.7457,2.9943,3.0519,0.0,0.0,0.0,0.0,0.0,0.0,3.2868,3.4074,3.548,3.7172,3.8804,4.0076,4.0969,4.2813,4.3968,4.441,4.5016,4.56,4.6214,4.6214,4.6324,4.6507,4.6507,4.6067,4.5002,4.1194,3.8405,3.6403,3.4654,3.4414,3.5044,3.5371,3.6004,3.7009,3.8988,3.9257,3.8668,3.8328,3.7109,3.5413,3.3439,0.0,0.0,0.0,0.0,3.4266,3.5768,3.695,3.7885,3.8551,3.8876,3.9126,3.9547,3.7926,3.598,3.4538,3.3325,3.2695,3.3239,3.2534,0.0,3.3356,3.4052,3.4897,3.6207,3.6137,3.6008,3.6082,3.4216,3.2337,3.0727,3.0057,2.9258,2.816,2.8329,2.8161,2.7567,2.7488,2.7354,2.7091,0.0,0.0,0.0,0.0,0.0,0.0,0.0,0.0,0.0,0.0,0.0,0.0,0.0,0.0,0.0,0.0,0.0,0.0,0.0,0.0,0.0,0.0,0.0,0.0,0.0,0.0,0.0,0.0,0.0,2.8408,3.2173,0.0,0.0,0.0,0.0,3.2622,3.4062,3.5366,3.6384,3.8459,4.0449,4.2199,4.3615,4.4762,4.5552,4.5681,4.5773,4.5809,4.5846,4.6269,4.7058,4.7058,4.748,4.8177,4.8177,4.7737,4.6691,4.2635,4.0533,3.9516,3.708,3.6242,3.6406,3.6482,3.7124,3.7928,3.8141,3.8214,3.838,3.9301,3.8582,3.7357,3.7299,3.6064,0.0,0.0,3.6172,3.7639,3.8569,4.0059,4.1341,4.1379,4.1992,4.2277,4.1292,4.0189,3.8558,3.5774,3.3949,3.2842,3.268,0.0,3.3648,3.3601,3.4907,3.5927,3.6004,3.7212,3.7474,3.5995,3.552,3.4054,3.0875,3.0578,2.9853,2.8197,2.8886,2.9332,2.9277,2.9256,2.8823,2.7859,2.8056,0.0,0.0,0.0,0.0,0.0,0.0,0.0,0.0,0.0,0.0,0.0,0.0,0.0,0.0,0.0,0.0,0.0,0.0,0.0,0.0,0.0,0.0,0.0,0.0,0.0,0.0,0.0,0.0,3.4365,3.7571,0.0,3.5401,3.6076,3.6722,3.6713,3.8637,4.0394,4.1802,4.3085,4.4559,4.6212,4.6765,4.7425,4.8251,4.8269,4.8269,4.8251,4.77,4.7884,4.8691,4.8141,4.8636,4.9848,4.8783,4.8434,4.8453,4.5993,4.4195,4.2889,4.168,4.0915,4.0566,4.1306,4.1763,4.2202,4.3324,4.3015,4.1935,4.0672,4.0052,3.9724,3.9176,3.8707,3.8461,3.8857,3.9406,4.003,4.0692,4.1331,4.1784,4.1784,4.2011,4.2114,4.1719,4.0911,3.9927,3.8905,3.647,3.4898,3.5907,3.507,3.4542,3.5458,3.6268,3.6755,3.6776,3.7642,3.8037,3.7455,3.6267,3.4791,3.3045,3.1968,3.0913,2.9797,2.9518,2.9407,2.9407,2.9407,2.9217,2.8878,2.9418,2.9159,0.0,0.0,0.0,0.0,0.0,0.0,0.0,0.0,0.0,0.0,0.0,0.0,0.0,0.0,0.0,0.0,0.0,0.0,0.0,0.0,0.0,0.0,0.0,0.0,0.0,3.4525,3.7856,3.8449,4.1498,4.257,3.9958,4.0841,4.1599,4.1595,4.355,4.5094,4.5883,4.7205,4.8196,4.8728,4.926,4.9701,4.9994,4.9994,4.9848,4.9572,4.9003,4.904,4.9554,4.9003,4.9481,5.0747,4.9627,4.9444,4.9829,4.8508,4.715,4.581,4.4952,4.4243,4.3851,4.4575,4.4687,4.4556,4.5395,4.5039,4.3922,4.2296,4.1961,4.2038,4.1189,4.1079,4.132,4.1671,4.1774,4.1914,4.2589,4.2742,4.2742,4.2742,4.2742,4.264,4.2249,4.1717,4.1203,4.085,3.8648,3.7169,3.8278,3.7178,3.6541,3.7694,3.806,3.8319,3.8503,3.9032,3.9294,3.9039,3.7634,3.6017,3.4346,3.3425,3.2164,3.0296,3.016,2.9919,2.9425,2.9625,2.9712,2.9672,3.0816,3.0401,2.8381,0.0,0.0,0.0,0.0,0.0,0.0,0.0,0.0,0.0,0.0,0.0,0.0,0.0,0.0,0.0,0.0,0.0,0.0,0.0,0.0,0.0,0.0,0.0,3.1959,3.6703,4.0204,4.0345,4.3731,4.5479,4.397,4.5901,4.7241,4.7241,4.8728,4.9297,4.8471,5.0692,5.1279,4.9701,5.1187,5.1628,5.0857,5.0839,5.0453,4.9646,4.9627,4.9627,4.9646,4.9627,5.0086,5.0875,5.082,5.082,5.0784,4.9958,4.9132,4.8177,4.6562,4.592,4.5902,4.592,4.5443,4.4672,4.3846,4.3771,4.4011,4.3974,4.4181,4.4252,4.3371,4.3127,4.3154,4.3127,4.3127,4.3315,4.4149,4.4355,4.4355,4.4355,4.4355,4.4074,4.2951,4.2723,4.2427,4.1379,4.0261,3.9508,3.9471,3.9452,3.9612,4.0065,4.0261,0.0,4.1125,4.1397,4.1223,4.0513,3.9677,3.7856,3.455,3.4844,3.3543,2.9683,3.0738,3.0905,2.9442,3.0021,3.0296,3.0171,3.196,3.1693,2.9302,0.0,0.0,0.0,0.0,0.0,0.0,0.0,0.0,0.0,0.0,0.0,0.0,0.0,0.0,0.0,0.0,0.0,0.0,0.0,0.0,0.0,3.4718,3.8372,3.7876,4.1038,4.4064,4.5828,4.8049,4.9279,4.8877,4.9389,4.9793,4.9793,5.0747,5.1224,5.1004,5.1628,5.1793,5.1334,5.1756,5.1885,5.1665,5.1665,5.1555,5.1316,5.0747,5.0765,5.1316,5.0729,5.1224,5.2491,5.1316,5.1132,5.161,5.0802,4.9976,4.9077,4.7425,4.6416,4.5975,4.6562,4.6654,4.6342,4.5516,4.4926,4.4407,4.3818,4.386,4.4053,4.383,4.3895,4.399,4.3815,4.3755,4.3751,4.3754,4.3744,4.3744,4.3744,4.3744,4.3656,4.3336,4.3281,4.3192,4.2907,4.2584,4.1994,4.0831,4.0628,4.0689,4.0817,4.0917,4.1021,4.1243,4.141,4.1385,4.1034,4.0763,3.9305,3.6003,3.5303,3.3688,3.0463,3.0108,2.9829,2.9425,2.9569,2.9659,2.962,3.0024,2.9931,0.0,0.0,0.0,0.0,0.0,0.0,0.0,0.0,0.0,0.0,0.0,0.0,0.0,0.0,0.0,0.0,0.0,0.0,0.0,0.0,0.0,0.0,3.9271,4.3011,4.3947,4.5625,4.7517,4.9591,5.0511,5.1079,5.1304,5.1402,5.1463,5.134,5.2011,5.2302,5.1995,5.2265,5.2284,5.1995,5.2325,5.2509,5.2509,5.2509,5.2325,5.1977,5.1518,5.1555,5.1977,5.1518,5.2013,5.317,5.2215,5.2068,5.2435,5.1628,5.1022,5.0435,0.0,0.0,0.0,0.0,4.7113,4.6966,4.5792,4.5094,4.458,4.3754,4.3615,4.3781,4.3781,4.3905,4.4011,4.3828,4.3781,4.3749,4.3548,4.3497,4.3497,4.3497,4.3497,4.3497,4.3497,4.3497,4.3497,4.3497,4.3497,0.0,4.2268,4.2121,4.2069,4.2001,4.2084,4.2151,4.2147,4.2332,4.2284,4.1852,4.1533,4.0178,3.723,3.6113,0.0,0.0,0.0,3.0154,2.9842,2.9743,0.0,0.0,0.0,3.0734,3.0847,3.1225,0.0,0.0,3.1424,3.1197,0.0,0.0,0.0,0.0,0.0,0.0,0.0,0.0,0.0,0.0,0.0,0.0,0.0,0.0,0.0,0.0,4.3642,4.6397,4.9444,4.9915,5.0483,5.1848,5.1588,5.1483,5.204,5.226,5.2278,5.2018,5.2645,5.2754,5.2145,5.2785,0.0,0.0,0.0,5.3201,5.3292,5.3261,5.2839,5.2142,5.2142,5.2142,5.2142,5.2142,5.2527,5.3206,5.3206,5.3206,5.3151,5.2435,5.2068,5.183,5.0215,4.9114,4.8361,4.7535,4.7205,4.6911,4.548,0.0,0.0,4.3975,4.3644,4.3516,4.3608,4.3626,4.3608,4.3516,4.3552,4.3608,4.3516,4.3497,4.3497,4.3497,4.3497,4.3497,4.3497,4.3497,4.3497,4.3497,4.3497,4.3497,4.3497,4.3497,4.3444,4.3268,4.3393,4.3444,4.3338,4.36,4.3509,4.2852,4.2131,0.0,3.8219,3.71,3.5243,3.2265,3.1964,3.1449,3.0475,3.0572,3.0628,3.0567,3.2066,3.297,3.3138,3.412,3.5034,3.575,3.1973,3.1653,0.0,0.0,0.0,0.0,0.0,0.0,0.0,0.0,0.0,0.0,0.0,0.0,0.0,0.0,0.0,4.2546,4.6635,4.9929,5.1211,5.2,5.2345,5.2045,5.1981,5.195,5.2094,5.2131,5.1922,5.1343,5.2497,5.3157,5.29,5.3554,5.4162,5.4592,5.3602,5.3353,5.4012,5.3476,5.3133,5.2968,5.2968,0.0,5.2968,5.2968,5.3059,5.3206,5.3206,5.3206,5.3206,5.3041,5.2582,5.183,5.0215,4.9481,4.9224,4.8379,4.7682,4.7076,4.6727,4.581,4.4782,4.5278,4.4562,4.3608,4.4268,4.447,0.0,4.3681,4.3975,4.4323,4.3663,4.3497,4.3497,4.3497,4.3497,4.3497,4.3497,4.3497,4.3497,4.3497,4.3497,4.3497,4.3497,4.3497,4.3497,4.3463,4.3497,4.3513,4.3548,4.3582,4.356,4.3379,4.2607,4.1098,3.8748,3.7779,3.627,3.39,3.3709,3.2739,3.0646,3.2405,3.2831,3.1556,3.3091,3.3931,3.3956,3.4878,3.58,3.67,3.4889,3.4639,0.0,0.0,0.0,0.0,0.0,0.0,0.0,0.0,0.0,0.0,0.0,3.5595,3.7589,0.0,4.3615,4.6466,4.9241,5.142,5.2318,5.2202,5.2144,5.249,5.2086,5.1882,5.2254,5.1651,5.137,5.1768,5.2342,5.2832,5.3173,5.3483,5.4017,5.481,5.4143,5.39,5.4206,5.4356,5.4154,5.3726,5.4173,5.4197,5.3812,5.3812,5.3592,5.3206,5.3206,5.3206,5.3206,5.3206,5.2968,5.2472,5.1261,5.0288,4.9536,4.9095,4.8416,4.7645,4.726,4.6581,4.5902,4.5902,4.5351,4.469,4.4709,4.4984,4.5057,4.3828,4.4085,4.4525,4.3699,4.3497,4.3497,4.3497,4.3497,4.3497,4.3497,4.3497,4.3497,4.3497,4.3497,4.3497,4.3497,4.3497,4.3497,4.3497,4.3497,4.3513,4.3566,4.3582,4.3582,4.3548,4.2879,4.1802,4.0228,3.8245,3.6276,3.4327,3.4197,3.3658,3.2451,3.3547,3.3807,3.3008,3.4216,3.5052,3.5442,3.581,3.6474,3.7322,3.6348,3.6394,0.0,0.0,0.0,0.0,0.0,0.0,0.0,3.2863,3.3476,3.6648,3.8047,3.963,4.2795,4.4781,4.7095,5.052,5.1508,5.2218,5.3131,5.2041,5.1652,5.2978,5.2104,5.1622,5.2369,5.1402,5.1136,5.2191,5.2276,5.2596,5.3268,5.3321,5.3741,5.4627,5.4493,5.443,5.4419,5.5139,5.5129,5.4399,5.4983,5.4979,5.4312,5.4312,5.4008,5.3402,5.3402,5.3353,5.3206,5.3206,5.3206,5.3151,5.2491,5.1242,4.9793,4.9646,4.904,4.8214,4.7572,4.7241,4.704,4.6526,4.6159,4.581,4.5333,4.5516,4.559,4.414,4.4195,4.4525,4.3699,4.3608,4.3681,4.3534,4.3608,4.3681,4.3516,4.3497,4.3497,4.3497,4.3497,4.3497,4.3497,4.3497,4.3497,4.3497,4.3497,4.3497,4.3497,4.3566,4.3582,4.3582,4.3014,4.2273,4.1341,3.873,3.6445,3.4791,3.4829,3.4773,3.4457,3.4754,3.4847,3.4655,3.5658,3.6419,3.6901,3.6934,3.7304,3.7913,3.7367,3.7555,2.9033,3.0587,3.3178,3.4667,3.5235,3.6961,0.0,4.2264,4.1608,4.4837,4.66,4.7702,4.8156,5.0119,5.209,5.3208,5.3117,5.3117,5.3877,5.2822,5.2269,5.3073,5.2025,5.1505,5.225,5.2181,5.1864,5.1376,5.2605,5.3316,5.3316,5.3894,5.4556,5.5278,5.4545,5.4484,5.5163,5.5232,5.5204,5.5067,5.4447,5.4118,5.4027,5.4027,5.4062,5.4078,5.4209,5.3867,5.3206,5.3206,5.3206,5.3206,5.3115,5.2087,5.0582,4.9848,4.904,4.8306,4.8214,4.7719,4.7223,4.7829,4.7058,4.6012,4.6654,4.6416,4.5718,4.4819,4.4635,4.4525,4.3699,4.403,4.4397,4.3663,4.4048,4.4378,4.3644,4.3497,4.3497,4.3497,4.3497,4.3497,4.3497,4.3497,4.3497,4.3497,4.3497,4.3497,4.3497,4.3532,4.3513,4.3582,4.2897,4.1875,4.0459,3.9359,3.8072,3.6519,3.7076,3.6835,3.5404,3.6723,3.7124,3.6358,3.7822,3.8275,3.759,3.8282,3.8689,3.8762,3.8641,3.8339,3.2354,3.3608,3.5442,3.7464,3.8722,4.0451,4.4137,4.4476,4.4956,4.8261,5.01,5.1238,5.1683,5.2925,5.3899,5.3878,5.3662,5.3549,5.3594,5.2691,5.2069,5.2038,5.1526,5.1737,5.298,5.2233,5.1924,5.2567,5.2742,5.299,5.3403,5.3724,5.4205,5.4913,5.4565,5.4525,5.4755,5.5662,5.5822,5.5252,5.5825,5.5915,5.5505,5.5505,5.534,5.4972,5.4601,5.4154,5.3738,5.3347,5.3146,5.3103,5.3164,5.2509,5.1389,5.06,4.9444,4.8306,4.8306,4.8086,4.7865,4.8196,4.7847,4.7278,4.715,4.7205,4.704,4.5755,4.5755,4.592,4.5112,4.5149,4.5314,4.4984,4.48,4.4617,4.4268,4.3828,4.3497,4.3497,4.3497,4.3497,4.3497,4.3497,4.3497,4.3497,4.3497,4.3497,4.3497,4.3497,4.3532,4.3582,4.2441,4.1456,4.088,3.9719,3.8729,3.8072,3.7941,3.7596,3.6909,3.7541,3.7745,3.7357,3.8433,3.883,3.8469,3.8715,3.8833,3.8851,3.8762,3.8596,3.3868,3.5696,3.78,3.9763,4.2178,4.4438,4.5881,4.6749,4.803,5.0663,5.218,5.323,5.3742,5.4514,5.4862,5.4384,5.4008,5.3686,5.3539,5.2585,5.1674,5.1282,5.1031,5.14,5.2615,5.1976,5.2128,5.3566,5.3009,5.2892,5.3467,5.3501,5.3717,5.4264,5.4437,5.4531,5.439,5.5697,5.599,5.5329,5.6219,5.6468,5.6188,5.6398,5.6227,5.5733,5.4972,5.4496,5.4151,5.3494,5.3146,5.3042,5.3164,5.2711,5.1922,5.1353,5.0086,4.8618,4.8379,4.8306,4.8306,4.8306,4.8306,4.8196,4.7627,4.77,4.7737,4.6562,4.6507,4.6636,4.6049,4.6067,4.6177,4.5957,4.5626,4.5314,4.5094,4.4397,4.3828,4.3828,4.3644,4.3497,4.3497,4.3497,4.3497,4.3497,4.3497,4.3497,4.3497,4.3497,4.3513,4.3548,4.2147,4.1204,4.128,3.9863,3.8979,3.8979,3.8053,3.7644,3.7839,3.7413,3.7283,3.7479,3.8238,3.8588,3.8607,3.8711,3.8762,3.8762,3.8719,3.8707,3.2207,3.6222,4.0279,4.1812,4.5856,4.9626,5.0347,5.1157,5.1948,5.2769,5.3576,5.4178,5.4213,5.4846,5.5391,5.5391,5.4209,5.3556,5.4253,5.255,5.1217,5.1217,5.0574,5.0135,5.0185,5.1454,5.2604,5.3433,5.3484,5.3467,5.3501,5.3501,5.3501,5.3501,5.4106,5.4374,5.4419,5.5069,5.5443,5.5408,5.467,5.4585,5.5169,5.5876,5.6188,5.6134,5.5615,5.492,5.4151,5.3494,5.3206,5.3206,5.3206,5.2711,5.1995,5.1958,5.093,4.9426,4.86,4.8306,4.8306,4.8306,4.8306,4.8306,4.8269,4.7755,4.715,4.7095,4.6526,4.592,4.5902,4.6489,4.6874,4.6085,4.6489,4.6819,4.603,4.5241,4.4672,4.4672,4.403,4.3497,4.3497,4.3497,4.3497,4.3497,4.3497,4.3497,4.3497,4.3497,4.3497,4.3479,4.2066,4.1126,4.1204,3.9773,3.8892,3.8892,3.7479,3.6961,3.7673,3.6223,3.5707,3.6417,3.7227,3.7603,3.7562,3.8303,3.8707,3.8707,3.8707,3.8707,3.5061,3.9107,4.34,4.6306,4.8662,5.0657,5.2021,5.2922,5.3514,5.3887,5.3288,5.2634,5.2197,5.1897,5.1716,5.1869,5.225,5.2664,5.2994,5.2363,5.1217,4.9255,4.9661,4.9712,4.8748,4.9965,5.115,5.1928,5.2435,5.2706,5.2706,5.3213,5.3501,5.3501,5.3668,5.3783,5.3783,5.4408,5.4765,5.4765,5.4951,5.5405,5.6009,5.5938,5.6097,5.6479,5.5225,5.4453,5.4061,5.3353,5.2999,5.2955,5.3121,5.3041,5.2729,5.2197,5.1316,5.027,4.9444,4.8783,4.8306,4.8306,4.8306,4.8306,4.8306,4.8122,4.7921,4.7921,4.77,4.7498,4.7498,4.77,4.7847,4.7572,4.7297,4.704,4.6764,4.6067,4.5498,4.5498,4.4856,4.4305,4.4305,4.3846,4.3497,4.3497,4.3497,4.3497,4.3497,4.3497,4.3497,4.3497,4.2543,4.168,4.1181,4.0707,3.9964,3.8907,3.891,3.8541,3.7728,3.7174,3.6768,3.6454,3.7219,3.7595,3.7566,3.8334,3.8707,3.8707,3.8707,3.8707,3.8819,4.2774,4.6614,4.9666,5.125,5.2218,5.3112,5.3415,5.3445,5.3312,5.1787,5.0359,4.9649,4.8657,4.8114,4.8545,4.9602,5.0634,5.1464,5.1349,5.057,4.8883,4.9289,4.9323,4.8392,4.9154,5.0118,5.1133,5.1894,5.23,5.23,5.3061,5.3501,5.3501,5.3501,5.3501,5.3501,5.3898,5.4059,5.4059,5.4791,5.5314,5.5738,5.5362,5.5408,5.574,5.4397,5.3767,5.3677,5.3135,5.2868,5.2806,5.3017,5.306,5.3005,5.2517,5.1862,5.1018,4.9958,4.9022,4.8306,4.8306,4.8306,4.8306,4.8306,4.8306,4.8306,4.8306,4.8306,4.8306,4.8306,4.8306,4.8306,4.8306,4.7921,4.7535,4.7535,4.6911,4.625,4.5957,4.5259,4.4617,4.4323,4.3828,4.3497,4.3497,4.3497,4.3497,4.3497,4.3497,4.3497,4.3497,4.2782,4.2084,4.1589,4.1323,4.0762,3.97,3.9632,3.9165,3.8103,3.7219,3.65,3.5984,3.672,3.7143,3.7143,3.8205,3.8707,3.8707,3.8707,3.8707,4.3217,4.7005,4.9796,5.1894,5.3518,5.4397,5.3619,5.2824,5.2012,5.1217,4.9255,4.7428,4.6599,4.5297,4.4677,4.5603,4.651,4.7852,5.0034,4.978,4.9576,5.0016,4.9509,4.9103,4.9069,4.9086,4.9695,5.1116,5.186,5.2266,5.23,5.3061,5.3501,5.3501,5.3501,5.3501,5.3501,5.3501,5.3501,5.3501,5.4059,5.4391,5.4356,5.4189,5.4133,5.4103,5.3282,5.2931,5.2928,5.2844,5.2806,5.2806,5.2806,5.2806,5.2806,5.2937,5.2486,5.159,5.0156,4.9095,4.8379,4.8379,4.8343,4.8306,4.8306,4.8306,4.8306,4.8306,4.8306,4.8306,4.8306,4.8306,4.8306,4.8306,4.8306,4.8306,4.8306,4.7719,4.6929,4.6122,4.5278,4.4452,4.3626,4.3497,4.3497,4.3497,4.3497,4.3497,4.3497,4.3497,4.3497,4.3497,4.2818,4.2341,4.2304,4.1691,4.1282,4.1111,3.9779,3.8983,3.8836,3.6512,3.5229,3.5174,3.5973,3.6358,3.6358,3.7936,3.8707,3.8707,3.8707,3.8707,4.687,5.0473,5.3298,5.3873,5.4296,5.4245,5.2909,5.2029,5.098,4.9137,4.6515,4.4012,4.2309,4.1595,4.1882,4.3871,4.6157,4.8453,5.0689,5.1298,5.118,5.0202,5.0422,5.0422,4.9864,5.0321,5.0811,5.1183,5.1386,5.1725,5.2266,5.3061,5.3501,5.3501,5.3501,5.3501,5.3501,5.3501,5.3501,5.3501,5.3668,5.3946,5.4356,5.3301,5.3083,5.3489,5.2576,5.2199,5.2183,5.2527,5.2654,5.2654,5.2761,5.2806,5.2806,5.285,5.2339,5.1517,5.0639,4.9881,4.926,4.926,4.882,4.8306,4.8306,4.8306,4.8306,4.8306,4.8306,4.8306,4.8306,4.8306,4.8306,4.8306,4.8306,4.8306,4.8306,4.8141,4.7774,4.6966,4.5663,4.4452,4.3626,4.3497,4.3497,4.3497,4.3497,4.3497,4.3497,4.3497,4.3497,4.3497,4.3314,4.2947,4.2359,4.2687,4.2393,4.1185,4.1879,4.1769,4.0543,3.9313,3.8377,3.7771,3.7386,3.7184,3.7184,3.8212,3.8707,3.8707,3.8707,3.8707,5.0963,5.3721,5.548,5.5158,5.4837,5.394,5.1355,4.997,4.8545,4.5916,4.3263,4.1001,3.9527,3.8901,3.941,4.1766,4.4037,4.6683,4.9842,5.0655,5.096,5.1048,5.1437,5.1522,5.1099,5.1437,5.1843,5.2198,5.1894,5.186,5.2283,5.3061,5.3501,5.3501,5.3501,5.3501,5.3501,5.3501,5.3501,5.3501,5.3501,5.3668,5.3977,5.2836,5.2309,5.2364,5.1765,5.1437,5.1402,5.1961,5.2315,5.2581,5.2645,5.2645,5.269,5.2717,5.2207,5.1577,5.1639,5.0936,4.9936,4.926,4.8691,4.8306,4.8306,4.8563,4.8783,4.8416,4.8581,4.8783,4.8398,4.8306,4.8306,4.8306,4.8306,4.8306,4.8306,4.8306,4.8067,4.7278,4.581,4.4562,4.4103,4.3718,4.3497,4.3497,4.3497,4.3497,4.3497,4.3497,4.3497,4.3497,4.3497,4.3314,4.2873,4.3222,4.3112,4.2213,4.2671,4.2561,4.1662,4.0175,3.9166,3.8707,3.79,3.7507,3.7507,3.8303,3.8707,3.8707,3.8707,3.8707,5.4735,5.6393,5.6748,5.5919,5.4989,5.3331,4.9552,4.7359,4.5307,4.2277,4.0054,3.8481,3.7736,3.7229,3.7699,4.0034,4.1852,4.4419,4.8574,4.9423,5.026,5.208,5.2384,5.2469,5.2469,5.2469,5.2756,5.345,5.2858,5.2469,5.2469,5.3129,5.3501,5.3501,5.3501,5.3501,5.3501,5.3501,5.3501,5.3501,5.3501,5.3501,5.3467,5.257,5.1809,5.1166,5.1012,5.0845,5.0751,5.1432,5.2048,5.2498,5.2498,5.2498,5.2498,5.2581,5.2209,5.1736,5.2546,5.1846,5.0364,4.9056,4.8563,4.8453,4.8343,4.8912,4.9426,4.8691,4.9022,4.9426,4.8673,4.8398,4.8306,4.8306,4.8306,4.8306,4.8306,4.8233,4.7939,4.726,4.5902,4.4874,4.4874,4.4287,4.3773,4.3663,4.3644,4.3608,4.3497,4.3497,4.3497,4.3497,4.3497,4.3497,4.3497,4.3497,4.3497,4.3497,4.2837,4.2451,4.2451,4.0359,3.9184,3.9184,3.8377,3.7918,3.7808,3.8524,3.8799,3.8707,3.8707,3.8707,5.6072,5.7154,5.7391,5.6055,5.4194,5.1828,4.8613,4.5344,4.2331,3.9885,3.8115,3.6831,3.6101,3.6941,3.843,4.0663,4.3373,4.6082,4.869,5.0638,5.1877,5.2266,5.2892,5.3298,5.3298,5.3298,5.3348,5.3501,5.3365,5.3298,5.3298,5.3433,5.3501,5.3501,5.3501,5.3501,5.3501,5.3501,5.3501,5.3501,5.3501,5.3501,5.345,5.2046,5.1336,5.1197,5.0864,5.0712,5.0805,5.1884,5.2387,5.2498,5.2498,5.2498,5.2498,5.2526,5.2454,5.23,5.196,5.1244,5.0422,5.0373,4.9921,4.9224,4.8526,4.8912,4.9554,4.9407,4.9462,4.9554,4.9389,4.8838,4.8306,4.8306,4.8306,4.8306,4.8306,4.7792,4.7297,4.715,4.6342,4.5681,4.5681,4.5571,4.5259,4.4599,4.4488,4.425,4.3589,4.3497,4.3497,4.3497,4.3497,4.3497,4.3497,4.3497,4.3497,4.3497,4.3369,4.3277,4.3277,4.2249,4.168,4.168,4.0891,4.0157,3.9478,3.9606,3.935,3.8707,3.8707,3.8707,5.6968,5.7628,5.7543,5.6089,5.3704,5.0696,4.6767,4.2975,3.9664,3.7366,3.6041,3.5379,3.5503,3.6523,3.8041,4.0257,4.1508,4.3673,4.7851,4.9018,5.0152,5.208,5.301,5.3501,5.3501,5.3501,5.3501,5.3501,5.3501,5.3501,5.3501,5.3501,5.3501,5.3501,5.3501,5.3501,5.3501,5.3501,5.3501,5.3501,5.3501,5.3501,5.3467,5.23,5.1572,5.1214,5.0942,5.0809,5.0751,5.1651,5.2228,5.2498,5.2498,5.2498,5.2498,5.2498,5.229,5.2018,5.2196,5.1755,5.1164,5.1367,5.0288,4.893,4.8967,4.926,4.9591,4.9591,4.9884,5.0013,4.915,4.8948,4.8857,4.8416,4.8306,4.8306,4.8306,4.8012,4.7737,4.7737,4.7076,4.6526,4.6526,4.6177,4.5626,4.4837,4.4709,4.4415,4.3589,4.3497,4.3497,4.3497,4.3497,4.3497,4.3497,4.3497,4.3497,4.3497,4.3497,4.3497,4.3497,4.2727,4.2304,4.2304,4.1515,4.0708,3.99,3.99,3.9478,3.8707,3.8707,3.8707,5.7205,5.7645,5.7306,5.5835,5.2976,4.9362,4.4959,4.0838,3.7382,3.5502,3.4464,3.4264,3.5323,3.619,3.7398,3.9309,3.9529,4.1271,4.6464,4.7107,4.8291,5.1674,5.2756,5.3315,5.3484,5.3501,5.3501,5.3501,5.3501,5.3501,5.3501,5.3501,5.3501,5.3501,5.3501,5.3501,5.3501,5.3501,5.3501,5.3501,5.3501,5.3501,5.3467,5.2503,5.1824,5.1405,5.0961,5.0811,5.0929,5.1381,5.1951,5.2498,5.2498,5.2498,5.2498,5.2498,5.2191,5.1827,5.2561,5.2364,5.1833,5.1935,5.0674,4.915,4.9383,4.9545,4.9655,4.949,4.9893,5.0094,4.8873,4.8948,4.9132,4.8471,4.8306,4.8306,4.8306,4.8306,4.8306,4.8306,4.781,4.737,4.737,4.6838,4.614,4.5351,4.5223,4.4874,4.3883,4.3754,4.3681,4.3516,4.3497,4.3497,4.3497,4.3497,4.3497,4.3497,4.3497,4.3497,4.3497,4.2892,4.2561,4.2561,4.1937,4.113,4.0157,4.0157,3.9643,3.8707,3.8707,3.8707,5.6237,5.69,5.6545,5.5057,5.1437,4.7335,4.3984,3.9243,3.5509,3.5185,3.4001,3.3556,3.5177,3.6127,3.6966,3.7956,3.9732,4.1914,4.4519,4.6583,4.868,5.1031,5.1961,5.2706,5.3433,5.3501,5.3501,5.3501,5.3501,5.3501,5.3501,5.3501,5.3501,5.3501,5.3501,5.3501,5.3501,5.3501,5.3501,5.3501,5.3501,5.3501,5.345,5.1978,5.1571,5.1941,5.0614,5.0602,5.15,5.1551,5.1951,5.2498,5.2498,5.2498,5.2498,5.2498,5.2499,5.2518,5.2725,5.2382,5.181,5.1954,5.1848,5.1289,4.9452,4.9379,4.9815,4.9089,4.8944,4.9065,4.9402,4.8948,4.8398,4.8324,4.8306,4.8306,4.8306,4.8306,4.8306,4.8306,4.8251,4.8196,4.8196,4.8141,4.781,4.7021,4.6893,4.6342,4.48,4.4599,4.4305,4.3571,4.3497,4.3497,4.3497,4.3497,4.3497,4.3497,4.3497,4.3497,4.3497,4.3424,4.3387,4.3387,4.3314,4.2525,4.1001,4.1001,4.0212,3.8707,3.8707,3.8707,5.4649,5.548,5.5226,5.4194,5.0092,4.5791,4.3591,3.8538,3.4446,3.4911,3.386,3.3428,3.5069,3.5681,3.6211,3.711,3.7554,3.8873,4.21,4.2929,4.4857,4.9357,5.0135,5.115,5.3298,5.3501,5.3501,5.3501,5.3501,5.3501,5.3501,5.3501,5.3501,5.3501,5.3501,5.3501,5.3501,5.3501,5.3501,5.3501,5.301,5.279,5.2739,5.1217,5.065,5.0878,5.0535,5.0661,5.1087,5.1817,5.2275,5.2498,5.2498,5.2498,5.2444,5.1955,5.1864,5.1863,5.1504,5.125,5.1078,5.122,5.1279,5.1051,4.9883,4.9082,4.8525,4.8425,4.8371,4.8326,4.8052,4.7946,4.7955,4.821,4.8306,4.8306,4.8306,4.8306,4.8306,4.8306,4.8306,4.8306,4.8306,4.8306,4.8031,4.7241,4.6709,4.5975,4.4856,4.4287,4.3864,4.3516,4.3497,4.3497,4.3497,4.3497,4.3497,4.3497,4.3497,4.3497,4.3497,4.3497,4.3497,4.3497,4.302,4.2213,4.1111,4.0616,3.9808,3.8707,3.8707,3.8707,5.2235,5.3568,5.3737,5.301,4.8697,4.4212,4.2478,3.7569,3.3578,3.4091,3.3454,3.3256,3.4676,3.5186,3.5727,3.6608,3.6241,3.705,4.0358,4.0612,4.2219,4.7047,4.7885,4.9204,5.2198,5.3112,5.3501,5.3501,5.3501,5.3501,5.3501,5.3501,5.3501,5.3501,5.3501,5.3501,5.3501,5.3264,5.3145,5.3145,5.235,5.1978,5.1944,5.0659,5.021,5.0407,5.0454,5.0643,5.1034,5.1866,5.2322,5.2498,5.2498,5.2498,5.2426,5.1846,5.161,5.1427,5.0939,5.0702,5.0643,5.0762,5.0637,5.0391,5.0101,4.8934,4.7705,4.7576,4.7757,4.786,4.7453,4.7567,4.7897,4.821,4.8306,4.8306,4.8306,4.8306,4.8306,4.8306,4.8306,4.8306,4.8306,4.8306,4.8031,4.7241,4.6636,4.5883,4.4837,4.4213,4.3754,4.3516,4.3497,4.3497,4.3497,4.3497,4.3497,4.3497,4.3497,4.3497,4.3497,4.3497,4.3387,4.3149,4.2598,4.1791,4.0744,4.0414,3.9717,3.8707,3.8946,3.8927,4.887,5.1136,5.2147,5.142,4.725,4.2644,4.0177,3.6167,3.2846,3.2562,3.2607,3.2956,3.3856,3.4697,3.5589,3.6451,3.6726,3.7503,3.9598,4.0627,4.1996,4.4164,4.5223,4.6887,4.9847,5.2181,5.3501,5.3501,5.3501,5.3501,5.3501,5.3501,5.3501,5.3501,5.3501,5.3501,5.3501,5.2706,5.2317,5.23,5.1572,5.1234,5.12,5.0439,5.0441,5.0934,5.0218,5.0532,5.1601,5.1601,5.1951,5.2498,5.2498,5.2498,5.2498,5.248,5.2082,5.15,5.1559,5.1158,5.0643,5.0762,5.0251,4.964,4.9919,4.9136,4.7843,4.6592,4.6908,4.7692,4.8172,4.8306,4.8306,4.8306,4.8306,4.8306,4.8306,4.8306,4.8306,4.8306,4.8306,4.8306,4.8306,4.8306,4.8031,4.7241,4.7075,4.6526,4.4929,4.4709,4.4378,4.3589,4.3497,4.3497,4.3497,4.3497,4.3497,4.3497,4.3497,4.3497,4.3497,4.3497,4.313,4.2323,4.2304,4.1515,3.99,4.0708,4.0267,3.8726,3.9515,3.946,4.3048,4.4181,4.4428,4.4209,4.1238,3.8204,3.7419,3.4479,3.2012,3.2536,3.2343,3.248,3.3756,3.4234,3.4726,3.571,3.6575,3.7248,3.7595,3.9194,4.1317,4.4063,4.7402,5.0033,5.1454,5.2266,5.2909,5.3467,5.3501,5.3501,5.3501,5.2993,5.2942,5.3484,5.3501,5.3501,5.3501,5.3247,5.2841,5.23,5.1555,5.0947,5.0422,4.9678,4.9691,5.0235,5.0397,5.0893,5.1619,5.2048,5.2322,5.2498,5.2498,5.2498,5.2426,5.1864,5.1248,5.0537,5.0053,4.9409,4.8857,4.8995,4.8831,4.8608,4.8423,4.8464,4.8425,4.7718,4.7301,4.7248,4.7674,4.7816,4.7897,4.821,4.8306,4.8306,4.8306,4.8306,4.8306,4.8306,4.8306,4.8306,4.8306,4.7847,4.7407,4.715,4.6177,4.5296,4.4782,4.4213,4.3773,4.3516,4.3497,4.3497,4.3497,4.3497,4.3497,4.3497,4.3497,4.3497,4.3497,4.3497,4.3112,4.2323,4.1772,4.0965,3.99,3.9606,3.9478,3.9533,3.9772,3.9753,3.8824,4.0153,4.0574,4.0522,3.8154,3.5704,3.5404,3.311,3.1209,3.1742,3.1838,3.2174,3.3339,3.3879,3.4488,3.5635,3.6276,3.6712,3.6925,3.8705,4.1218,4.4491,4.7875,5.0253,5.098,5.1809,5.252,5.301,5.3331,5.3501,5.3501,5.2739,5.2536,5.3044,5.279,5.2638,5.2638,5.2638,5.2249,5.1454,5.1014,5.0405,4.9661,4.9433,4.9555,4.993,5.0733,5.126,0.0,5.2275,5.2498,5.2498,5.2498,5.2498,5.2426,5.1937,5.1076,5.0112,4.9683,4.8816,4.7988,4.8108,4.8349,4.8605,4.8429,4.8249,4.8073,4.7922,4.7537,4.7291,4.7733,4.7856,4.7955,4.821,4.8306,4.8306,4.8306,4.8306,4.8306,4.8306,4.8306,4.8306,4.8306,4.7645,4.7113,4.7113,4.5736,4.4709,4.4709,4.3993,4.3497,4.3497,4.3497,4.3497,4.3497,4.3497,4.3497,4.3497,4.3497,4.3497,4.3497,4.3497,4.2983,4.1882,4.1368,4.0561,3.9441,3.8946,3.932,4.0492,3.9884,3.9649,0.0,3.8246,3.936,3.9244,3.7076,3.4755,3.381,3.1994,0.0,3.0459,3.1115,3.1941,3.27,3.3567,3.4656,3.6025,3.5912,3.606,3.7265,3.9109,4.166,4.528,4.7056,4.824,4.8866,5.0879,5.2164,5.2215,5.2909,5.3348,5.3348,5.2587,5.2147,5.2147,5.1437,5.1116,5.1217,5.1268,5.0879,5.0084,5.0135,4.9763,4.9001,4.9615,4.9948,4.9988,5.1122,5.1601,5.1719,5.2275,5.2498,5.2498,5.2498,5.2498,5.248,5.2426,5.143,5.0115,5.0112,4.9156,4.7902,4.797,4.8601,4.9322,4.946,4.8363,4.716,4.7639,4.7687,4.7775,4.8172,4.8306,4.8306,4.8306,4.8306,4.8306,4.8306,4.8306,4.8306,4.8306,4.8306,4.8288,4.8233,4.7572,4.7021,4.6966,4.5626,4.4617,4.4617,4.3956,4.3497,4.3497,4.3497,4.3497,4.3497,4.3497,4.3497,4.3497,4.3442,4.3424,4.3497,4.3442,4.2708,4.1222,4.1148,4.0377,3.8872,3.8903,3.9792,4.1468,3.9974,3.9402,3.1045,0.0,3.2507,3.2374,3.2167,3.1774,0.0,0.0,0.0,0.0,0.0,3.1357,3.2068,3.2744,3.3545,3.4571,3.5368,3.6085,3.658,4.0086,4.331,4.5466,4.7513,4.8595,4.8206,4.9644,5.0845,5.1437,5.164,5.1758,5.1758,5.1031,5.0608,5.0608,4.9898,5.0067,5.12,5.1775,5.1386,5.0101,5.0676,5.027,4.9001,4.9615,5.0142,5.0535,5.1278,5.1884,5.2275,5.2434,5.2498,5.2498,5.2498,5.2498,5.2426,5.181,5.0967,5.0094,4.9427,4.8635,4.7902,4.797,4.8218,4.8519,4.8579,4.8794,4.8981,4.9102,4.8626,4.8172,4.8267,4.8306,4.8306,4.8306,4.8306,4.8306,4.8306,4.8306,4.8306,4.8306,4.8306,4.8104,4.7498,4.6728,4.5975,4.5369,4.4415,4.3773,4.3773,4.3608,4.3497,4.3497,4.3497,4.3497,4.3497,4.3497,4.3497,4.3497,4.291,4.2855,4.3461,4.291,4.2396,4.2029,4.1423,4.0928,4.0543,4.0757,4.1074,4.1505,4.1315,4.0945,2.93,2.9775,3.0149,2.9947,3.0191,3.0432,3.0166,0.0,0.0,0.0,0.0,3.1211,3.1991,3.2664,3.3403,3.4307,3.5534,3.7014,3.894,4.1285,4.4057,4.7386,4.825,4.8748,4.9373,4.983,5.027,5.0676,5.1014,5.1217,5.1217,5.049,5.0084,5.0084,4.9373,4.939,5.0185,5.0913,5.071,4.9593,5.0635,5.0334,4.9063,5.0159,5.0678,5.0751,5.1651,5.2209,5.2498,5.2498,5.2498,5.2498,5.2498,5.2263,5.19,5.1448,5.0587,4.9561,4.9057,4.8448,4.7902,4.797,4.809,4.8226,4.8267,4.8636,4.9003,4.9003,4.8655,4.8306,4.8306,4.8306,4.8306,4.8306,4.8306,4.8306,4.8306,4.8306,4.8196,4.7829,4.7755,4.7498,4.6691,4.5883,4.5333,4.5259,4.425,4.3626,4.3993,4.3718,4.3497,4.3497,4.3497,4.3497,4.3497,4.3497,4.3497,4.3497,4.2745,4.2653,4.3461,4.2727,4.2304,4.2304,4.1291,4.0911,4.1298,4.0802,4.0838,4.1319,4.1462,4.1364,2.8848,2.9729,3.0156,2.9736,2.9749,2.9926,3.0195,0.0,0.0,0.0,0.0,3.1139,3.2121,3.2899,3.3702,3.455,3.6124,3.858,4.2275,4.2881,4.4677,4.9219,4.8758,4.8731,5.0388,5.0168,4.9915,4.9915,5.0524,5.0879,5.0879,5.027,4.9915,4.9915,4.9323,4.9001,4.9001,4.9729,4.9791,4.9185,5.0326,5.0292,4.9316,5.0786,5.1209,5.0911,5.2048,5.2498,5.248,5.2371,5.2317,5.2299,5.2172,5.1719,5.1086,5.0977,5.0071,4.8894,4.8768,4.8339,4.7902,4.797,4.809,4.8187,4.8267,4.8306,4.8306,4.8306,4.8306,4.8306,4.8306,4.8306,4.8306,4.8306,4.8306,4.8306,4.8306,4.8214,4.7921,4.7241,4.7021,4.6673,4.5865,4.5149,4.4892,4.5443,4.436,4.3736,4.4433,4.392,4.3497,4.3497,4.3497,4.3497,4.3497,4.3497,4.3497,4.3497,4.2745,4.2598,4.3277,4.2782,4.2448,4.2353,4.1366,4.1144,4.1731,4.0664,4.0594,4.148,4.1529,4.1601,2.7569,2.8973,3.0212,2.9273,2.933,2.9385,2.8522,2.8774,0.0,0.0,3.0012,3.0533,3.2019,3.2899,3.3643,3.443,3.7394,4.0663,4.3664,4.524,4.6397,4.7251,4.8206,4.8477,4.7564,4.8494,4.9171,4.9171,4.9272,4.934,4.934,4.9238,4.9171,4.9171,4.9069,4.9001,4.9001,4.9729,5.0005,4.9791,5.0083,5.03,5.0425,5.0697,5.1087,5.15,5.2209,5.2498,5.2444,5.1756,5.1466,5.1411,5.0723,5.0379,5.018,4.9528,4.913,4.8822,4.8134,4.7826,4.7759,4.7951,4.7992,4.8072,4.8229,4.8306,4.8306,4.8306,4.8306,4.8306,4.8306,4.8306,4.8306,4.8306,4.8306,4.8306,4.8306,4.7774,4.726,4.7094,4.6562,4.5828,4.5021,4.4782,4.4525,4.3938,4.3644,4.3534,4.3663,4.3571,4.3497,4.3497,4.3497,4.3497,4.3497,4.3497,4.3497,4.3497,4.2745,4.2359,4.2488,4.302,4.31,4.2637,4.3175,4.3234,4.2847,4.2938,4.3047,4.3227,4.345,4.3212,2.6675,2.7837,2.8982,2.9429,3.0006,3.0319,2.9702,2.9621,3.0,3.1033,3.0931,3.1083,3.271,3.3872,3.5504,3.8261,3.9884,4.1985,4.5337,4.571,4.6387,4.8446,4.8538,4.846,4.8562,4.8832,4.9001,4.9001,4.9001,4.9001,4.9001,4.9001,4.9001,4.9001,4.9001,4.9001,4.9001,4.934,4.9491,4.9394,5.0083,5.0397,5.0293,5.126,5.1651,5.1601,5.2228,5.2498,5.2426,5.1629,5.1285,5.1212,5.0397,4.9818,4.9311,4.8061,4.788,4.8152,4.7337,4.7397,4.7842,4.797,4.805,4.813,4.8267,4.8306,4.8306,4.8306,4.8306,4.8306,4.8306,4.8306,4.8306,4.8306,4.8306,4.8306,4.8306,4.7682,4.6985,4.6544,4.581,4.5002,4.4195,4.4048,4.392,4.3552,4.3497,4.3497,4.3497,4.3649,4.3781,4.3781,4.3905,4.3992,4.3992,4.3992,4.3669,4.2907,4.3092,4.2742,4.1699,4.2717,4.2909,4.208,4.2305,4.2502,4.2674,4.2538,4.2705,4.3183,4.3725,4.3806,2.6115,2.7103,2.8097,2.9429,3.0248,3.083,3.1258,3.1028,3.1148,3.2632,3.2496,3.2519,3.382,3.5237,3.7479,4.1442,4.2121,4.3345,4.6741,4.6421,4.6912,4.9695,4.9063,4.8798,4.9746,4.9323,4.9001,4.9001,4.9001,4.9001,4.9001,4.9001,4.9001,4.9001,4.9001,4.9001,4.9001,4.9001,4.9107,4.9436,5.0181,5.041,5.027,5.1647,5.2006,5.1567,5.2203,5.2389,5.2154,5.1339,5.0904,5.0651,4.9836,4.9057,4.8206,4.6957,4.6776,4.7102,4.6866,4.7166,4.7647,4.7915,4.809,4.8226,4.8267,4.8306,4.8306,4.8306,4.8306,4.8306,4.8306,4.8306,4.8306,4.8306,4.8306,4.8306,4.8306,4.7682,4.6874,4.6067,4.5259,4.4452,4.3626,4.3497,4.3497,4.3497,4.3497,4.3513,4.3615,4.3846,4.4017,4.4109,4.4279,4.4383,4.4383,4.4383,4.3922,4.2876,4.3602,4.3336,4.163,4.2547,4.2641,4.1717,4.1474,4.1711,4.2405,4.2007,4.2144,4.2813,4.3443,4.3825,2.5941,2.7422,2.8652,2.8757,2.9035,2.9796,3.1935,3.2327,0.0,3.3999,3.4542,3.4939,3.5389,3.678,3.8642,4.107,4.3141,4.5224,4.7513,4.89,4.9543,4.912,4.9593,4.9712,4.9137,4.9035,4.9001,4.9001,4.9001,4.9001,4.9001,4.9001,4.9001,4.9001,4.9001,4.9001,4.9001,4.9001,4.9538,5.0589,5.0142,5.0364,5.1192,5.1544,5.1538,5.1366,5.2172,5.2063,5.1303,5.0506,4.9745,4.9003,4.8206,4.7391,4.6667,4.654,4.6069,4.5689,4.712,4.7275,4.6902,4.7733,4.809,4.8226,4.8267,4.8306,4.8306,4.8306,4.8306,4.8306,4.8306,4.8306,4.8306,4.8306,4.8306,4.8306,4.8306,4.7682,4.6874,4.6067,4.5259,4.4452,4.3626,4.3497,4.3497,4.3497,4.3497,4.3615,4.3942,4.4005,4.4109,4.4346,4.4402,4.4383,4.4383,4.4383,4.4364,4.4252,4.4337,4.3933,4.3006,4.3052,4.2829,4.2248,4.2238,4.2411,4.2755,4.2737,4.2737,4.2794,4.287,4.3291,2.5236,2.697,2.8585,2.9169,3.0219,0.0,0.0,3.3519,3.4189,3.4909,3.5626,3.6355,3.6907,3.8633,4.0561,4.2356,4.4152,4.6099,4.8274,4.868,4.8968,4.961,4.9526,4.9306,4.9035,4.9001,4.9001,4.9001,4.9001,4.9001,4.9001,4.9001,4.9001,4.9001,4.8578,4.8342,4.8342,4.7868,4.8192,4.9276,5.0043,5.0541,5.0767,5.1232,5.1084,5.056,5.0868,5.0542,4.9745,4.8949,4.8134,4.7337,4.6522,4.6341,4.645,4.5943,4.5888,4.6142,4.6839,4.6571,4.6197,4.763,4.7819,4.7547,4.8121,4.8306,4.8306,4.8306,4.7957,4.7682,4.8177,4.8306,4.8306,4.8306,4.7921,4.7572,4.7572,4.6544,4.5535,4.5223,4.4507,4.3864,4.3534,4.3497,4.3497,4.3497,4.3682,4.3846,4.3974,4.4308,4.4538,4.4624,4.4838,4.4953,4.4953,4.4953,4.4953,4.4953,4.477,4.4195,4.32,4.2999,4.2477,4.156,4.1235,4.1359,4.1991,4.1991,4.2278,4.2794,4.2794,4.2966,2.5028,2.6445,2.7947,2.9292,0.0,0.0,3.3863,3.4965,3.5953,3.7016,3.7382,3.7702,3.8464,3.9834,4.1424,4.3132,4.4908,4.6735,4.8731,4.8781,4.8883,4.9661,4.9509,4.9255,4.9018,4.9001,4.9001,4.9001,4.9001,4.8944,4.8933,4.8933,4.8873,4.8795,4.8299,4.8042,4.8042,4.7586,4.764,4.83,4.9358,4.9877,4.9966,5.0642,5.0325,4.9347,4.9601,4.913,4.8116,4.7554,4.6848,4.6069,4.5526,4.549,4.5743,4.5747,4.5765,4.5896,4.6503,4.6236,4.5783,4.7033,4.7091,4.6743,4.7351,4.7553,4.7553,4.7553,4.715,4.6856,4.7407,4.7553,4.7553,4.7553,4.7131,4.6728,4.6728,4.5865,4.5002,4.4764,4.4354,4.3944,4.3686,4.373,4.3758,4.3758,4.3968,4.4151,4.425,4.4572,4.4843,4.4957,4.5173,4.5297,4.5297,4.5297,4.5297,4.5297,4.5068,4.4507,4.3504,4.3276,4.281,4.2034,4.113,4.1094,4.1915,4.138,4.1437,4.2049,4.2049,4.222,2.5428,2.6008,2.6737,2.8948,0.0,0.0,3.5349,3.6564,3.7877,4.0628,4.0037,3.9242,3.9969,4.0138,4.0882,4.3081,4.5314,4.731,4.8781,4.961,4.9796,4.9086,4.9644,4.9796,4.9069,4.8984,4.8984,4.8984,4.8984,4.8872,4.8712,4.8678,4.8612,4.8399,4.8364,4.8416,4.8416,4.8399,4.8249,4.7986,4.7986,4.8317,4.8912,4.9691,4.9184,4.7735,4.855,4.7989,4.6504,4.6504,4.6015,4.5291,4.5291,4.482,4.4313,4.6063,4.5685,4.456,4.6221,4.6355,4.5772,4.5791,4.5847,4.5902,4.5902,4.5902,4.5902,4.5902,4.5902,4.5883,4.5883,4.5883,4.5883,4.5883,4.5883,4.5883,4.5883,4.5883,4.5645,4.4856,4.4983,4.4934,4.4135,4.4221,4.4383,4.4383,4.4383,4.4493,4.4776,4.48,4.4934,4.5256,4.5297,4.5297,4.5297,4.5297,4.5297,4.5297,4.5317,4.4914,4.4055,4.4017,4.4017,4.4017,4.2354,4.1915,4.2794,4.1113,4.0345,4.0406,4.0406,4.0931,2.4895,2.6068,2.7465,2.9422,3.1702,3.3942,3.5937,3.7044,0.0,4.1393,4.1273,4.1053,4.2202,4.3318,4.4096,4.4215,4.5669,4.7124,4.8105,4.8426,4.8663,4.8968,4.9187,4.9035,4.8308,4.824,4.802,4.7479,4.7824,4.7992,4.792,4.8271,4.8434,4.8382,4.7855,4.7557,4.7557,4.7031,4.6941,4.7247,4.7247,4.7205,4.7228,4.7464,4.6993,4.6069,4.6866,4.6631,4.5653,4.5653,4.5526,4.5291,4.5291,4.549,4.5852,4.6481,4.603,4.5324,4.6517,4.5698,4.4327,4.548,4.5865,4.5902,4.5902,4.6305,4.6636,4.6067,4.5657,4.5401,4.5401,4.5133,4.5078,4.6008,4.5827,4.5467,4.5655,4.5233,4.4766,4.4524,4.4576,4.4541,4.4317,4.4346,4.4383,4.4383,4.4546,4.4795,4.5109,4.5132,4.5194,4.5297,4.5297,4.5339,4.5419,4.5438,4.5476,4.5584,4.5584,4.5379,4.4935,4.4422,4.4135,4.4135,4.259,4.1909,4.2159,4.1043,4.0519,4.0545,4.0545,4.1022,2.5055,2.6609,2.8411,3.0823,3.3159,3.5296,3.696,3.8276,3.9856,4.2257,4.1984,4.1899,4.3944,4.4587,4.484,4.501,4.6024,4.6955,4.7411,4.7462,4.775,4.8494,4.8308,4.8071,4.7936,4.781,4.7612,4.7135,4.7631,4.7856,4.7736,4.8096,4.8204,4.8116,4.7666,4.74,4.74,4.6938,4.6748,4.6729,4.6729,4.6506,4.6051,4.6703,4.654,4.5798,4.5943,4.5743,4.5291,4.5291,4.5291,4.5327,4.5653,4.5929,4.6186,4.6961,4.6527,4.5713,4.634,4.5425,4.4088,4.5077,4.5424,4.5424,4.5424,4.5773,4.5993,4.5326,4.4938,4.4761,4.4848,4.4635,4.459,4.5413,4.5233,4.4939,4.5077,4.474,4.4383,4.4383,4.4493,4.4572,4.4638,4.4757,4.4853,4.4905,4.5058,4.5223,4.5438,4.5457,4.5457,4.5457,4.5457,4.5495,4.5584,4.5584,4.5599,4.568,4.57,4.5635,4.5457,4.5031,4.4795,4.4795,4.3547,4.271,4.2362,4.1533,4.0963,4.0694,4.1028,4.1482,2.57,2.7431,2.9515,3.2691,3.4829,3.6632,3.838,3.9961,4.1508,4.2929,4.2252,4.2269,4.5077,4.4519,4.4079,4.5483,4.6312,4.6786,4.6786,4.6786,4.7056,4.7733,4.7208,4.7039,4.7708,4.7638,4.751,4.7496,4.7945,4.8144,4.7885,4.7943,4.7886,4.7693,4.7717,4.7663,4.7591,4.7591,4.7192,4.6395,4.6395,4.6015,4.5345,4.6812,4.712,4.6468,4.5725,4.5454,4.5526,4.5526,4.5526,4.5599,4.625,4.6205,4.5924,4.739,4.7012,4.5828,4.5865,4.5369,4.4709,4.4709,4.48,4.4946,4.4873,4.4871,4.481,4.4308,4.4104,4.4121,4.4374,4.4438,4.4465,4.4465,4.4438,4.4438,4.4484,4.4493,4.4493,4.4493,4.4726,4.4924,4.5042,4.5323,4.5566,4.5684,4.57,4.57,4.57,4.57,4.57,4.57,4.57,4.5696,4.5715,4.5715,4.5731,4.5746,4.5746,4.5727,4.5742,4.5712,4.5715,4.5715,4.48,4.3926,4.3134,4.2259,4.148,4.0846,4.1712,4.2188,2.6051,2.7784,3.0076,3.3247,3.6256,3.8806,4.0283,4.0493,4.0578,4.1491,4.2354,4.3335,4.4587,4.5043,4.5314,4.5652,4.6312,4.6786,4.6786,4.6786,4.6853,4.7022,4.6887,4.6792,4.6803,4.6763,4.6653,4.646,4.6918,4.7198,4.7112,4.7553,4.7735,4.7717,4.7717,4.7409,4.6757,4.6757,4.6359,4.5562,4.5562,4.5472,4.5309,4.5653,4.6069,4.6504,4.6323,4.6613,4.7192,4.7192,4.7192,4.7156,4.6785,4.6935,4.7357,4.7247,4.6594,4.5828,4.5865,4.5369,4.4709,4.4709,4.5729,4.6857,4.6227,4.622,4.627,4.5554,4.4992,4.4624,4.4701,4.491,4.5106,4.5106,4.491,4.4795,4.5065,4.5178,4.5263,4.5263,4.54,4.5509,4.5543,4.5616,4.5668,4.57,4.57,4.57,4.57,4.57,4.57,4.57,4.57,4.5746,4.5852,4.5866,4.5887,4.5941,4.5941,4.5966,4.6007,4.591,4.5866,4.5866,4.4432,4.3594,4.3419,4.1929,4.112,4.0974,4.1855,4.2627,2.5958,2.8229,3.1048,3.5031,3.7466,3.897,3.9474,3.9597,3.9766,4.051,4.1576,4.2811,4.4299,4.4891,4.5162,4.5162,4.5788,4.6143,4.5788,4.5737,4.5872,4.6227,4.5957,4.5932,4.6419,4.6377,4.6372,4.6489,4.6954,4.7302,4.7302,4.7554,4.7717,4.7717,4.7337,4.692,4.6504,4.6124,4.5707,4.5291,4.5291,4.5291,4.5291,4.5291,4.5526,4.5924,4.5924,4.6377,4.7138,4.7138,4.7138,4.7102,4.6807,4.6761,4.6764,4.6501,4.6049,4.5582,4.5967,4.5716,4.5324,4.6085,4.7015,4.7684,4.6881,4.6761,4.6665,4.5563,4.5041,4.4843,4.5,4.5173,4.5317,4.538,4.5218,4.509,4.5341,4.5438,4.5513,4.5565,4.5651,4.5731,4.5776,4.5814,4.5835,4.5835,4.5835,4.5835,4.5835,4.5835,4.5835,4.5835,4.5835,4.5886,4.5988,4.5998,4.6017,4.6091,4.6098,4.6112,4.6147,4.6059,4.6021,4.6044,4.5189,4.4558,4.4168,4.2868,4.2036,4.1629,4.2088,4.2539,2.5915,2.8801,3.2179,3.6505,3.7902,3.8195,3.8085,3.8464,3.9056,3.9901,4.0578,4.166,4.3792,4.4181,4.4215,4.435,4.501,4.5297,4.4671,4.4587,4.4807,4.5432,4.5055,4.5162,4.6305,4.6302,4.6454,4.6999,4.745,4.7717,4.7717,4.7572,4.75,4.75,4.6721,4.6232,4.6087,4.5436,4.5019,4.4892,4.4892,4.4892,4.4892,4.4892,4.5037,4.5309,4.5454,4.5888,4.6504,4.6649,4.6762,4.6744,4.6801,4.6444,4.5937,4.614,4.5888,4.5605,4.6406,4.6426,4.6327,4.768,4.8235,4.8227,4.7437,4.7127,4.6759,4.5464,4.5029,4.4985,4.5258,4.5339,4.54,4.5513,4.5438,4.54,4.5513,4.5549,4.5601,4.5715,4.5742,4.5786,4.5887,4.5953,4.5997,4.5997,4.6017,4.6027,4.6027,4.6027,4.6036,4.6036,4.6036,4.6052,4.6099,4.6105,4.6123,4.6183,4.6186,4.6189,4.6192,4.6141,4.6143,4.6202,4.585,4.5403,4.4895,4.3728,4.2949,4.2539,4.2396,4.2382,2.6552,2.9807,3.3055,3.5339,3.6255,3.6999,3.8492,3.843,3.8447,3.98,4.0155,4.0713,4.2303,4.2591,4.2811,4.347,4.4231,4.4688,4.4587,4.4587,4.4621,4.4722,4.5012,4.5459,4.6108,4.6525,4.7017,4.7554,4.7657,4.7717,4.7717,4.7047,4.6667,4.6667,4.5888,4.5128,4.4421,4.4313,4.3896,4.3208,4.3208,4.3208,4.3208,4.3208,4.3969,4.5345,4.6051,4.6413,4.6558,4.7366,4.7697,4.7706,4.7482,4.7311,4.7217,4.7634,4.7316,4.6784,4.7601,4.7838,4.7811,4.8037,4.8777,4.9427,4.8632,4.8049,4.748,4.653,4.5856,4.5419,4.5457,4.5566,4.5651,4.5684,4.5668,4.5651,4.5684,4.5761,4.5866,4.588,4.5925,4.5964,4.5986,4.5997,4.5997,4.5997,4.6054,4.6084,4.6084,4.6137,4.6167,4.6167,4.6167,4.6152,4.6108,4.6108,4.6092,4.6114,4.6102,4.6148,4.6191,4.619,4.6182,4.6195,4.4716,4.4255,4.4898,4.2575,4.2147,4.3494,4.2734,4.2695,2.7108,2.9714,3.194,3.3647,3.4398,3.5002,3.6192,3.6891,3.7567,3.865,3.887,3.9309,4.0781,4.1728,4.2269,4.2185,4.3538,4.4282,4.342,4.3656,4.3775,4.3352,4.3715,4.4023,4.4125,4.4989,4.5584,4.5667,4.6106,4.6359,4.6359,4.6015,4.5834,4.5834,4.5037,4.4458,4.4095,4.3643,4.3244,4.2882,4.2882,4.2882,4.2882,4.2882,4.3281,4.3969,4.4331,4.4533,4.4626,4.5028,4.533,4.5535,4.5962,4.6215,4.6427,4.7159,4.7024,4.6577,4.7427,4.7488,4.7277,4.777,4.8319,4.8636,4.7796,4.7409,4.7127,4.6281,4.5836,4.5618,4.5618,4.5668,4.5731,4.5791,4.5805,4.5819,4.5867,4.5887,4.5919,4.5949,4.5975,4.6017,4.6054,4.6063,4.606,4.6105,4.6137,4.6153,4.6153,4.6171,4.6186,4.615,4.6131,4.6141,4.6152,4.6152,4.6152,4.6165,4.6163,4.6178,4.6206,4.6195,4.6201,4.6195,4.4972,4.4766,4.5625,4.3036,4.2415,4.3604,4.2213,4.1719,2.74,2.9289,3.0725,3.1967,3.252,3.2992,3.3761,3.4962,3.6197,3.7127,3.7483,3.8007,3.9292,4.0578,4.1339,4.0984,4.2489,4.3318,4.2168,4.2658,4.2966,4.2549,4.291,4.3162,4.3082,4.4066,4.4617,4.44,4.4965,4.5291,4.5291,4.511,4.5001,4.5001,4.4204,4.3788,4.3788,4.319,4.2882,4.2882,4.2882,4.2882,4.2882,4.272,4.2795,4.305,4.3213,4.3359,4.3579,4.3816,4.4083,4.4485,4.5512,4.5915,4.6074,4.708,4.7061,4.663,4.7295,4.7228,4.7004,4.7654,4.795,4.7895,4.7011,4.6831,4.6725,4.5931,4.5731,4.5746,4.5746,4.5757,4.58,4.5899,4.5949,4.5964,4.6008,4.5997,4.5975,4.6046,4.6054,4.608,4.6118,4.6125,4.6142,4.6199,4.6189,4.6195,4.6198,4.6204,4.6207,4.6132,4.6132,4.6152,4.6195,4.6192,4.6202,4.6206,4.6201,4.6195,4.6201,4.5956,4.5818,4.5818,4.4713,4.4694,4.5799,4.3386,4.2641,4.3467,4.1684,4.0936,2.7271,2.8748,3.0294,3.056,3.0891,3.1358,3.2222,3.3017,3.3981,3.5436,3.6332,3.7077,3.7872,3.865,3.9394,4.007,4.0849,4.1356,4.1271,4.188,4.2532,4.2927,4.3436,4.3937,4.4333,4.4934,4.5233,4.5236,4.5273,4.5291,4.5291,4.4584,4.415,4.415,4.3371,4.2955,4.2955,4.29,4.2882,4.2882,4.2882,4.2882,4.2864,4.225,4.2484,4.3493,4.3999,4.4437,4.4878,4.5703,4.6234,4.6656,4.79,4.7931,4.7359,4.8562,4.8445,4.772,4.7758,4.7848,4.7914,4.7952,4.8086,4.8039,4.7149,4.6899,4.6725,4.5931,4.5791,4.5893,4.5893,4.5937,4.5986,4.5997,4.6046,4.6091,4.6091,4.6091,4.6112,4.6186,4.6195,4.6199,4.6199,4.6179,4.6199,4.6202,4.6205,4.6191,4.619,4.6254,4.6269,4.6197,4.6197,4.6192,4.6195,4.6189,4.6209,4.6203,4.619,4.6209,4.6203,4.5285,4.4773,4.4773,4.2978,4.2959,4.4773,4.2838,4.2383,4.3169,4.1492,4.1048,2.6885,2.8042,2.9241,3.0044,3.026,3.0533,3.141,3.2154,3.2831,3.3355,3.4083,3.4844,3.5571,3.7516,3.892,3.8734,3.9698,4.0155,3.9225,3.9715,4.0169,4.0139,4.0976,4.1568,4.1474,4.2868,4.3552,4.3045,4.3462,4.3751,4.3751,4.348,4.3317,4.3317,4.3045,4.2882,4.2882,4.2882,4.2882,4.2882,4.2375,4.2268,4.2479,4.1727,4.1751,4.2344,4.2539,4.3027,4.3711,4.4009,4.4055,4.4039,4.5022,4.5661,4.6062,4.6498,4.6787,4.6806,4.582,4.5899,4.6243,4.5199,4.57,4.6462,4.5032,4.544,4.6201,4.5356,4.5596,4.5962,4.539,4.5287,4.5286,4.5286,4.5733,4.6152,4.6158,4.6163,4.6167,4.6199,4.617,4.6158,4.619,4.6191,4.6191,4.6202,4.6192,4.6202,4.6199,4.6225,4.6231,4.6195,4.6195,4.6209,4.6209,4.6209,4.6209,4.6209,4.6111,4.5832,4.5257,4.4819,4.4323,4.3742,4.298,4.298,4.3722,4.1976,4.1564,4.2331,4.1089,4.0639,2.6657,2.7805,2.8865,2.9501,2.9774,2.9916,3.0302,3.0965,3.1489,3.1546,3.2341,3.3169,3.366,3.5588,3.7127,3.7144,3.7956,3.8328,3.7635,3.8286,3.8824,3.8728,3.9841,4.0565,4.0462,4.1935,4.2683,4.214,4.2357,4.2611,4.2882,4.2629,4.2502,4.2502,4.2502,4.2375,4.2103,4.2085,4.2159,4.2286,4.1758,4.1674,4.2044,4.1262,4.1239,4.1841,4.1612,4.2164,4.3186,4.2904,4.2818,4.2984,4.3517,4.4219,4.4939,4.4939,4.5303,4.5611,4.4283,4.4237,4.4575,4.3516,4.4041,4.4877,4.3732,4.4245,4.5136,4.4551,4.4851,4.5262,4.4969,4.5125,4.5343,4.5336,4.5553,4.5855,4.6166,4.6211,4.6204,4.621,4.6152,4.6152,4.6182,4.6195,4.6202,4.6192,4.6206,4.6206,4.6201,4.6201,4.6195,4.6196,4.6196,4.619,4.6196,4.6154,4.6138,4.6138,4.5988,4.5514,4.4661,4.4227,4.3583,4.2714,4.2277,4.2074,4.2148,4.1339,4.1069,4.1316,4.0622,4.0251,0.0,0.0,0.0,2.89,2.9273,2.9515,2.8992,2.9383,2.9926,3.0053,3.1207,3.2246,3.2239,3.2831,3.3795,3.5318,3.5571,3.5859,3.6683,3.7746,3.8607,3.9087,4.021,4.1124,4.1614,4.2357,4.2828,4.2828,4.2103,4.2013,4.2774,4.2103,4.1687,4.1687,4.1687,4.1307,4.051,4.051,4.0684,4.108,4.108,4.1243,4.1521,4.0809,4.1067,4.2073,4.1366,4.1999,4.3436,4.264,4.2965,4.3978,4.394,4.402,4.4152,4.4113,4.4201,4.4222,4.3351,4.3153,4.3286,4.3259,4.3355,4.3481,4.3448,4.3509,4.3603,4.3564,4.3583,4.3798,4.4602,4.5441,4.6097,4.6093,4.5468,4.5112,4.6019,4.6175,4.6163,4.6201,4.6206,4.6206,4.6206,4.6206,4.6206,4.6206,4.6206,4.6201,4.6183,4.6183,4.6177,4.6157,4.6157,4.6157,4.6157,4.6036,4.5977,4.5997,4.5783,4.5297,4.4485,4.3489,4.253,4.1671,4.0691,4.0157,4.0096,4.0938,4.0959,4.0176,4.0117,3.9911,2.6035,0.0,0.0,0.0,0.0,0.0,3.034,2.9867,2.9394,2.9989,2.9989,3.0226,3.1292,3.1241,3.1681,3.3694,3.4455,3.5196,3.6294,3.6715,3.7182,3.7884,3.8768,3.9512,3.9986,4.0817,4.1306,4.1306,4.1106,4.1105,4.1359,4.1159,4.105,4.0979,4.0996,4.0941,4.0652,4.0888,4.0754,4.0228,4.0481,4.0393,4.0071,3.9976,3.986,3.9768,4.0289,4.0767,4.1282,4.2254,4.2848,4.308,4.2545,4.2696,4.3113,4.2002,4.2395,4.3273,4.1911,4.2254,4.3117,4.2004,4.2478,4.328,4.2056,4.26,4.3473,4.2908,4.3183,4.3589,4.3196,4.3273,4.3447,4.345,4.3759,4.4055,4.4175,4.4681,4.5326,4.6064,4.6201,4.6189,4.6189,4.6203,4.619,4.619,4.6127,4.6065,4.6056,4.6056,4.5822,4.5191,4.5113,4.5113,4.5113,4.499,4.517,4.5751,4.509,4.4286,4.3384,4.2371,4.1418,4.0559,4.007,3.9826,3.9826,4.0245,4.0245,3.9829,3.9519,3.9301,2.5379,2.6503,2.7464,2.9002,0.0,0.0,2.9736,2.9347,2.8907,2.8721,2.8586,2.8755,2.9617,2.9702,3.0159,3.1765,3.2479,3.343,3.5122,3.5457,3.5836,3.6506,3.7434,3.8239,3.8912,3.9724,4.0359,4.0721,4.0448,4.0102,3.979,4.0427,4.0448,3.9774,3.982,3.9754,3.9392,3.9361,3.9119,3.8738,3.8925,3.8906,3.8704,3.8791,3.8649,3.8366,3.8956,3.9221,3.9317,4.0728,4.1703,4.2259,4.1485,4.1508,4.1928,4.1015,4.1551,4.2537,4.128,4.1731,4.2656,4.1415,4.1691,4.2311,4.1336,4.1757,4.2457,4.1988,4.2485,4.3033,4.2522,4.2674,4.2934,4.2863,4.2968,4.3116,4.3287,4.3712,4.4364,4.5297,4.5764,4.5988,4.5988,4.5998,4.5988,4.5988,4.5917,4.5871,4.5871,4.558,4.5173,4.4669,4.4281,4.4222,4.4591,4.4485,4.4596,4.5044,4.4474,4.3579,4.2335,4.1585,4.077,3.9908,3.9604,3.9421,3.9414,3.9585,3.9585,3.9396,3.9036,3.9053,2.4762,2.5849,2.6657,2.7862,2.909,0.0,2.8486,2.8569,2.8586,2.7435,2.752,2.7875,2.8044,2.8537,2.9197,3.0112,3.0358,3.1229,3.3632,3.4309,3.4747,3.5305,3.6269,3.7221,3.8059,3.8736,3.9431,4.0224,3.9604,3.8893,3.8182,3.9446,3.9556,3.8245,3.8291,3.8074,3.7525,3.6991,3.6812,3.6961,3.7081,3.7251,3.7452,3.7566,3.7603,3.7542,3.7655,3.7653,3.7651,3.8665,4.0041,4.1481,4.0745,4.0631,4.0916,4.0851,4.1343,4.1956,4.1178,4.147,4.2039,4.1265,4.1049,4.1094,4.1094,4.1107,4.1108,4.1085,4.1644,4.2236,4.2212,4.2788,4.335,4.3222,4.2596,4.2189,4.278,4.3047,4.3374,4.4037,4.4993,4.5703,4.5703,4.5703,4.5703,4.5703,4.5689,4.5636,4.5559,4.4916,4.4413,4.4186,4.3485,4.3388,4.4244,4.4113,4.4034,4.4171,4.3787,4.2897,4.1409,4.0919,4.0339,3.9551,3.9197,3.9045,3.9044,3.912,3.9166,3.9082,3.8817,3.9122,2.4855,2.5596,2.6678,2.8073,2.8593,0.0,3.0326,2.983,2.9285,3.0163,2.9064,2.8302,2.9508,2.8934,2.8918,3.0912,3.047,3.0733,3.3246,3.3934,3.459,3.5679,3.6023,3.6261,3.6455,3.6644,3.6821,3.6924,3.6778,3.6693,3.663,3.6821,3.696,3.7025,3.6869,3.6777,3.6872,3.6913,3.6621,3.6085,3.7046,3.7147,3.6501,3.7317,3.7296,3.6614,3.7371,3.736,3.688,3.7778,3.9138,4.0652,4.0693,4.1151,4.1691,4.1091,4.1021,4.1208,4.1052,4.1095,4.1238,4.1125,4.1093,4.1093,4.1103,4.1094,4.1081,4.0972,4.1052,4.1162,4.1053,4.1149,4.1274,4.1249,4.1122,4.0996,4.1017,4.2075,4.2854,4.2198,4.4033,4.5703,4.5703,4.5703,4.5703,4.5703,4.5619,4.531,4.4655,4.4443,4.3772,4.2316,4.2063,4.2297,4.3073,4.2412,4.2543,4.3857,4.2405,4.1316,4.0925,3.9958,3.9346,3.9136,3.8847,3.8896,3.9319,3.9538,3.9645,3.9645,3.9367,3.9638,2.4345,2.5,2.5952,2.7143,2.7962,0.0,0.0,2.8955,2.8766,2.8909,2.8167,2.7726,2.8405,2.8305,2.8357,2.9161,2.9329,2.9808,3.1114,3.1898,3.2823,3.4076,3.3832,3.3933,3.4822,3.4511,3.4593,3.5462,3.597,3.6121,3.5799,3.6104,3.6241,3.6198,3.6068,3.6118,3.6385,3.575,3.5416,3.5453,3.5609,3.5455,3.5039,3.5999,3.599,3.5245,3.6213,3.6383,3.6111,3.7032,3.7906,3.8697,3.9282,3.9796,4.016,3.9796,4.022,4.0935,4.0496,4.0945,4.1636,4.123,4.0819,4.0539,4.0977,4.1055,4.0983,4.0922,4.0843,4.0772,4.0726,4.0711,4.0674,4.0615,4.0588,4.0564,4.043,4.1374,4.222,4.2164,4.329,4.4256,4.4256,4.4586,4.472,4.4314,4.4208,4.4001,4.356,4.312,4.2508,4.159,4.1017,4.0995,4.1791,4.131,4.1297,4.2084,4.1205,4.0446,3.9919,3.9231,3.877,3.8597,3.888,3.8985,3.8886,3.9464,3.9875,4.0068,3.9301,3.955,2.3912,2.4326,2.5057,2.6109,2.7243,2.7915,0.0,0.0,0.0,2.7335,2.7182,2.723,2.7317,2.7657,2.7809,2.7427,2.8159,2.8818,2.8912,2.9687,3.0739,3.2082,3.1652,3.1788,3.3201,3.281,3.3012,3.432,3.5301,3.5506,3.4809,3.5286,3.5423,3.5117,3.5027,3.5133,3.542,3.4166,3.3878,3.4562,3.3876,3.3587,3.3604,3.44,3.4434,3.3922,3.4687,3.5025,3.5106,3.5861,3.6182,3.6338,3.7704,3.8307,3.8399,3.839,3.9298,4.0413,3.9715,4.0425,4.1542,4.0858,4.0148,3.9722,4.0574,4.0749,4.0648,4.0599,4.0489,4.0365,4.0166,4.0121,4.0144,4.0185,4.021,4.0236,4.029,4.0922,4.1667,4.2201,4.2525,4.2752,4.2984,4.3423,4.3498,4.2791,4.2675,4.2576,4.23,4.1651,4.1155,4.0978,4.0136,3.99,4.071,4.0431,4.0253,4.0374,4.0188,3.9714,3.8961,3.864,3.8423,3.8236,3.8723,3.8904,3.8687,3.9102,3.9583,4.005,3.8907,3.9045,2.416,2.3974,2.4417,2.6017,2.641,2.677,2.7971,0.0,2.8339,2.8728,0.0,2.8152,2.873,0.0,0.0,2.8226,2.815,2.8078,2.8281,2.8717,2.9598,3.1162,3.1356,3.1476,3.1641,3.233,3.2606,3.2262,3.2966,3.3123,3.2516,3.2406,3.2512,3.2933,3.2656,3.2656,3.2985,3.2707,3.2615,3.271,3.274,3.2781,3.2837,3.3001,3.3096,3.3126,3.3253,3.333,3.3384,3.349,3.3595,3.4023,3.715,3.8402,3.8399,3.839,3.8566,3.8765,3.8668,3.8807,3.9027,3.8927,3.8829,3.8879,3.9638,3.9818,3.9704,3.9518,3.9438,3.9182,3.8268,3.8029,3.824,3.899,3.9181,3.9373,4.0138,4.0922,4.1304,4.0635,4.1461,4.2614,4.3689,4.3288,4.2728,4.2341,4.2267,4.1901,4.0877,4.0664,4.0282,3.9455,3.9234,3.9488,4.0309,3.964,3.95,4.0244,3.9372,3.8768,3.8646,3.8267,3.8168,3.8374,3.7785,3.8205,3.9756,3.851,3.8314,3.8978,3.815,3.8213,2.4287,2.4803,2.5442,2.5205,2.6492,2.7704,2.7172,2.704,2.7201,2.7759,0.0,0.0,0.0,0.0,0.0,0.0,2.707,2.7228,2.6956,2.72,2.8195,3.0301,3.0259,3.0102,3.0179,3.1058,3.1523,3.1233,3.2023,3.2463,3.2298,3.2184,3.2297,3.2648,3.2425,3.2408,3.2664,3.2053,3.2036,3.2561,3.2195,3.202,3.2075,3.2709,3.275,3.2396,3.2948,3.3179,3.3214,3.3214,3.325,3.3437,3.4873,3.5749,3.6203,3.6207,3.6852,3.7752,3.7791,3.8151,3.8492,3.7921,3.8064,3.8438,3.8201,3.8384,3.8651,3.8569,3.843,3.823,3.7823,3.7693,3.7922,3.8782,3.8974,3.9185,4.0063,4.0482,4.0729,4.0861,4.0827,4.1052,4.2041,4.1775,4.1216,4.0566,4.0459,4.027,3.9757,3.9674,3.9517,3.91,3.8896,3.8947,3.9287,3.883,3.87,3.9048,3.8565,3.815,3.7859,3.8079,3.8099,3.7947,3.8485,3.8955,3.9397,3.8809,3.8247,3.7818,3.7432,3.7573,2.4908,2.5517,2.6082,2.4866,2.6104,2.7356,2.6125,2.5697,2.5737,2.6302,2.579,0.0,0.0,0.0,2.6138,2.5024,0.0,2.63,2.5488,2.5778,2.683,2.8897,2.8758,2.8632,2.9021,2.9964,3.0434,3.0226,3.1316,3.1935,3.1813,3.1794,3.186,3.2004,3.186,3.186,3.2004,3.1359,3.1374,3.2044,3.152,3.1295,3.1338,3.2067,3.2115,3.1618,3.2287,3.2594,3.2594,3.2594,3.2589,3.259,3.2594,3.3137,3.3942,3.4183,3.5075,3.6191,3.6491,3.7139,3.771,3.6991,3.7151,3.7537,3.7055,3.7259,3.7654,3.7613,3.7498,3.7311,3.7082,3.7024,3.7236,3.8076,3.8422,3.8785,3.9624,3.9965,4.0267,4.0813,4.0155,3.9701,4.0183,4.0173,3.9861,3.9165,3.9063,3.9008,3.8868,3.8839,3.8839,3.8789,3.8615,3.8478,3.8478,3.8322,3.814,3.7967,3.7827,3.7578,3.7099,3.7721,3.7947,3.7672,3.8732,3.9247,3.9076,3.8721,3.8069,3.7085,3.6807,3.6747,2.633,2.564,2.5614,2.5482,2.4866,2.4416,2.5077,2.4587,2.4164,2.4832,2.3818,2.2993,2.3659,2.3898,2.3831,2.3263,2.4607,0.0,0.0,2.462,2.5612,2.6599,2.6875,2.7345,2.833,2.9284,2.9607,2.8998,3.049,3.1081,3.0305,3.028,3.028,3.028,3.028,3.028,3.028,3.0312,3.0362,3.0381,3.0417,3.0501,3.0634,3.0673,3.0696,3.0749,3.0768,3.0768,3.0768,3.0768,3.0788,3.0779,3.0779,3.136,3.2285,3.3125,3.3476,3.3633,3.448,3.5264,3.5872,3.5846,3.5764,3.5824,3.6509,3.6723,3.6733,3.6658,3.658,3.6356,3.5496,3.5272,3.5486,3.6287,3.709,3.7852,3.8671,3.9508,4.0015,3.9727,3.9364,3.9036,3.8725,3.8952,3.9054,3.8759,3.8658,3.8523,3.8274,3.8241,3.8241,3.8225,3.8225,3.8225,3.8225,3.8207,3.7967,3.7379,3.7248,3.702,3.6551,3.7193,3.7654,3.7878,3.7868,3.8337,3.9292,3.7882,3.7135,3.7085,3.634,3.5579,2.8502,2.8386,2.7957,2.6218,2.6312,2.6606,2.564,2.4752,2.4523,2.5778,2.4373,2.3032,2.325,2.3455,2.3364,2.2731,2.3231,2.3605,0.0,2.3162,2.3449,2.4264,2.5514,2.6449,2.6827,2.8286,2.9112,2.893,2.9961,3.0505,3.0273,3.0273,3.0292,3.0333,3.0333,3.0602,3.1179,3.0637,3.0648,3.1207,3.0752,3.0558,3.0604,3.0645,3.0676,3.069,3.069,3.0698,3.0695,3.0695,3.0726,3.0768,3.0767,3.0953,3.1348,3.2226,3.2909,3.3525,3.439,3.4807,3.5035,3.5554,3.5611,3.5507,3.571,3.5752,3.5707,3.5682,3.5651,3.556,3.5274,3.5164,3.5339,3.6138,3.6539,3.711,3.8498,3.899,3.9288,3.9709,3.9371,3.9008,3.8886,3.867,3.846,3.8401,3.8354,3.8289,3.8225,3.8192,3.8192,3.8192,3.8192,3.8174,3.8088,3.7756,3.7303,3.6773,3.6729,3.6446,3.5985,3.7103,3.7597,3.7352,3.8321,3.8968,3.9272,3.8775,3.7994,3.6933,3.6702,3.591,2.994,2.9875,2.9315,2.7024,2.6986,2.7179,2.5956,2.4825,2.4544,2.6401,2.4194,2.2388,2.3861,2.3017,2.2202,2.2431,2.2341,2.2226,0.0,2.1655,2.1466,2.1975,2.3639,2.513,2.6062,2.6759,2.7663,2.8881,2.9232,2.9665,3.0294,3.0333,3.0502,3.0846,3.0557,3.0827,3.1695,3.0878,3.0752,3.1293,3.087,3.0678,3.0678,3.0728,3.0745,3.0745,3.0745,3.074,3.0747,3.0747,3.0752,3.0793,3.08,3.08,3.0875,3.1423,3.2174,3.2982,3.3483,3.3991,3.4426,3.4642,3.4993,3.5278,3.4944,3.4805,3.4904,3.5479,3.5198,3.48,3.5088,3.511,3.5132,3.536,3.5856,3.6558,3.764,3.8322,3.8809,3.9146,3.9088,3.8924,3.8789,3.8382,3.8124,3.8192,3.8192,3.8174,3.814,3.814,3.8054,3.7845,3.7845,3.7756,3.7487,3.7135,3.6729,3.6264,3.6172,3.601,3.5807,3.6942,3.7552,3.75,3.8659,3.9272,3.9272,3.897,3.8173,3.6882,3.6516,3.571]},{"header":{"parameterUnit":"m.s-1","parameterCategory":1,"la1":30.6,"la2":29.2853,"lo1":-89.7004,"lo2":-87.6739,"dy":0.0162,"dx":0.0183,"nx":112,"ny":82,"refTime":"2023-09-07T18:00:00:Z","depth":0,"parameterNumber":3,"parameterNumberName":"V-component_of_WINDS"},"data":[0.0,0.0,0.0,0.0,0.0,0.0,0.0,0.0,0.0,0.0,0.0,0.0,0.0,0.0,0.0,0.0,0.0,0.0,0.0,0.0,0.0,0.0,0.0,0.0,0.0,0.0,0.0,0.0,0.0,0.0,0.0,0.0,0.0,0.0,0.0,0.0,0.0,0.0,0.0,0.0,0.0,0.0,0.0,0.0,0.0,0.0,0.0,0.0,0.0,0.0,0.0,0.0,0.0,0.0,0.0,0.0,0.0,0.0,0.0,0.0,0.0,0.0,0.0,0.0,0.0,0.0,0.0,0.0,0.0,0.0,0.0,0.0,0.0,0.0,0.0,0.0,0.0,0.0,0.0,0.0,0.0,0.0,0.0,0.0,0.0,0.0,0.0,0.0,0.0,0.0,0.5763,0.611,0.6864,0.7227,0.6953,0.6973,0.6993,0.6923,0.0,0.0,0.0,0.0,0.0,0.0,0.0,0.0,0.0,0.0,0.0,0.0,0.0,0.0,0.0,0.0,0.0,0.0,0.0,0.0,0.0,0.0,0.0,0.0,0.0,0.0,0.0,0.0,0.0,0.0,0.0,0.0,0.0,0.0,0.0,0.0,0.0,0.0,0.0,0.0,0.0,0.0,0.0,0.0,0.0,0.0,0.0,0.0,0.0,0.0,0.0,0.0,0.0,0.0,0.0,0.0,0.0,0.0,0.0,0.0,0.0,0.0,0.0,0.0,0.0,0.0,0.0,0.0,0.0,0.0,0.0,0.0,0.0,0.0,0.0,0.0,0.0,0.0,0.0,0.0,0.0,0.0,0.0,0.0,0.0,0.0,0.0,0.0,0.0,0.0,0.0,0.0,0.0,0.0,0.0,0.0,0.0,0.0,0.0,0.0,0.0,0.0,0.0,0.0,0.5989,0.6558,0.6932,0.7109,0.6943,0.66,0.6557,0.6892,0.0,0.0,0.0,0.0,0.0,0.0,0.0,0.0,0.0,0.0,0.0,0.0,0.0,0.0,0.0,0.0,0.0,0.0,0.0,0.0,0.0,0.0,0.0,0.0,0.0,0.0,0.0,0.0,0.0,0.0,0.0,0.0,0.0,0.0,0.0,0.0,0.0,0.0,0.0,0.0,0.0,0.0,0.0,0.0,0.0,0.0,0.0,0.0,0.0,0.0,0.0,0.0,0.0,0.0,0.0,0.0,0.0,0.0,0.0,0.0,0.0,0.0,0.0,0.0,0.0,0.0,0.0,0.0,0.0,0.0,0.0,0.0,0.0,0.0,0.0,0.0,0.0,0.0,0.0,0.0,0.0,0.0,0.0,0.0,0.0,0.0,0.0,0.0,0.0,0.0,0.0,0.0,0.0,0.0,0.0,0.0,0.0,0.0,0.0,0.0,0.0,0.0,0.0,0.5823,0.6198,0.663,0.7037,0.7173,0.6949,0.6987,0.7076,0.722,0.7295,0.0,0.0,0.0,0.0,0.0,0.0,0.0,0.0,0.0,0.0,0.0,0.0,0.0,0.0,0.0,0.0,0.0,0.0,0.0,0.0,0.0,0.0,0.0,0.0,0.0,0.0,0.0,0.0,0.0,0.0,0.0,0.0,0.0,0.0,0.0,0.0,0.0,0.0,0.0,0.0,0.0,0.0,0.0,0.0,0.0,0.0,0.0,0.0,0.0,0.0,0.0,0.0,0.0,0.0,0.0,0.0,0.0,0.0,0.0,0.0,0.0,0.0,0.0,0.0,0.0,0.0,0.0,0.0,0.0,0.0,0.0,0.0,0.0,0.0,0.0,0.0,0.0,0.0,0.0,0.0,0.0,0.0,0.0,0.0,0.0,0.0,0.0,0.0,0.0,0.0,0.0,0.0,0.0,0.0,0.0,0.0,0.0,0.0,0.0,0.0,0.0,0.0,0.6184,0.636,0.6654,0.7041,0.7146,0.6848,0.7211,0.7545,0.7548,0.7619,0.0,0.0,0.0,0.0,0.0,0.0,0.0,0.0,0.0,0.0,0.0,0.0,0.0,0.0,0.0,0.0,0.0,0.0,0.0,0.0,0.0,0.0,0.0,0.0,0.0,0.0,0.0,0.0,0.0,0.0,0.0,0.0,0.0,0.0,0.0,0.0,0.0,0.0,0.0,0.0,0.0,0.0,0.0,0.0,0.0,0.0,0.0,0.0,0.0,0.0,0.0,0.0,0.0,0.0,0.0,0.0,0.0,0.0,0.0,0.0,0.0,0.0,0.0,0.0,0.0,0.0,0.0,0.0,0.0,0.0,0.0,0.0,0.0,0.0,0.0,0.0,0.0,0.0,0.0,0.0,0.0,0.0,0.0,0.0,0.0,0.0,0.0,0.0,0.0,0.0,0.0,0.0,0.0,0.0,0.0,0.0,0.0,0.0,0.0,0.0,0.0,0.0,0.6094,0.6203,0.6654,0.6858,0.6837,0.6529,0.6777,0.7171,0.7737,0.7497,0.0,0.0,0.0,0.0,0.0,0.0,0.0,0.0,0.0,0.0,0.0,0.0,0.0,0.0,0.0,0.0,0.0,0.0,0.0,0.0,0.0,0.0,0.0,0.0,0.0,0.0,0.0,0.0,0.0,0.0,0.0,0.0,0.0,0.0,0.0,0.0,0.0,0.0,0.0,0.0,0.0,0.0,0.0,0.0,0.0,0.0,0.0,0.0,0.0,0.0,0.0,0.0,0.0,0.0,0.0,0.0,0.0,0.0,0.0,0.0,0.0,0.0,0.0,0.0,0.0,0.0,0.0,0.0,0.0,0.0,0.0,0.0,0.0,0.0,0.0,0.0,0.0,0.0,0.0,0.0,0.0,0.0,0.0,0.0,0.0,0.0,0.0,0.0,0.0,0.0,0.0,0.0,0.0,0.0,0.0,0.0,0.0,0.0,0.0,0.0,0.0,0.0,0.6101,0.6203,0.6654,0.6753,0.6864,0.7205,0.7309,0.7766,0.8726,0.0,0.0,0.0,0.0,0.0,0.0,0.0,0.0,0.0,0.0,0.0,0.0,0.0,0.0,0.0,0.0,0.0,0.0,0.0,0.0,0.0,0.0,0.0,0.0,0.0,0.0,0.0,0.0,0.0,0.0,0.0,0.0,0.0,0.0,0.0,0.0,0.0,0.0,0.0,0.0,0.0,0.0,0.0,0.0,0.0,0.0,0.0,0.0,0.0,0.0,0.0,0.0,0.0,0.0,0.0,0.0,0.0,0.0,0.0,0.0,0.0,0.0,0.0,0.0,0.0,0.0,0.0,0.0,0.0,0.0,0.0,0.0,0.0,0.0,0.0,0.0,0.0,0.0,0.0,0.0,0.0,0.0,0.0,0.0,0.0,0.0,0.0,0.0,0.0,0.0,0.0,0.0,0.0,0.0,0.0,0.0,0.0,0.0,0.0,0.0,0.0,0.0,0.6314,0.6088,0.6149,0.6647,0.6617,0.6816,0.7426,0.7513,0.8043,0.9278,0.0,0.0,0.0,0.0,0.0,0.0,0.0,0.0,0.0,0.0,0.0,0.0,0.0,0.0,0.0,0.0,0.0,0.0,0.0,0.0,0.0,0.0,0.0,0.0,0.0,0.0,0.0,0.0,0.0,0.0,0.0,0.0,0.0,0.0,0.0,0.0,0.0,0.0,0.0,0.0,0.0,0.0,0.0,0.0,0.0,0.0,0.0,0.0,0.0,0.0,0.0,0.0,0.0,0.0,0.0,0.0,0.0,0.0,0.0,0.0,0.0,0.0,0.0,0.0,0.0,0.0,0.0,0.0,0.0,0.0,0.0,0.0,0.0,0.0,0.0,0.0,0.0,0.0,0.0,0.0,0.0,0.0,0.0,0.0,0.0,0.0,0.0,0.0,0.0,0.0,0.0,0.0,0.0,0.0,0.0,0.0,0.0,0.0,0.0,0.0,0.0,0.0,0.6474,0.606,0.6034,0.6634,0.6434,0.6496,0.7064,0.7125,0.7734,0.0,0.0,0.0,0.0,0.0,0.0,0.0,0.0,0.0,0.0,0.0,0.0,0.0,0.0,0.0,0.0,0.0,0.0,0.0,0.0,0.0,0.0,0.0,0.0,0.0,0.0,0.0,0.0,0.0,0.0,0.0,0.0,0.0,0.0,0.0,0.0,0.0,0.0,0.0,0.0,0.0,0.0,0.0,0.0,0.0,0.0,0.0,0.0,0.0,0.0,0.0,0.0,0.0,0.0,0.0,0.0,0.0,0.0,0.0,0.0,0.0,0.0,0.0,0.0,0.0,0.0,0.0,0.0,0.0,0.0,0.0,0.0,0.0,0.0,0.0,0.0,0.0,0.0,0.0,0.0,0.0,0.0,0.0,0.0,0.0,0.0,0.0,0.0,0.0,0.0,0.0,0.0,0.0,0.0,0.0,0.0,0.0,0.0,0.0,0.0,0.0,0.0,0.0,0.6452,0.6145,0.5989,0.6485,0.6274,0.6552,0.7605,0.7256,0.7766,0.9627,0.0,0.0,0.0,0.0,0.0,0.0,0.0,0.0,0.0,0.0,0.0,0.0,0.0,0.0,0.0,0.0,0.0,0.0,0.0,0.0,0.0,0.0,0.0,0.0,0.0,0.0,0.0,0.0,0.0,0.0,0.0,0.0,0.0,0.0,0.0,0.0,0.0,0.0,0.0,0.0,0.0,0.0,0.0,0.0,0.0,0.0,0.0,0.0,0.0,0.0,0.0,0.0,0.0,0.0,0.0,0.0,0.0,0.0,0.0,0.0,0.0,0.0,0.0,0.0,0.0,0.0,0.0,0.0,0.0,0.0,0.0,0.0,0.0,0.0,0.0,0.0,0.0,0.0,0.0,0.0,0.0,0.0,0.0,0.0,0.0,0.0,0.0,0.0,0.0,0.0,0.0,0.0,0.0,0.0,0.0,0.0,0.0,0.0,0.0,0.0,0.0,0.0,0.6599,0.6186,0.6096,0.6731,0.6568,0.6785,0.7986,0.7521,0.787,0.9519,0.0,0.0,0.0,0.0,0.0,0.0,0.0,0.0,0.0,0.0,0.0,0.0,0.0,0.0,0.0,0.0,0.0,0.0,0.0,0.0,0.0,0.0,0.0,0.0,0.0,0.0,0.0,0.0,0.0,0.0,0.0,0.0,0.0,0.0,0.0,0.0,0.0,0.0,0.0,0.0,0.0,0.0,0.0,0.0,0.0,0.0,0.0,0.0,0.0,0.0,0.0,0.0,0.0,0.0,0.0,0.0,0.0,0.0,0.0,0.0,0.0,0.0,0.0,0.0,0.0,0.0,0.0,0.0,0.0,0.0,0.0,0.0,0.0,0.0,0.0,0.0,0.0,0.0,0.0,0.0,0.0,0.0,0.0,0.0,0.0,0.0,0.0,0.0,0.0,0.0,0.0,0.0,0.0,0.0,0.0,0.0,0.0,0.0,0.0,0.0,0.0,0.0,0.6753,0.6255,0.62,0.7183,0.7074,0.729,0.8213,0.7963,0.8114,0.8974,0.0,0.0,0.0,0.0,0.0,0.0,0.0,0.0,0.0,0.0,0.0,0.0,0.0,0.0,0.0,0.0,0.0,0.0,0.0,0.0,0.0,0.0,0.0,0.0,0.0,0.0,0.0,0.0,0.0,0.0,0.0,0.0,0.0,0.0,0.0,0.0,0.0,0.0,0.0,0.0,0.0,0.0,0.0,0.0,0.0,0.0,0.0,0.0,0.0,0.0,0.0,0.0,0.0,0.0,0.0,0.0,0.0,0.0,0.0,0.0,0.6029,0.5698,0.0,0.0,0.0,0.0,0.0,0.0,0.0,0.0,0.0,0.0,0.0,0.0,0.0,0.0,0.0,0.0,0.0,0.0,0.0,0.0,0.0,0.0,0.0,0.0,0.0,0.0,0.0,0.0,0.0,0.0,0.0,0.0,0.0,0.0,0.0,0.0,0.0,0.0,0.0,0.0,0.7041,0.6328,0.6158,0.7013,0.7001,0.729,0.8213,0.8106,0.8287,0.8986,0.877,0.0,0.0,0.0,0.0,0.0,0.0,0.0,0.0,0.0,0.0,0.0,0.0,0.0,0.0,0.0,0.0,0.0,0.0,0.0,0.0,0.0,0.0,0.0,0.0,0.0,0.0,0.0,0.0,0.0,0.0,0.0,0.0,0.0,0.0,0.0,0.0,0.0,0.0,0.0,0.0,0.0,0.0,0.0,0.0,0.0,0.0,0.0,0.0,0.0,0.0,0.0,0.0,0.0,0.0,0.0,0.0,0.0,0.0,0.0,0.7183,0.6424,0.0,0.0,0.0,0.0,0.0,0.0,0.0,0.0,0.0,0.0,0.0,0.0,0.0,0.0,0.0,0.0,0.0,0.0,0.0,0.0,0.0,0.0,0.0,0.0,0.0,0.0,0.0,0.0,0.0,0.0,0.0,0.0,0.0,0.0,0.0,0.0,0.0,0.0,0.0,0.0,0.7319,0.6449,0.6288,0.7478,0.7479,0.7725,0.8631,0.8646,0.8601,0.8634,0.8645,0.0,0.0,0.0,0.0,0.0,0.0,0.0,0.0,0.0,0.0,0.0,0.0,0.0,0.0,0.0,0.0,0.0,0.0,0.0,0.0,0.0,0.0,0.0,0.0,0.0,0.0,0.0,0.0,0.0,0.0,0.0,0.0,0.0,0.0,0.0,0.0,0.0,0.0,0.0,0.0,0.0,0.0,0.0,0.0,0.0,0.0,0.0,0.0,0.0,0.0,0.0,0.0,0.0,0.9748,1.0432,1.1317,1.16,1.1597,1.1182,0.9109,0.8,0.7578,0.7568,0.0,0.0,0.0,0.0,0.0,0.0,0.0,0.0,0.0,0.0,0.0,0.0,0.0,0.0,0.0,0.0,0.0,0.0,0.0,0.0,0.0,0.0,0.5967,0.5881,0.6064,0.6148,0.5709,0.0,0.0,0.0,0.0,0.0,0.0,0.0,0.0,0.0,0.0,0.0,0.7497,0.6678,0.663,0.7956,0.8131,0.8401,0.9074,0.9174,0.8914,0.8393,0.8569,0.8477,0.0,0.0,0.0,0.0,0.0,0.0,0.0,0.0,0.0,0.0,0.0,0.0,0.0,0.0,0.0,0.0,0.0,0.0,0.0,0.0,0.0,0.0,0.0,0.0,0.0,0.0,0.0,0.0,0.0,0.0,0.0,0.0,0.6624,0.6595,0.0,0.0,0.0,0.0,0.0,0.0,0.0,0.0,0.0,0.0,0.0,0.0,0.0,1.0047,1.0527,1.0696,1.0812,1.0977,1.1694,1.2107,1.2406,1.2634,1.2912,1.3188,1.24,0.0,1.034,0.9604,0.0,0.0,0.0,0.0,0.0,0.0,0.0,0.0,0.0,0.0,0.0,0.0,0.0,0.0,0.0,0.0,0.0,0.0,0.0,0.0,0.0,0.0,0.5222,0.5269,0.5992,0.6633,0.6506,0.6249,0.6041,0.6041,0.6103,0.642,0.0,0.0,0.0,0.0,0.0,0.0,0.7064,0.7183,0.7513,0.7861,0.8749,0.9264,0.9092,0.9286,0.9202,0.8663,0.8896,0.8908,0.8585,0.8747,0.0,0.0,0.0,0.0,0.0,0.0,0.0,0.0,0.0,0.0,0.0,0.0,0.0,0.0,0.0,0.0,0.0,0.0,0.0,0.0,0.0,0.0,0.0,0.0,0.0,0.0,0.0,0.0,0.0,0.6812,0.7821,0.7695,0.8468,0.8589,0.0,0.0,0.0,0.0,0.0,0.0,0.0,0.0,0.0,1.0344,1.0982,1.1384,1.1682,1.1986,1.2499,1.3167,1.3634,1.4178,1.4896,1.5019,1.5119,1.5364,1.5086,1.4571,1.3835,1.2012,1.1063,1.0677,0.0,0.0,0.0,0.0,0.7747,0.7816,0.7622,0.7507,0.7493,0.7547,0.0,0.0,0.0,0.0,0.0,0.0,0.0,0.6483,0.6455,0.6607,0.6743,0.6761,0.7137,0.7402,0.7415,0.7011,0.6726,0.6688,0.6856,0.7292,0.8035,0.7937,0.0,0.0,0.0,0.7339,0.7169,0.7415,0.7757,0.8303,0.887,0.9339,0.9503,0.9496,0.9316,0.892,0.9065,0.9011,0.8687,0.898,0.9214,0.0,0.0,0.0,0.0,0.0,0.0,0.0,0.0,0.0,0.0,0.0,0.0,0.0,0.0,0.0,0.0,0.0,0.0,0.0,0.0,0.0,0.0,0.0,0.0,0.0,0.0,0.0,0.0,0.7757,0.8857,0.8591,0.9729,0.9916,0.0,0.0,0.0,0.0,0.0,0.0,1.0838,1.1484,1.1958,1.2257,1.2796,1.3118,1.3213,1.3602,1.4286,1.5183,1.5281,1.5924,1.682,1.682,1.686,1.6927,1.6927,1.6767,1.638,1.4084,1.2757,1.2092,1.1093,1.0686,1.0631,0.956,0.9228,0.9399,0.945,0.9334,0.9194,0.8849,0.8397,0.8013,0.7797,0.0,0.0,0.0,0.0,0.7597,0.7766,0.7938,0.8139,0.8106,0.8175,0.8316,0.8496,0.8321,0.7894,0.7262,0.7236,0.7548,0.821,0.7886,0.0,0.8704,0.8175,0.7816,0.7861,0.8177,0.8562,0.908,0.9489,0.9732,0.991,0.9694,0.9436,0.915,0.9136,0.9082,0.889,0.9131,0.9285,0.9328,0.0,0.0,0.0,0.0,0.0,0.0,0.0,0.0,0.0,0.0,0.0,0.0,0.0,0.0,0.0,0.0,0.0,0.0,0.0,0.0,0.0,0.0,0.0,0.0,0.0,0.0,0.0,0.0,0.0,0.8821,1.0765,0.0,0.0,0.0,0.0,1.0836,1.1397,1.1747,1.1647,1.3149,1.4027,1.4222,1.5445,1.6182,1.6467,1.6514,1.6547,1.656,1.6573,1.684,1.7128,1.7128,1.7281,1.7535,1.7535,1.7375,1.6994,1.5518,1.4553,1.409,1.3131,1.2568,1.227,1.1854,1.1705,1.1686,1.1388,1.1138,1.0915,1.0439,0.9709,0.8882,0.844,0.8409,0.0,0.0,0.8019,0.8172,0.8022,0.8241,0.8505,0.8513,0.8734,0.9179,0.9723,1.0207,0.9882,0.736,0.6522,0.6384,0.717,0.0,0.7846,0.8456,0.8946,0.9291,0.9228,1.0233,1.0746,1.0236,1.0944,1.0983,0.9958,0.9862,0.9628,0.9162,0.9316,0.946,0.9442,0.9506,0.9574,0.9797,0.9524,0.0,0.0,0.0,0.0,0.0,0.0,0.0,0.0,0.0,0.0,0.0,0.0,0.0,0.0,0.0,0.0,0.0,0.0,0.0,0.0,0.0,0.0,0.0,0.0,0.0,0.0,0.0,0.0,1.1415,1.3028,0.0,1.219,1.251,1.2734,1.2641,1.3587,1.4304,1.4598,1.5363,1.5998,1.6478,1.6905,1.7261,1.7562,1.7569,1.7569,1.7562,1.7361,1.7428,1.7722,1.7522,1.7702,1.8143,1.7756,1.7629,1.7635,1.674,1.6086,1.5504,1.4352,1.369,1.3377,1.2727,1.2569,1.2601,1.2731,1.2538,1.2124,1.1567,1.0732,0.9812,0.9586,0.9114,0.8791,0.9329,0.9551,0.9795,1.0524,1.0785,1.0903,1.0903,1.0963,1.1186,1.1374,1.1442,1.1261,1.0334,0.9687,0.9514,1.0042,0.9479,0.9336,1.0335,1.0058,0.9677,0.9597,1.0439,1.0907,1.074,1.1174,1.1304,1.0737,1.0387,0.997,0.961,0.952,0.9484,0.9484,0.9484,0.9564,0.9592,0.9701,0.9615,0.0,0.0,0.0,0.0,0.0,0.0,0.0,0.0,0.0,0.0,0.0,0.0,0.0,0.0,0.0,0.0,0.0,0.0,0.0,0.0,0.0,0.0,0.0,0.0,0.0,1.1552,1.322,1.3239,1.4695,1.5179,1.3954,1.4563,1.4936,1.4832,1.5743,1.6413,1.67,1.7181,1.7542,1.7736,1.7929,1.809,1.8196,1.8196,1.8143,1.8043,1.7836,1.7849,1.8036,1.7836,1.8009,1.847,1.8063,1.7996,1.8136,1.7655,1.7161,1.6673,1.5588,1.5126,1.4885,1.4376,1.409,1.4049,1.4313,1.3877,1.3324,1.283,1.2032,1.1166,1.094,1.0433,1.0111,1.0874,1.1096,1.1329,1.2112,1.2357,1.2357,1.2357,1.2357,1.2428,1.2716,1.2655,1.2597,1.288,1.2001,1.1364,1.1611,1.0924,1.0737,1.1975,1.1455,1.0988,1.1405,1.1747,1.1826,1.1657,1.1776,1.1703,1.116,1.1022,1.0606,0.9844,0.9945,0.9866,0.949,0.9697,0.987,0.9928,1.0013,1.0025,0.9842,0.0,0.0,0.0,0.0,0.0,0.0,0.0,0.0,0.0,0.0,0.0,0.0,0.0,0.0,0.0,0.0,0.0,0.0,0.0,0.0,0.0,0.0,0.0,1.0849,1.2728,1.4138,1.4089,1.5701,1.6441,1.5787,1.6593,1.7194,1.7194,1.7736,1.7943,1.7642,1.845,1.8664,1.809,1.8631,1.8791,1.851,1.8504,1.8364,1.807,1.8063,1.8063,1.807,1.8063,1.823,1.8517,1.8497,1.8497,1.8484,1.8183,1.7883,1.7535,1.6947,1.6714,1.6707,1.6714,1.654,1.6259,1.5959,1.5178,1.4406,1.4394,1.3613,1.2689,1.2641,1.257,1.2476,1.257,1.257,1.2625,1.2764,1.2823,1.2823,1.2823,1.2823,1.2951,1.3749,1.3882,1.4093,1.4856,1.3179,1.1516,1.1505,1.1499,1.1922,1.3212,1.3179,0.0,1.4462,1.4153,1.3693,1.3163,1.2892,1.23,1.1226,1.1828,1.1468,0.9645,1.0434,1.0491,0.9566,1.0118,1.058,1.0758,1.0539,1.0221,0.9804,0.0,0.0,0.0,0.0,0.0,0.0,0.0,0.0,0.0,0.0,0.0,0.0,0.0,0.0,0.0,0.0,0.0,0.0,0.0,0.0,0.0,1.1954,1.34,1.3042,1.4532,1.5929,1.6567,1.7488,1.7936,1.7669,1.7976,1.8123,1.8123,1.847,1.8644,1.8564,1.8791,1.8851,1.8684,1.8838,1.8885,1.8804,1.8804,1.8764,1.8677,1.847,1.8477,1.8677,1.8464,1.8644,1.9105,1.8677,1.8611,1.8784,1.849,1.819,1.7862,1.7261,1.6894,1.6734,1.6947,1.6981,1.6867,1.6567,1.613,1.5725,1.5517,1.4675,1.389,1.382,1.3211,1.2822,1.3605,1.3796,1.4005,1.4746,1.4956,1.4956,1.4956,1.4956,1.5032,1.524,1.522,1.5295,1.5511,1.508,1.446,1.4059,1.3989,1.411,1.4454,1.4289,1.4225,1.4302,1.4057,1.3948,1.4129,1.4135,1.363,1.2661,1.2588,1.1765,0.9898,0.9855,0.9764,0.949,0.9679,0.978,0.9839,1.0046,1.0015,0.0,0.0,0.0,0.0,0.0,0.0,0.0,0.0,0.0,0.0,0.0,0.0,0.0,0.0,0.0,0.0,0.0,0.0,0.0,0.0,0.0,0.0,1.3906,1.5337,1.5562,1.6381,1.7295,1.805,1.8885,1.948,1.9822,1.9731,1.9626,1.9836,1.9446,1.9166,1.8925,1.9152,1.9159,1.8925,1.9045,1.9112,1.9112,1.9112,1.9045,1.8918,1.8751,1.8764,1.8918,1.8751,1.8931,1.9352,1.9005,1.8951,1.9085,1.8791,1.8571,1.8357,0.0,0.0,0.0,0.0,1.7148,1.7094,1.6667,1.6413,1.6226,1.5925,1.5445,1.4968,1.4968,1.4478,1.4088,1.4771,1.4968,1.5064,1.5635,1.5832,1.5832,1.5832,1.5832,1.5832,1.5832,1.5832,1.5832,1.5832,1.5832,0.0,1.5384,1.5331,1.5416,1.5599,1.5317,1.5134,1.5029,1.4679,1.4457,1.4513,1.4301,1.3736,1.2819,1.27,0.0,0.0,0.0,1.0089,0.9913,1.0024,0.0,0.0,0.0,1.0508,1.0172,1.0146,0.0,0.0,0.7981,0.7346,0.0,0.0,0.0,0.0,0.0,0.0,0.0,0.0,0.0,0.0,0.0,0.0,0.0,0.0,0.0,0.0,1.5777,1.7002,1.7996,1.8414,1.8624,1.8871,2.0061,2.1062,2.1556,2.138,2.1388,2.1813,2.0737,1.9855,1.9367,1.9605,0.0,0.0,0.0,1.9495,1.9529,1.9386,1.9232,1.8978,1.8978,1.8978,1.8978,1.8978,1.9118,1.9366,1.9366,1.9366,1.9345,1.9085,1.8951,1.8865,1.8277,1.7876,1.7602,1.7301,1.7181,1.7074,1.6553,0.0,0.0,1.6005,1.5885,1.5838,1.5872,1.5879,1.5872,1.5838,1.5852,1.5872,1.5838,1.5832,1.5832,1.5832,1.5832,1.5832,1.5832,1.5832,1.5832,1.5832,1.5832,1.5832,1.5832,1.5832,1.592,1.6393,1.6116,1.592,1.6096,1.5547,1.4981,1.4546,1.3995,0.0,1.251,1.2594,1.2049,1.0484,1.0773,1.0829,1.0419,1.0676,1.0696,1.0451,1.1198,1.1272,1.0767,1.0513,1.0461,1.059,0.9168,0.8112,0.0,0.0,0.0,0.0,0.0,0.0,0.0,0.0,0.0,0.0,0.0,0.0,0.0,0.0,0.0,1.5591,1.7204,1.8544,1.902,2.0615,2.1016,1.9072,2.0345,2.1518,2.1578,2.1593,2.204,2.3263,2.2284,2.1612,2.1777,2.0826,2.0385,2.0683,2.0041,1.9815,2.006,1.9596,1.9339,1.9279,1.9279,0.0,1.9279,1.9279,1.9312,1.9366,1.9366,1.9366,1.9366,1.9305,1.9138,1.8865,1.8277,1.8009,1.7916,1.7609,1.7355,1.7134,1.7123,1.6673,1.6299,1.648,1.6219,1.5872,1.6112,1.6186,0.0,1.5899,1.6005,1.6132,1.5892,1.5832,1.5832,1.5832,1.5832,1.5832,1.5832,1.5832,1.5832,1.5832,1.5832,1.5832,1.5832,1.5832,1.5832,1.5927,1.5832,1.573,1.5635,1.554,1.5425,1.5468,1.5192,1.4655,1.3626,1.3378,1.2666,1.1015,1.1034,1.0796,1.0031,1.0685,1.0826,1.0329,1.0912,1.1107,1.1033,1.1164,1.1031,1.061,0.878,0.8156,0.0,0.0,0.0,0.0,0.0,0.0,0.0,0.0,0.0,0.0,0.0,1.3044,1.396,0.0,1.6415,1.7489,1.8656,1.9738,2.0873,2.2428,2.2808,2.1074,2.2648,2.4055,2.4228,2.3811,2.4091,2.5249,2.413,2.3522,2.3813,2.3255,2.2651,2.2006,2.1464,2.096,2.0267,1.9918,1.9844,1.9821,1.9851,1.9726,1.9586,1.9586,1.9506,1.9366,1.9366,1.9366,1.9366,1.9366,1.9279,1.9098,1.8657,1.8303,1.8029,1.7869,1.7622,1.7341,1.7201,1.6954,1.6707,1.6707,1.6506,1.6266,1.6273,1.6373,1.64,1.5952,1.6046,1.6206,1.5905,1.5832,1.5832,1.5832,1.5832,1.5832,1.5832,1.5832,1.5832,1.5832,1.5832,1.5832,1.5832,1.5832,1.5832,1.5832,1.5832,1.573,1.5642,1.554,1.554,1.5635,1.5184,1.4598,1.395,1.3169,1.2226,1.1154,1.1111,1.0936,1.0544,1.09,1.0985,1.0725,1.1117,1.1389,1.1516,1.1895,1.1939,1.1857,1.0423,0.9667,0.0,0.0,0.0,0.0,0.0,0.0,0.0,1.2042,1.2184,1.352,1.413,1.4916,1.6427,1.7302,1.8196,1.9519,2.016,2.0965,2.269,2.4129,2.4637,2.3865,2.5272,2.6587,2.6972,2.6332,2.6337,2.7314,2.6206,2.5511,2.5693,2.5719,2.506,2.3611,2.3131,2.2268,2.1026,2.0616,2.0475,2.0474,2.0421,2.0147,2.0037,2.0037,1.9791,1.9569,1.9569,1.9419,1.9366,1.9366,1.9366,1.9345,1.9105,1.8651,1.8123,1.807,1.7849,1.7549,1.7315,1.7194,1.7121,1.6934,1.68,1.6673,1.65,1.6567,1.6593,1.6066,1.6086,1.6206,1.5905,1.5872,1.5899,1.5845,1.5872,1.5899,1.5838,1.5832,1.5832,1.5832,1.5832,1.5832,1.5832,1.5832,1.5832,1.5832,1.5832,1.5832,1.5832,1.5642,1.554,1.554,1.4916,1.4247,1.3832,1.2771,1.1842,1.1304,1.1317,1.1298,1.1196,1.1292,1.1323,1.1344,1.1672,1.1921,1.2079,1.2537,1.2845,1.3054,1.2412,1.1571,1.4475,1.3939,1.3912,1.3831,1.3614,1.3911,0.0,1.6012,1.5868,1.7211,1.8122,1.879,1.8969,1.9742,2.0388,2.0959,2.1866,2.2821,2.3426,2.5763,2.75,2.7776,2.7083,2.6812,2.72,2.7164,2.7722,2.9215,2.8118,2.7607,2.7902,2.6724,2.6168,2.6515,2.4571,2.3549,2.37,2.1896,2.1053,2.1138,2.09,2.0774,2.0739,2.0739,2.0482,2.0219,1.9865,1.9606,1.9366,1.9366,1.9366,1.9366,1.9332,1.8958,1.841,1.8143,1.7849,1.7582,1.7549,1.7368,1.7188,1.7408,1.7128,1.6747,1.6981,1.6894,1.664,1.6313,1.6246,1.6206,1.5905,1.6025,1.6159,1.5892,1.6032,1.6152,1.5885,1.5832,1.5832,1.5832,1.5832,1.5832,1.5832,1.5832,1.5832,1.5832,1.5832,1.5832,1.5832,1.5737,1.573,1.554,1.5191,1.4624,1.3636,1.3169,1.2646,1.1866,1.2047,1.1968,1.1504,1.1932,1.2152,1.2165,1.2655,1.29,1.2852,1.3182,1.3322,1.3347,1.34,1.3015,1.5955,1.5316,1.5227,1.5042,1.5155,1.5934,1.8282,1.7969,1.7822,2.0114,2.0369,2.0312,2.0619,2.1249,2.1914,2.2731,2.3333,2.4263,2.614,2.7283,2.8125,2.8994,2.8709,2.8531,2.9066,2.8804,2.9079,3.0044,2.9537,2.9373,2.9754,2.917,2.8519,2.7829,2.6909,2.6007,2.5242,2.3627,2.2837,2.2886,2.199,2.1324,2.1029,2.1029,2.0691,2.028,1.9873,1.9844,1.9958,1.9549,1.9475,1.9591,1.9482,1.9112,1.8704,1.8417,1.7996,1.7582,1.7582,1.7502,1.7422,1.7542,1.7415,1.7208,1.7161,1.7181,1.7121,1.6653,1.6653,1.6714,1.642,1.6433,1.6493,1.6373,1.6306,1.6239,1.6112,1.5952,1.5832,1.5832,1.5832,1.5832,1.5832,1.5832,1.5832,1.5832,1.5832,1.5832,1.5832,1.5832,1.5737,1.554,1.5133,1.4579,1.3976,1.3386,1.2959,1.2646,1.2419,1.2216,1.1992,1.2198,1.2264,1.2319,1.2859,1.3087,1.3058,1.3425,1.3561,1.3568,1.3822,1.3762,1.7164,1.7122,1.7326,1.7289,1.7903,1.8977,2.0788,2.057,2.0511,2.2822,2.2824,2.2458,2.2951,2.328,2.3855,2.4784,2.5041,2.604,2.8317,2.8403,2.8643,2.9458,2.9463,2.9527,2.992,2.9857,2.9945,3.0461,3.0451,3.0537,3.0869,3.0889,3.0392,2.9157,2.8792,2.7935,2.6822,2.553,2.4928,2.4924,2.3864,2.2958,2.2133,2.1649,2.1162,2.0699,2.028,2.0104,2.0246,1.9603,1.9475,1.97,1.9482,1.9185,1.8898,1.8691,1.823,1.7695,1.7609,1.7582,1.7582,1.7582,1.7582,1.7542,1.7335,1.7361,1.7375,1.6947,1.6927,1.6974,1.676,1.6767,1.6807,1.6727,1.6607,1.6493,1.6413,1.6159,1.5952,1.5952,1.5885,1.5832,1.5832,1.5832,1.5832,1.5832,1.5832,1.5832,1.5832,1.5832,1.573,1.5635,1.5029,1.4591,1.4315,1.3629,1.3137,1.3137,1.264,1.2322,1.2478,1.2337,1.2294,1.2449,1.2887,1.3193,1.3199,1.3613,1.3822,1.3822,1.3997,1.4088,1.8037,1.9158,2.0413,2.119,2.249,2.3803,2.442,2.4675,2.5057,2.5737,2.6131,2.6278,2.6295,2.6602,2.6866,2.6866,2.7621,2.8327,2.8847,2.9279,2.957,2.957,2.9199,2.8945,2.8975,2.9707,3.0371,3.085,3.0879,3.0869,3.0889,3.0889,3.0889,3.0889,2.953,2.8911,2.8783,2.7607,2.6892,2.6875,2.6517,2.5744,2.4419,2.2859,2.2133,2.2112,2.1071,2.0534,2.0246,1.9603,1.9366,1.9366,1.9366,1.9185,1.8925,1.8911,1.8537,1.7989,1.7689,1.7582,1.7582,1.7582,1.7582,1.7582,1.7569,1.7382,1.7161,1.7141,1.6934,1.6714,1.6707,1.6921,1.7061,1.6774,1.6921,1.7041,1.6754,1.6466,1.6259,1.6259,1.6025,1.5832,1.5832,1.5832,1.5832,1.5832,1.5832,1.5832,1.5832,1.5832,1.5832,1.5825,1.5311,1.4867,1.4591,1.3889,1.3392,1.3392,1.2631,1.2457,1.2972,1.2384,1.2382,1.2896,1.3183,1.3408,1.3579,1.3941,1.4088,1.4088,1.4088,1.4088,1.9335,2.1013,2.2713,2.334,2.413,2.5119,2.6793,2.653,2.639,2.7605,2.6714,2.5388,2.5036,2.4893,2.5223,2.6144,2.72,2.8297,2.9526,2.9928,2.957,2.8437,2.8672,2.8701,2.8144,2.8848,2.9531,2.998,3.0273,3.043,3.043,3.0723,3.0889,3.0889,3.0518,3.0274,3.0274,2.8929,2.8206,2.8206,2.7099,2.5836,2.4645,2.4613,2.4246,2.3394,2.2593,2.2416,2.2393,2.048,1.9815,1.9931,1.9597,1.9305,1.9192,1.8998,1.8677,1.8297,1.7996,1.7756,1.7582,1.7582,1.7582,1.7582,1.7582,1.7515,1.7442,1.7442,1.7361,1.7288,1.7288,1.7361,1.7415,1.7315,1.7215,1.7121,1.7021,1.6767,1.656,1.656,1.6326,1.6126,1.6126,1.5959,1.5832,1.5832,1.5832,1.5832,1.5832,1.5832,1.5832,1.5832,1.5484,1.517,1.4887,1.4415,1.4054,1.3587,1.3398,1.3271,1.2991,1.28,1.266,1.273,1.3089,1.3313,1.3395,1.3858,1.4088,1.4088,1.4088,1.4088,2.174,2.371,2.5441,2.6408,2.6964,2.7765,2.8988,2.8551,2.8119,2.8946,2.7536,2.5798,2.5297,2.4792,2.4781,2.5812,2.6652,2.7779,2.9414,2.9497,2.905,2.8223,2.8457,2.8476,2.7939,2.8379,2.8935,2.9521,2.9961,3.0195,3.0195,3.0635,3.0889,3.0889,3.0889,3.0889,3.0889,3.003,2.9658,2.9658,2.8068,2.6979,2.6139,2.6111,2.569,2.4817,2.3652,2.3239,2.32,2.0931,2.0162,2.027,1.9822,1.9707,1.9686,1.9374,1.9004,1.8695,1.8183,1.7842,1.7582,1.7582,1.7582,1.7582,1.7582,1.7582,1.7582,1.7582,1.7582,1.7582,1.7582,1.7582,1.7582,1.7582,1.7442,1.7301,1.7301,1.7074,1.6834,1.6727,1.6473,1.6239,1.6132,1.5952,1.5832,1.5832,1.5832,1.5832,1.5832,1.5832,1.5832,1.5832,1.5571,1.5317,1.5137,1.4837,1.4435,1.4156,1.3937,1.3677,1.34,1.3089,1.2836,1.2654,1.3093,1.3244,1.3244,1.3811,1.4088,1.4088,1.4088,1.4088,2.4951,2.7139,2.875,2.9961,3.0898,3.1406,3.0957,3.0498,3.0029,2.957,2.8437,2.7383,2.6904,2.6152,2.5664,2.5932,2.6314,2.7074,2.8452,2.8308,2.8192,2.8877,2.8584,2.835,2.833,2.834,2.8691,2.9512,2.9941,3.0176,3.0195,3.0635,3.0889,3.0889,3.0889,3.0889,3.0889,3.0889,3.0889,3.0889,2.9658,2.892,2.8902,2.7314,2.6549,2.6388,2.4142,2.3153,2.3014,2.1083,2.027,2.027,2.027,2.027,2.027,1.9924,1.9624,1.9289,1.8379,1.7869,1.7609,1.7609,1.7595,1.7582,1.7582,1.7582,1.7582,1.7582,1.7582,1.7582,1.7582,1.7582,1.7582,1.7582,1.7582,1.7582,1.7582,1.7368,1.7081,1.6787,1.648,1.6179,1.5879,1.5832,1.5832,1.5832,1.5832,1.5832,1.5832,1.5832,1.5832,1.5832,1.5585,1.5411,1.5398,1.4969,1.472,1.4963,1.4282,1.39,1.4135,1.338,1.2909,1.2889,1.3093,1.3233,1.3233,1.3808,1.4088,1.4088,1.4088,1.4088,2.706,2.9141,3.0771,3.1103,3.1348,3.1318,3.0547,3.0039,2.9434,2.8369,2.6855,2.541,2.4059,2.3774,2.4059,2.4948,2.6381,2.7834,2.9118,2.9468,2.94,2.8984,2.9111,2.9111,2.8789,2.9053,2.9336,2.9551,2.9668,2.9863,3.0176,3.0635,3.0889,3.0889,3.0889,3.0889,3.0889,3.0889,3.0889,3.0889,3.0518,2.9903,2.8902,2.9091,2.8672,2.7696,2.5643,2.4758,2.4611,2.1758,2.0608,2.0608,2.0385,2.027,2.027,2.0155,1.996,1.9647,1.8933,1.8279,1.7929,1.7929,1.7769,1.7582,1.7582,1.7582,1.7582,1.7582,1.7582,1.7582,1.7582,1.7582,1.7582,1.7582,1.7582,1.7582,1.7582,1.7522,1.7388,1.7094,1.662,1.6179,1.5879,1.5832,1.5832,1.5832,1.5832,1.5832,1.5832,1.5832,1.5832,1.5832,1.5765,1.5631,1.5418,1.5431,1.5325,1.499,1.5139,1.5099,1.4756,1.4309,1.3968,1.3748,1.3607,1.3534,1.3534,1.3908,1.4088,1.4088,1.4088,1.4088,2.9424,3.1016,3.2031,3.1846,3.166,3.1143,2.98,2.8996,2.8027,2.6643,2.5104,2.3672,2.2591,2.2347,2.2639,2.3751,2.5169,2.6681,2.8631,2.9098,2.9274,2.9473,2.9697,2.9746,2.9502,2.9697,2.9932,3.0137,2.9961,2.9941,3.0185,3.0635,3.0889,3.0889,3.0889,3.0889,3.0889,3.0889,3.0889,3.0889,3.0889,3.0518,2.9766,3.0045,2.9746,2.8728,2.6947,2.5786,2.4932,2.2593,2.1402,2.0845,2.0737,2.0737,2.0622,2.05,2.0302,1.9928,1.9436,1.8918,1.8299,1.7929,1.7722,1.7582,1.7582,1.7675,1.7756,1.7622,1.7682,1.7756,1.7615,1.7582,1.7582,1.7582,1.7582,1.7582,1.7582,1.7582,1.7495,1.7208,1.6673,1.6219,1.6052,1.5912,1.5832,1.5832,1.5832,1.5832,1.5832,1.5832,1.5832,1.5832,1.5832,1.5765,1.5605,1.5732,1.5691,1.5364,1.5531,1.5491,1.5164,1.4623,1.4255,1.4088,1.3794,1.3559,1.3559,1.3941,1.4088,1.4088,1.4088,1.4088,3.1601,3.2559,3.2764,3.2285,3.1748,3.0791,2.8898,2.7619,2.629,2.4779,2.3359,2.2217,2.1787,2.1494,2.1656,2.2766,2.3679,2.5131,2.7622,2.8105,2.8726,3.0068,3.0244,3.0293,3.0293,3.0293,3.0459,3.0859,3.0518,3.0293,3.0293,3.0674,3.0889,3.0889,3.0889,3.0889,3.0889,3.0889,3.0889,3.0889,3.0889,3.0889,3.0869,3.0351,2.9912,2.9541,2.7698,2.6047,2.4616,2.3303,2.2093,2.1211,2.1211,2.1211,2.1211,2.0845,2.0566,2.0379,1.9908,1.9384,1.883,1.7976,1.7675,1.7635,1.7595,1.7802,1.7989,1.7722,1.7842,1.7989,1.7716,1.7615,1.7582,1.7582,1.7582,1.7582,1.7582,1.7555,1.7448,1.7201,1.6707,1.6333,1.6333,1.6119,1.5932,1.5892,1.5885,1.5872,1.5832,1.5832,1.5832,1.5832,1.5832,1.5832,1.5832,1.5832,1.5832,1.5832,1.5591,1.5451,1.5451,1.4689,1.4262,1.4262,1.3968,1.3801,1.3761,1.4021,1.4122,1.4088,1.4088,1.4088,3.2373,3.2998,3.3135,3.2363,3.1289,3.0074,2.8493,2.6577,2.4687,2.3377,2.234,2.1479,2.0948,2.1328,2.2187,2.3477,2.4915,2.6472,2.797,2.9089,2.9951,3.0176,3.0537,3.0771,3.0771,3.0771,3.0801,3.0889,3.081,3.0771,3.0771,3.085,3.0889,3.0889,3.0889,3.0889,3.0889,3.0889,3.0889,3.0889,3.0889,3.0889,3.0859,3.0049,2.9639,2.941,2.6478,2.5008,2.4505,2.2425,2.1432,2.1211,2.1211,2.1211,2.1211,2.1089,2.106,2.0866,2.0076,1.9542,1.9229,1.8583,1.817,1.7916,1.7662,1.7802,1.8036,1.7983,1.8003,1.8036,1.7976,1.7776,1.7582,1.7582,1.7582,1.7582,1.7582,1.7395,1.7215,1.7161,1.6867,1.6627,1.6627,1.6587,1.6473,1.6233,1.6192,1.6106,1.5865,1.5832,1.5832,1.5832,1.5832,1.5832,1.5832,1.5832,1.5832,1.5832,1.5785,1.5752,1.5752,1.5378,1.517,1.517,1.4883,1.4616,1.4369,1.4416,1.4322,1.4088,1.4088,1.4088,3.2891,3.3271,3.3223,3.2383,3.1006,2.9417,2.7548,2.5441,2.3481,2.2341,2.1549,2.0944,2.0809,2.1193,2.1963,2.3242,2.3965,2.5215,2.7627,2.8301,2.8955,3.0068,3.0605,3.0889,3.0889,3.0889,3.0889,3.0889,3.0889,3.0889,3.0889,3.0889,3.0889,3.0889,3.0889,3.0889,3.0889,3.0889,3.0889,3.0889,3.0889,3.0889,3.0869,3.0195,2.9775,2.942,2.7086,2.5471,2.4616,2.2862,2.1767,2.1211,2.1211,2.1211,2.1211,2.1211,2.0994,2.0622,2.0167,1.9737,1.9257,1.8823,1.8303,1.7809,1.7822,1.7929,1.805,1.805,1.8156,1.8203,1.7889,1.7816,1.7782,1.7622,1.7582,1.7582,1.7582,1.7475,1.7375,1.7375,1.7134,1.6934,1.6934,1.6807,1.6607,1.6319,1.6273,1.6166,1.5865,1.5832,1.5832,1.5832,1.5832,1.5832,1.5832,1.5832,1.5832,1.5832,1.5832,1.5832,1.5832,1.5551,1.5398,1.5398,1.511,1.4816,1.4522,1.4522,1.4369,1.4088,1.4088,1.4088,3.3027,3.3281,3.3086,3.2236,3.0586,2.8643,2.6615,2.4296,2.2351,2.1649,2.0913,2.0487,2.0807,2.1105,2.1592,2.2695,2.2822,2.3828,2.6826,2.7197,2.7881,2.9834,3.0459,3.0781,3.0879,3.0889,3.0889,3.0889,3.0889,3.0889,3.0889,3.0889,3.0889,3.0889,3.0889,3.0889,3.0889,3.0889,3.0889,3.0889,3.0889,3.0889,3.0869,3.0312,2.977,2.9084,2.767,2.6029,2.4292,2.3416,2.232,2.1211,2.1211,2.1211,2.1211,2.1211,2.0822,2.0415,2.0308,1.9839,1.9251,1.9031,1.8444,1.7889,1.8218,1.8401,1.8442,1.8381,1.853,1.8605,1.7909,1.7816,1.7883,1.7642,1.7582,1.7582,1.7582,1.7582,1.7582,1.7582,1.7402,1.7241,1.7241,1.7048,1.6794,1.6506,1.646,1.6333,1.5972,1.5925,1.5899,1.5838,1.5832,1.5832,1.5832,1.5832,1.5832,1.5832,1.5832,1.5832,1.5832,1.5611,1.5491,1.5491,1.5264,1.497,1.4616,1.4616,1.4429,1.4088,1.4088,1.4088,3.2632,3.2851,3.2646,3.1787,2.9697,2.7467,2.6038,2.3463,2.1336,2.1456,2.0734,2.0262,2.0824,2.1174,2.1558,2.1914,2.2939,2.4199,2.5703,2.6894,2.8105,2.9463,3.0,3.043,3.085,3.0889,3.0889,3.0889,3.0889,3.0889,3.0889,3.0889,3.0889,3.0889,3.0889,3.0889,3.0889,3.0889,3.0889,3.0889,3.0889,3.0889,3.0859,3.001,2.9029,2.7909,2.6912,2.5229,2.3199,2.3087,2.232,2.1211,2.1211,2.1211,2.1211,2.1211,2.0945,2.0687,2.0371,1.9846,1.9371,1.9038,1.8871,1.8921,1.9355,1.97,1.9874,1.9584,1.9527,1.9327,1.8225,1.7816,1.7615,1.7589,1.7582,1.7582,1.7582,1.7582,1.7582,1.7582,1.7562,1.7542,1.7542,1.7522,1.7402,1.7114,1.7068,1.6867,1.6306,1.6233,1.6126,1.5858,1.5832,1.5832,1.5832,1.5832,1.5832,1.5832,1.5832,1.5832,1.5832,1.5805,1.5792,1.5792,1.5765,1.5478,1.4923,1.4923,1.4636,1.4088,1.4088,1.4088,3.1711,3.2031,3.1885,3.1289,2.9213,2.6973,2.5934,2.3385,2.1316,2.1603,2.0851,2.0285,2.0968,2.1123,2.1224,2.1426,2.1791,2.267,2.4307,2.4785,2.5898,2.8496,2.8945,2.9531,3.0771,3.0889,3.0889,3.0889,3.0889,3.0889,3.0889,3.0889,3.0889,3.0889,3.0889,3.0889,3.0889,3.0889,3.0889,3.0889,3.0605,3.0478,3.0449,2.957,2.8949,2.8347,2.6307,2.4846,2.3958,2.2531,2.1653,2.1211,2.1211,2.1211,2.1189,2.0991,2.0692,2.043,1.99,1.9417,1.9097,1.8769,1.8664,1.8834,1.9649,1.9706,1.9729,2.0431,2.0657,2.0513,1.9904,1.9129,1.8408,1.7786,1.7582,1.7582,1.7582,1.7582,1.7582,1.7582,1.7582,1.7582,1.7582,1.7582,1.7482,1.7194,1.7001,1.6734,1.6326,1.6119,1.5965,1.5838,1.5832,1.5832,1.5832,1.5832,1.5832,1.5832,1.5832,1.5832,1.5832,1.5832,1.5832,1.5832,1.5658,1.5364,1.4963,1.4783,1.4489,1.4088,1.4088,1.4088,3.0463,3.0928,3.1025,3.0605,2.8542,2.6304,2.5398,2.3023,2.1084,2.1406,2.0803,2.0379,2.0939,2.1038,2.1045,2.1242,2.1135,2.1607,2.3418,2.3447,2.4375,2.73,2.7646,2.8408,3.0137,3.0664,3.0889,3.0889,3.0889,3.0889,3.0889,3.0889,3.0889,3.0889,3.0889,3.0889,3.0889,3.0752,3.0684,3.0684,3.0225,3.001,2.999,2.9248,2.8697,2.8229,2.6125,2.4837,2.4069,2.2418,2.1539,2.1211,2.1211,2.1211,2.1181,2.0947,2.059,2.0258,1.9681,1.9209,1.8809,1.8601,1.843,1.859,1.9735,2.002,2.0127,2.1307,2.1138,2.0562,2.0021,1.9339,1.8506,1.7786,1.7582,1.7582,1.7582,1.7582,1.7582,1.7582,1.7582,1.7582,1.7582,1.7582,1.7482,1.7194,1.6974,1.67,1.6319,1.6092,1.5925,1.5838,1.5832,1.5832,1.5832,1.5832,1.5832,1.5832,1.5832,1.5832,1.5832,1.5832,1.5792,1.5705,1.5504,1.5211,1.483,1.471,1.4456,1.4088,1.4175,1.4168,2.8787,2.9672,3.0107,2.9687,2.7418,2.5119,2.426,2.1946,2.0227,2.0644,2.0573,2.0494,2.0747,2.1055,2.1278,2.1471,2.1311,2.1762,2.3325,2.3693,2.4369,2.5885,2.6241,2.707,2.8779,3.0127,3.0889,3.0889,3.0889,3.0889,3.0889,3.0889,3.0889,3.0889,3.0889,3.0889,3.0889,3.043,3.0205,3.0195,2.9775,2.958,2.956,2.9121,2.8248,2.7225,2.6701,2.5194,2.2974,2.2974,2.232,2.1211,2.1211,2.1211,2.1211,2.1203,2.0779,2.0286,1.9921,1.9382,1.8809,1.8601,1.829,1.8313,1.9664,2.0604,2.1426,2.2223,2.0885,1.9027,1.7891,1.7582,1.7582,1.7582,1.7582,1.7582,1.7582,1.7582,1.7582,1.7582,1.7582,1.7582,1.7582,1.7582,1.7482,1.7194,1.725,1.6934,1.6353,1.6273,1.6152,1.5865,1.5832,1.5832,1.5832,1.5832,1.5832,1.5832,1.5832,1.5832,1.5832,1.5832,1.5698,1.5404,1.5398,1.511,1.4522,1.4816,1.4656,1.4095,1.4382,1.4362,2.5357,2.5895,2.617,2.6041,2.4656,2.3183,2.2818,2.1336,2.0198,2.0429,2.0112,2.0001,2.0686,2.0876,2.0969,2.1035,2.176,2.2271,2.2145,2.2972,2.4216,2.5826,2.7506,2.8887,2.9707,3.0176,3.0547,3.0869,3.0889,3.0889,3.0889,3.0596,3.0566,3.0879,3.0889,3.0889,3.0889,3.0742,3.0508,3.0195,2.9766,2.9414,2.9111,2.8682,2.7828,2.671,2.5679,2.4411,2.2982,2.2093,2.1539,2.1211,2.1211,2.1211,2.1181,2.0955,2.0446,1.9907,1.959,1.909,1.851,1.8197,1.8136,1.8174,1.9197,1.9827,2.0431,2.137,2.106,2.0055,1.902,1.8715,1.8506,1.7786,1.7582,1.7582,1.7582,1.7582,1.7582,1.7582,1.7582,1.7582,1.7582,1.7415,1.7255,1.7161,1.6807,1.6486,1.6299,1.6092,1.5932,1.5838,1.5832,1.5832,1.5832,1.5832,1.5832,1.5832,1.5832,1.5832,1.5832,1.5832,1.5691,1.5404,1.5204,1.491,1.4522,1.4416,1.4369,1.4389,1.4476,1.4469,2.2869,2.3652,2.39,2.3988,2.2925,2.188,2.1696,2.069,1.9787,1.9931,1.9702,1.9716,2.043,2.0558,2.0722,2.1201,2.1689,2.195,2.1859,2.2685,2.4037,2.5946,2.778,2.9014,2.9434,2.9912,3.0322,3.0605,3.0791,3.0889,3.0889,3.0449,3.0332,3.0625,3.0478,3.0391,3.0391,3.0391,3.0166,2.9707,2.9453,2.9101,2.8672,2.7968,2.7187,2.6409,2.4744,2.3631,0.0,2.1653,2.1211,2.1211,2.1211,2.1211,2.1181,2.0984,2.0507,1.9866,1.9571,1.9106,1.8541,1.8227,1.8197,1.8294,1.859,1.9371,2.0159,2.0465,2.0423,1.9952,1.8923,1.861,1.8408,1.7786,1.7582,1.7582,1.7582,1.7582,1.7582,1.7582,1.7582,1.7582,1.7582,1.7341,1.7148,1.7148,1.6647,1.6273,1.6273,1.6012,1.5832,1.5832,1.5832,1.5832,1.5832,1.5832,1.5832,1.5832,1.5832,1.5832,1.5832,1.5832,1.5645,1.5244,1.5057,1.4763,1.4355,1.4175,1.4117,1.4141,1.3928,1.3652,0.0,2.2193,2.2725,2.2886,2.1949,2.0883,2.0821,1.9895,0.0,1.9218,1.9349,1.9573,1.9941,2.0169,2.0516,2.1539,2.1154,2.1135,2.2281,2.2922,2.4053,2.6143,2.7168,2.7851,2.8213,2.9375,3.0117,3.0146,3.0547,3.0801,3.0801,3.0361,3.0107,3.0107,2.9697,2.9512,2.957,2.96,2.9375,2.8916,2.8945,2.873,2.8291,2.7079,2.6418,2.63,2.3975,2.2974,2.2757,2.1653,2.1211,2.1211,2.1211,2.1211,2.1203,2.1181,2.0779,2.0121,1.9866,1.9363,1.8869,1.8534,1.8413,1.8441,1.8124,1.9295,2.0506,1.9368,1.9146,1.8819,1.7891,1.7582,1.7582,1.7582,1.7582,1.7582,1.7582,1.7582,1.7582,1.7582,1.7582,1.7575,1.7555,1.7315,1.7114,1.7094,1.6607,1.6239,1.6239,1.5999,1.5832,1.5832,1.5832,1.5832,1.5832,1.5832,1.5832,1.5832,1.5812,1.5805,1.5832,1.5812,1.5545,1.5003,1.4977,1.4696,1.4148,1.4064,1.3896,1.3574,1.2988,1.2141,1.7475,0.0,1.8579,1.8691,1.8853,1.8904,0.0,0.0,0.0,0.0,0.0,1.8841,1.9364,1.9869,2.0356,2.0772,2.1568,2.2005,2.198,2.3612,2.5258,2.625,2.7432,2.8057,2.7832,2.8662,2.9355,2.9697,2.9814,2.9883,2.9883,2.9463,2.9219,2.9219,2.8809,2.8906,2.956,2.9893,2.9668,2.8926,2.9258,2.9023,2.8291,2.7079,2.5963,2.5058,2.364,2.2425,2.1653,2.1318,2.1211,2.1211,2.1211,2.1211,2.1181,2.0933,2.0463,1.9859,1.9844,1.9404,1.8869,1.8534,1.8268,1.802,1.7802,1.8122,1.8679,1.8358,1.8181,1.7891,1.7687,1.7582,1.7582,1.7582,1.7582,1.7582,1.7582,1.7582,1.7582,1.7582,1.7582,1.7508,1.7288,1.7007,1.6734,1.6513,1.6166,1.5932,1.5932,1.5872,1.5832,1.5832,1.5832,1.5832,1.5832,1.5832,1.5832,1.5832,1.5618,1.5598,1.5818,1.5618,1.5431,1.5297,1.5077,1.4897,1.4756,1.4034,1.3644,1.3586,1.2631,1.2031,1.5826,1.6504,1.7232,1.7465,1.7784,1.8105,1.8395,0.0,0.0,0.0,0.0,1.8476,1.8844,1.9433,1.9872,2.0108,2.1141,2.213,2.2709,2.4077,2.5565,2.7221,2.7717,2.8144,2.8506,2.8769,2.9023,2.9258,2.9453,2.957,2.957,2.915,2.8916,2.8916,2.8506,2.8516,2.8975,2.9394,2.9277,2.8633,2.8502,2.8478,2.8184,2.5972,2.4855,2.4616,2.2862,2.1759,2.1211,2.1211,2.1211,2.1211,2.1211,2.1115,2.0969,2.0786,2.031,1.9773,1.982,1.9451,1.8869,1.8534,1.822,1.7911,1.7687,1.7702,1.7836,1.7836,1.7709,1.7582,1.7582,1.7582,1.7582,1.7582,1.7582,1.7582,1.7582,1.7582,1.7542,1.7408,1.7382,1.7288,1.6994,1.67,1.65,1.6473,1.6106,1.5879,1.6012,1.5912,1.5832,1.5832,1.5832,1.5832,1.5832,1.5832,1.5832,1.5832,1.5558,1.5524,1.5818,1.5551,1.5398,1.5398,1.452,1.4187,1.4321,1.3159,1.2388,1.2141,1.1499,1.089,1.5178,1.6141,1.7062,1.7168,1.7262,1.754,1.8233,0.0,0.0,0.0,0.0,1.8251,1.8545,1.8994,1.936,1.9647,2.0751,2.2162,2.404,2.4633,2.5664,2.7989,2.8009,2.8135,2.9092,2.8965,2.8818,2.8818,2.917,2.9375,2.9375,2.9023,2.8818,2.8818,2.8476,2.8291,2.8291,2.8711,2.8602,2.797,2.761,2.7591,2.7618,2.4633,2.3743,2.4283,2.2093,2.1211,2.1203,2.1159,2.1137,2.113,2.1079,2.0896,2.064,2.0596,2.023,1.9755,1.9703,1.9408,1.8869,1.8534,1.822,1.8016,1.7687,1.7582,1.7582,1.7582,1.7582,1.7582,1.7582,1.7582,1.7582,1.7582,1.7582,1.7582,1.7582,1.7549,1.7442,1.7194,1.7114,1.6987,1.6693,1.6433,1.6339,1.654,1.6146,1.5919,1.6172,1.5985,1.5832,1.5832,1.5832,1.5832,1.5832,1.5832,1.5832,1.5832,1.5558,1.5504,1.5752,1.5571,1.5345,1.5206,1.3941,1.3369,1.3459,1.1949,1.0972,1.0438,1.0162,0.9604,1.4505,1.5568,1.6233,1.4996,1.5268,1.5955,1.6301,1.6529,0.0,0.0,1.7855,1.7895,1.8486,1.8994,1.9424,1.9778,2.1481,2.3477,2.5464,2.6251,2.6787,2.7143,2.7832,2.7988,2.7461,2.7998,2.8389,2.8389,2.8447,2.8486,2.8486,2.8428,2.8389,2.8389,2.833,2.8291,2.8291,2.8711,2.8148,2.6754,2.8048,2.7453,2.5278,2.4727,2.3958,2.3199,2.1759,2.1211,2.1189,2.0911,2.0794,2.0772,2.0494,2.0355,2.0274,2.0011,1.985,1.9725,1.9447,1.9323,1.9175,1.8527,1.8422,1.8213,1.7793,1.7582,1.7582,1.7582,1.7582,1.7582,1.7582,1.7582,1.7582,1.7582,1.7582,1.7582,1.7582,1.7388,1.7201,1.7257,1.6947,1.668,1.6386,1.6299,1.6206,1.5992,1.5885,1.5845,1.5892,1.5858,1.5832,1.5832,1.5832,1.5832,1.5832,1.5832,1.5832,1.5832,1.5558,1.5418,1.5464,1.5658,1.5263,1.4266,1.4133,1.3632,1.2692,1.1505,1.0933,1.0778,0.9931,0.9382,1.3812,1.4414,1.5007,1.4513,1.562,1.6892,1.7148,1.7015,1.706,1.8007,1.7948,1.8037,1.8695,1.9457,2.0498,2.209,2.2911,2.3997,2.6044,2.6258,2.6647,2.7689,2.7882,2.7978,2.8037,2.8193,2.8291,2.8291,2.8291,2.8291,2.8291,2.8291,2.8291,2.8291,2.8291,2.8291,2.8291,2.8486,2.8143,2.752,2.6911,2.6235,2.5626,2.3631,2.2862,2.2974,2.1767,2.1211,2.1181,2.0859,2.072,2.0691,2.0362,2.0128,1.9923,1.9418,1.9345,1.9455,1.9125,1.9029,1.8966,1.8534,1.8325,1.8115,1.7687,1.7582,1.7582,1.7582,1.7582,1.7582,1.7582,1.7582,1.7582,1.7582,1.7582,1.7582,1.7582,1.7355,1.7101,1.6941,1.6673,1.638,1.6086,1.6032,1.5985,1.5852,1.5832,1.5832,1.5832,1.535,1.4968,1.4968,1.4478,1.4082,1.4082,1.4082,1.4506,1.5511,1.5049,1.4926,1.5177,1.4397,1.3942,1.3774,1.2732,1.1987,1.1435,1.0311,0.9859,0.987,0.9594,0.9311,1.3235,1.3661,1.4162,1.4513,1.5746,1.7178,1.8047,1.7465,1.7088,1.8556,1.8479,1.8399,1.9232,2.0139,2.153,2.3806,2.4074,2.4648,2.6579,2.6666,2.6948,2.8259,2.8184,2.8174,2.8721,2.8476,2.8291,2.8291,2.8291,2.8291,2.8291,2.8291,2.8291,2.8291,2.8291,2.8291,2.8291,2.8291,2.8067,2.7403,2.5845,2.5133,2.5064,2.2725,2.1941,2.2422,2.1623,2.1167,2.1072,2.0742,2.0567,2.0464,2.0135,1.982,1.9477,1.8972,1.8899,1.903,1.8935,1.8817,1.8769,1.8513,1.822,1.7911,1.7687,1.7582,1.7582,1.7582,1.7582,1.7582,1.7582,1.7582,1.7582,1.7582,1.7582,1.7582,1.7582,1.7355,1.7061,1.6767,1.6473,1.6179,1.5879,1.5832,1.5832,1.5832,1.5832,1.573,1.5445,1.4777,1.4196,1.3908,1.3221,1.2727,1.2727,1.2727,1.3324,1.4659,1.4272,1.4081,1.4436,1.3211,1.2631,1.2854,1.1307,1.04,1.0278,0.9313,0.8958,0.91,0.9234,0.9315,1.3146,1.3897,1.4363,1.4416,1.4161,1.4694,1.752,1.6829,0.0,1.9432,1.9344,1.9069,2.0227,2.1021,2.1974,2.3355,2.4533,2.5848,2.7432,2.8232,2.8603,2.8359,2.8633,2.8701,2.8369,2.831,2.8291,2.8291,2.8291,2.8291,2.8291,2.8291,2.8291,2.8291,2.8291,2.8291,2.8291,2.8291,2.7178,2.4948,2.5963,2.4564,2.1205,2.2278,2.2143,2.0884,2.1079,2.1035,2.0728,2.0406,2.0098,1.9798,1.9477,1.9147,1.8855,1.8803,1.8613,1.846,1.9038,1.8861,1.8475,1.8442,1.822,1.7911,1.7687,1.7582,1.7582,1.7582,1.7582,1.7582,1.7582,1.7582,1.7582,1.7582,1.7582,1.7582,1.7582,1.7355,1.7061,1.6767,1.6473,1.6179,1.5879,1.5832,1.5832,1.5832,1.5832,1.5445,1.449,1.4298,1.3908,1.2926,1.2732,1.2727,1.2727,1.2727,1.2721,1.2898,1.2818,1.2805,1.2637,1.2549,1.1978,1.0828,1.0629,1.0084,0.9185,0.9084,0.9084,0.9096,0.9112,0.9202,1.3067,1.3965,1.4881,1.4942,1.4985,0.0,0.0,1.7542,1.7988,1.8757,1.9646,2.0464,2.1309,2.2305,2.33,2.4331,2.5363,2.6481,2.7871,2.8105,2.8271,2.8643,2.8594,2.8467,2.831,2.8291,2.8291,2.8291,2.8291,2.8291,2.8291,2.8291,2.8291,2.8291,2.8047,2.791,2.791,2.7637,2.6302,2.4033,2.495,2.4107,2.1811,2.1615,2.116,2.0428,2.0552,2.042,2.0098,1.9777,1.9447,1.9125,1.8796,1.8723,1.8767,1.8562,1.854,1.8642,1.8687,1.8462,1.8081,1.8164,1.7998,1.7777,1.7634,1.7582,1.7582,1.7582,1.7455,1.7355,1.7535,1.7582,1.7582,1.7582,1.7442,1.7315,1.7315,1.6941,1.6573,1.646,1.6199,1.5965,1.5845,1.5832,1.5832,1.5832,1.5255,1.4777,1.4394,1.3125,1.2247,1.1853,1.1179,1.0792,1.0792,1.0792,1.0792,1.0792,1.137,1.1945,1.2388,1.112,1.0394,1.0362,0.971,0.9169,0.8926,0.8926,0.8986,0.9096,0.9096,0.9133,1.2615,1.362,1.4626,1.4525,0.0,0.0,1.6516,1.772,1.8916,1.9786,2.0828,2.1768,2.2207,2.2998,2.3916,2.4902,2.5928,2.6982,2.8135,2.8164,2.8223,2.8672,2.8584,2.8437,2.8301,2.8291,2.8291,2.8291,2.8291,2.8116,2.7544,2.7544,2.737,2.6908,2.6635,2.6493,2.6493,2.6107,2.4932,2.2908,2.3411,2.2994,2.1596,2.0847,2.0333,1.9938,2.004,1.985,1.944,1.9213,1.8928,1.8613,1.8394,1.8379,1.8482,1.8367,1.8374,1.8311,1.8318,1.798,1.7689,1.7702,1.749,1.7361,1.7351,1.7308,1.7308,1.7308,1.7161,1.7054,1.7255,1.7308,1.7308,1.7308,1.7154,1.7007,1.7007,1.6693,1.638,1.6293,1.5816,1.5454,1.5363,1.5057,1.4854,1.4854,1.4286,1.3709,1.3318,1.2047,1.1077,1.069,1.0015,0.9628,0.9628,0.9628,0.9628,0.9628,1.0301,1.0891,1.1352,0.9991,0.9393,0.9898,0.9118,0.8735,0.8909,0.8796,0.8713,0.8555,0.8555,0.8494,1.1925,1.2615,1.3477,1.2964,0.0,0.0,1.6484,1.7342,1.8885,2.2986,2.3115,2.2656,2.3076,2.3174,2.3603,2.4873,2.6162,2.7314,2.8164,2.8643,2.875,2.834,2.8662,2.875,2.833,2.8281,2.8281,2.8281,2.8281,2.7651,2.6037,2.6019,2.5306,2.3868,2.3851,2.3745,2.3745,2.3737,2.3014,2.149,2.149,2.0883,1.9762,2.0077,1.9872,1.9286,1.9616,1.9389,1.8789,1.8789,1.8591,1.8299,1.8299,1.8108,1.7904,1.8261,1.7996,1.744,1.7858,1.7562,1.7114,1.712,1.6914,1.6707,1.6707,1.6707,1.6707,1.6707,1.6707,1.67,1.67,1.67,1.67,1.67,1.67,1.67,1.67,1.67,1.6613,1.6326,1.5379,1.46,1.434,1.3414,1.2727,1.2727,1.2727,1.2339,1.1268,1.117,1.0788,0.9723,0.9628,0.9628,0.9628,0.9628,0.9628,0.9628,0.9529,0.9547,0.9364,0.9356,0.9356,0.9356,0.9003,0.8909,0.9096,0.8739,0.8208,0.7489,0.7489,0.7217,1.296,1.3498,1.407,1.4034,1.5377,1.7016,1.7918,1.8368,0.0,2.3419,2.3709,2.3464,2.4365,2.501,2.5459,2.5527,2.6367,2.7207,2.7773,2.7959,2.8096,2.8271,2.8398,2.831,2.7891,2.7851,2.7725,2.7412,2.6646,2.6057,2.5614,2.4861,2.4281,2.3859,2.347,2.3324,2.3324,2.3066,2.2264,2.1036,2.1036,2.0403,1.9081,1.9177,1.8986,1.8613,1.8935,1.884,1.8445,1.8445,1.8394,1.8299,1.8299,1.8379,1.8525,1.8426,1.8132,1.7739,1.774,1.72,1.6463,1.6779,1.6807,1.6707,1.6707,1.6854,1.6974,1.6767,1.6056,1.5301,1.5301,1.4556,1.4213,1.5394,1.5445,1.5103,1.4395,1.4045,1.39,1.3825,1.3522,1.3299,1.3232,1.2926,1.2727,1.2727,1.2145,1.1272,1.0207,1.0109,0.9916,0.9628,0.9628,0.9327,0.8829,0.873,0.8531,0.7935,0.7935,0.8411,0.9449,0.8937,0.8579,0.8579,0.7702,0.7295,0.7339,0.7145,0.6962,0.6694,0.6694,0.6681,1.256,1.3339,1.432,1.4128,1.5816,1.7888,1.9138,2.0245,2.164,2.4152,2.4117,2.4069,2.5371,2.5742,2.5889,2.5986,2.6572,2.7109,2.7373,2.7402,2.7568,2.7998,2.7891,2.7754,2.7676,2.7188,2.6664,2.6397,2.5326,2.4515,2.393,2.3199,2.2606,2.2055,2.1723,2.1601,2.1601,2.1391,2.0813,2.0076,2.0076,1.9502,1.8606,1.8869,1.8803,1.8503,1.8562,1.8482,1.8299,1.8299,1.8299,1.8313,1.8445,1.844,1.8427,1.838,1.8094,1.7547,1.7326,1.6758,1.6265,1.6518,1.6533,1.6533,1.6533,1.666,1.674,1.5939,1.5145,1.4436,1.4033,1.3327,1.2997,1.3992,1.4045,1.3739,1.3139,1.2829,1.2727,1.2727,1.2339,1.2047,1.1648,1.1263,1.0872,1.0574,0.9989,0.9406,0.873,0.863,0.863,0.863,0.863,0.8432,0.7935,0.7935,0.7733,0.7235,0.7238,0.7637,0.863,0.8143,0.7798,0.7798,0.7092,0.6765,0.671,0.6578,0.6305,0.5991,0.5584,0.5277,1.1375,1.2574,1.4157,1.3709,1.5507,1.7966,2.03,2.2379,2.3965,2.4785,2.4394,2.4404,2.6025,2.5703,2.5449,2.626,2.6738,2.7012,2.7012,2.7012,2.7168,2.7559,2.7256,2.7158,2.7406,2.6135,2.5262,2.5121,2.4166,2.2963,2.1571,2.1346,2.0697,1.939,1.9279,1.9257,1.9228,1.9228,1.9067,1.8745,1.8745,1.8591,1.8321,1.8913,1.9038,1.8774,1.8474,1.8364,1.8394,1.8394,1.8394,1.8423,1.8686,1.8434,1.7974,1.8191,1.7811,1.7021,1.6807,1.6513,1.6273,1.6273,1.6306,1.6248,1.6222,1.611,1.5758,1.4503,1.4118,1.3806,1.2829,1.2533,1.2436,1.2436,1.2533,1.2533,1.2441,1.2339,1.2339,1.2339,1.1463,1.0578,0.9882,0.8913,0.8035,0.7338,0.7238,0.7238,0.7238,0.7238,0.7238,0.7238,0.7238,0.7135,0.7138,0.7138,0.7039,0.6939,0.6939,0.6936,0.6836,0.7036,0.7138,0.7138,0.6795,0.6565,0.6446,0.6221,0.5737,0.5015,0.4108,0.3135,1.2706,1.2882,1.3312,1.4198,1.6618,1.956,2.2444,2.3144,2.3428,2.3955,2.4453,2.5019,2.5742,2.6006,2.6162,2.6357,2.6738,2.7012,2.7012,2.7012,2.7051,2.7148,2.707,2.6608,2.5544,2.5127,2.4416,2.3164,2.2128,2.1385,2.1099,2.0185,1.965,1.9279,1.9279,1.9155,1.8891,1.8891,1.873,1.8408,1.8408,1.8372,1.8306,1.8445,1.8613,1.8789,1.8716,1.8833,1.9067,1.9067,1.9067,1.9052,1.8665,1.8606,1.8654,1.8018,1.7537,1.7021,1.6807,1.6513,1.6273,1.6273,1.5969,1.5565,1.5355,1.4684,1.3926,1.3386,1.2583,1.1853,1.156,1.0886,1.031,1.031,1.0886,1.1272,1.0404,0.9809,0.9312,0.9312,0.8619,0.8024,0.7826,0.7633,0.7437,0.7238,0.7238,0.7238,0.7238,0.7238,0.7238,0.7238,0.7238,0.6939,0.6342,0.6242,0.5939,0.5336,0.5336,0.4933,0.4126,0.5434,0.6242,0.6242,0.4768,0.391,0.3894,0.2932,0.2425,0.2237,0.1827,0.1582,1.3155,1.354,1.4478,1.6149,1.8172,2.0395,2.2447,2.2861,2.2959,2.3389,2.4004,2.4717,2.5576,2.5918,2.6074,2.6074,2.6435,2.6641,2.6435,2.6406,2.6484,2.6689,2.6533,2.5987,2.4942,2.4143,2.312,2.1802,2.0783,2.0078,2.0078,1.9576,1.9279,1.9279,1.9125,1.8957,1.8789,1.8635,1.8467,1.8299,1.8299,1.8299,1.8299,1.8299,1.8394,1.8555,1.8555,1.8738,1.9045,1.9045,1.9045,1.903,1.8556,1.8302,1.8186,1.7618,1.676,1.5918,1.594,1.5407,1.4727,1.4974,1.4824,1.4579,1.4333,1.3851,1.3271,1.2422,1.1649,1.1077,1.0596,1.0015,0.9529,0.913,0.9715,1.0203,0.9225,0.873,0.8333,0.7932,0.7537,0.7039,0.6739,0.6337,0.6034,0.6034,0.6034,0.6034,0.6034,0.6034,0.6034,0.6034,0.6034,0.5634,0.4732,0.4632,0.4228,0.3324,0.3224,0.3022,0.2418,0.3221,0.3723,0.3927,0.2764,0.214,0.2122,0.1403,0.1101,0.0999,0.0367,0.0093,1.3707,1.4675,1.6219,1.8002,1.9312,2.0523,2.1768,2.2207,2.2549,2.3037,2.3428,2.4053,2.5283,2.5508,2.5527,2.5605,2.5986,2.6152,2.5791,2.5742,2.5869,2.623,2.5751,2.5163,2.4491,2.3085,2.1785,2.068,1.9776,1.9279,1.9279,1.922,1.9191,1.9191,1.8877,1.8679,1.8621,1.8357,1.8189,1.8138,1.8138,1.8138,1.8138,1.8138,1.8196,1.8306,1.8364,1.854,1.8789,1.8847,1.8775,1.8767,1.82,1.7712,1.7175,1.668,1.5689,1.4489,1.4743,1.4083,1.3175,1.3559,1.3604,1.3488,1.3267,1.307,1.2639,1.1335,1.0811,1.0489,0.962,0.9327,0.9031,0.8333,0.873,0.9031,0.8333,0.8134,0.7836,0.7138,0.6836,0.6537,0.5939,0.5236,0.4834,0.4834,0.4634,0.4533,0.4533,0.4331,0.423,0.423,0.423,0.3827,0.292,0.282,0.2518,0.1613,0.1512,0.1411,0.131,0.1007,0.0906,0.0907,0.09,0.0793,0.0784,0.0477,0.0187,0.0093,-0.074,-0.1295,1.5954,1.6607,1.7207,1.7716,1.8673,1.9984,2.2,2.2187,2.2197,2.2978,2.3184,2.3506,2.4424,2.459,2.4717,2.5098,2.5537,2.5801,2.5742,2.5742,2.5762,2.582,2.4951,2.3917,2.2863,2.1818,2.0688,1.9576,1.9376,1.9279,1.9279,1.9008,1.8855,1.8855,1.854,1.8233,1.7947,1.7904,1.7735,1.7457,1.7457,1.7457,1.7457,1.7457,1.7765,1.8321,1.8606,1.8752,1.8811,1.8897,1.8909,1.8672,1.6931,1.6175,1.6028,1.4677,1.3903,1.3636,1.3762,1.3717,1.3597,1.3661,1.3184,1.2553,1.2351,1.1535,1.0526,1.0209,0.9434,0.8726,0.863,0.8035,0.7537,0.7338,0.7437,0.7537,0.7338,0.6839,0.6242,0.6142,0.5639,0.5135,0.4935,0.4834,0.4834,0.4834,0.4029,0.3425,0.3425,0.262,0.2016,0.2016,0.2016,0.1914,0.1509,0.1509,0.1408,0.1308,0.1006,0.0604,-0.0101,-0.0403,-0.0907,-0.1815,-0.0976,-0.0483,-0.0588,-0.1394,-0.184,-0.1899,-0.224,-0.2892,1.6693,1.6812,1.6894,1.7423,1.8386,1.9602,2.079,2.1299,2.1689,2.2314,2.2441,2.2695,2.3545,2.4092,2.4404,2.4355,2.5137,2.5566,2.5068,2.5205,2.5273,2.5029,2.4107,2.3039,2.176,2.0859,1.9821,1.8567,1.8628,1.873,1.873,1.8591,1.8518,1.8518,1.8196,1.7962,1.7816,1.7633,1.7472,1.7326,1.7326,1.7326,1.7326,1.7326,1.7486,1.7765,1.7911,1.788,1.7804,1.7851,1.74,1.6686,1.5714,1.5016,1.4416,1.3745,1.2931,1.2263,1.2486,1.2171,1.1569,1.1689,1.1155,1.0449,1.0268,0.9538,0.8628,0.8473,0.8082,0.7736,0.7736,0.7437,0.7039,0.6639,0.6539,0.6439,0.5937,0.5939,0.5842,0.5438,0.5035,0.4634,0.4029,0.3929,0.3726,0.3123,0.262,0.2318,0.2318,0.1915,0.1512,0.141,0.1409,0.1007,0.0201,0.0101,-0.0201,-0.0806,-0.0907,-0.1108,-0.1513,-0.1815,-0.2118,-0.2623,-0.2062,-0.1857,-0.1892,-0.2444,-0.2687,-0.2762,-0.3322,-0.3833,1.7038,1.7081,1.7207,1.7176,1.8119,1.9144,1.9492,2.0185,2.0898,2.1435,2.1641,2.1943,2.2685,2.3428,2.3867,2.3662,2.4531,2.501,2.4346,2.4629,2.4682,2.4073,2.3177,2.2111,2.078,1.9966,1.9054,1.8052,1.8167,1.8299,1.8299,1.8225,1.8182,1.8182,1.786,1.7691,1.7691,1.745,1.7326,1.7326,1.7326,1.7326,1.7326,1.7152,1.6965,1.685,1.7131,1.7079,1.6619,1.66,1.5936,1.4777,1.4459,1.3819,1.2994,1.2725,1.1952,1.1087,1.1245,1.0578,0.967,0.9804,0.9321,0.8661,0.8501,0.7942,0.7505,0.7275,0.7039,0.6939,0.6939,0.6736,0.6437,0.5839,0.5438,0.5135,0.4531,0.4834,0.5035,0.413,0.4029,0.3728,0.2922,0.2821,0.2519,0.1714,0.1411,0.121,0.1109,0.0806,0.0605,0.0302,0.0302,-0.0101,-0.121,-0.131,-0.1613,-0.2422,-0.2522,-0.2623,-0.2522,-0.3012,-0.3304,-0.3304,-0.3421,-0.3419,-0.3303,-0.3605,-0.3824,-0.3803,-0.4381,-0.4755,1.7207,1.8051,1.893,1.694,1.7389,1.8379,1.8603,1.9062,1.9619,2.0459,2.0977,2.1406,2.1865,2.2314,2.2744,2.3135,2.3584,2.3877,2.3828,2.418,2.4063,2.3186,2.2132,2.1075,2.0087,1.8958,1.839,1.8277,1.8291,1.8299,1.8299,1.8013,1.7838,1.7838,1.7523,1.7355,1.7355,1.7333,1.7326,1.7326,1.7326,1.7326,1.7318,1.6749,1.6202,1.5615,1.6889,1.6725,1.5562,1.5625,1.5022,1.3931,1.2835,1.2173,1.1808,1.0877,1.0408,1.0252,1.026,0.9735,0.9097,0.9104,0.8479,0.7824,0.7573,0.7533,0.7505,0.7275,0.6639,0.6042,0.6042,0.5539,0.4935,0.4834,0.413,0.3324,0.3324,0.3324,0.3022,0.2017,0.1815,0.1714,0.1714,0.1713,0.1714,0.1613,0.0706,-0.0,-0.0302,-0.1211,-0.1919,-0.2219,-0.2219,-0.232,-0.2623,-0.2724,-0.2725,-0.2826,-0.3027,-0.3029,-0.2826,-0.3862,-0.4508,-0.4508,-0.5277,-0.5275,-0.4508,-0.545,-0.5768,-0.5779,-0.5647,-0.6135,1.7376,1.7779,1.8183,1.7259,1.7471,1.7895,1.8135,1.8564,1.8955,1.9258,1.9678,2.0117,2.0537,2.166,2.2471,2.2363,2.292,2.3184,2.2646,2.293,2.2726,2.1567,2.0766,1.9827,1.8683,1.7976,1.7596,1.7391,1.756,1.7677,1.7677,1.7567,1.7501,1.7501,1.7391,1.7326,1.7326,1.7326,1.7326,1.7326,1.7121,1.665,1.5882,1.5497,1.4682,1.3656,1.413,1.4084,1.3677,1.3771,1.2945,1.1697,1.133,1.0857,1.0423,0.9989,0.9945,0.9949,0.9218,0.8818,0.8466,0.7868,0.7238,0.6633,0.6429,0.5579,0.4754,0.4567,0.3889,0.3214,0.3273,0.3067,0.277,0.277,0.2497,0.1914,0.1108,0.1612,0.2016,0.1714,0.1411,0.1108,0.0403,0.0202,-0.0202,-0.0907,-0.131,-0.1613,-0.1714,-0.2018,-0.2322,-0.2623,-0.2623,-0.2725,-0.3029,-0.3029,-0.3029,-0.3029,-0.3831,-0.4111,-0.3959,-0.5007,-0.554,-0.5468,-0.6423,-0.6423,-0.5465,-0.5713,-0.5841,-0.5855,-0.6508,-0.7074,1.7477,1.7714,1.7862,1.7377,1.7451,1.771,1.7671,1.7968,1.8272,1.8213,1.8672,1.915,1.9434,2.0547,2.1435,2.1445,2.1914,2.2129,2.1728,2.1771,2.141,2.0268,1.954,1.8701,1.7593,1.737,1.7245,1.7026,1.7113,1.7216,1.7326,1.7223,1.7172,1.7172,1.7172,1.7121,1.7011,1.7004,1.682,1.6444,1.6239,1.5581,1.4374,1.4006,1.3201,1.2097,1.1834,1.1891,1.2078,1.1999,1.1273,1.0122,1.0247,0.9803,0.9143,0.9143,0.9114,0.8866,0.8108,0.7701,0.7459,0.6795,0.5896,0.5014,0.4886,0.3871,0.2662,0.2627,0.2154,0.1679,0.1669,0.1674,0.1583,0.1187,0.1093,0.06,-0.0705,0.0,0.0806,0.0302,0.0101,-0.0201,-0.0907,-0.121,-0.1613,-0.232,-0.2422,-0.2422,-0.2522,-0.2522,-0.2623,-0.2927,-0.2927,-0.3027,-0.323,-0.3531,-0.3732,-0.3732,-0.4732,-0.5286,-0.5187,-0.6117,-0.6611,-0.6479,-0.7455,-0.7703,-0.7053,-0.6918,-0.6873,-0.6821,-0.7712,-0.8281,0.0,0.0,0.0,1.7279,1.7416,1.7735,1.7163,1.7308,1.754,1.7439,1.8018,1.8523,1.8613,1.8955,1.9512,2.0391,2.0537,2.0703,2.1072,2.0816,2.0205,1.917,1.8537,1.7881,1.6919,1.7113,1.7304,1.7304,1.7011,1.6974,1.7282,1.7011,1.6843,1.6843,1.6843,1.6689,1.6367,1.6367,1.5821,1.4648,1.4648,1.4,1.2893,1.2282,1.1679,1.0881,1.041,1.0374,1.083,1.0631,1.0117,0.9348,0.934,0.8956,0.8283,0.8275,0.7794,0.7202,0.6963,0.6449,0.5795,0.5695,0.4557,0.3136,0.3038,0.2375,0.1618,0.1616,0.1617,0.1625,0.1558,0.1587,0.1207,0.0201,-0.0198,-0.0689,-0.1808,-0.1209,-0.0907,-0.2118,-0.2422,-0.2422,-0.2422,-0.2422,-0.2422,-0.2422,-0.2422,-0.2522,-0.2825,-0.2825,-0.2925,-0.3228,-0.3228,-0.3228,-0.3228,-0.423,-0.4832,-0.4834,-0.5824,-0.6366,-0.6252,-0.7083,-0.7595,-0.7629,-0.8464,-0.9087,-0.9349,-0.9263,-0.908,-0.8999,-0.9262,-0.9951,1.6348,0.0,0.0,0.0,0.0,0.0,1.7605,1.7331,1.7056,1.7314,1.7314,1.7451,1.8066,1.8037,1.8291,1.9453,1.9893,2.0014,1.9809,1.9728,1.9048,1.7565,1.7464,1.718,1.6257,1.6284,1.6375,1.6375,1.6296,1.6192,1.6188,1.6109,1.6067,1.6246,1.6149,1.6024,1.6116,1.5287,1.4632,1.4245,1.3447,1.2639,1.168,1.1086,1.0309,0.9548,0.9209,0.9131,0.9246,0.9464,0.9401,0.9157,0.8463,0.8203,0.7991,0.7217,0.6999,0.6951,0.617,0.5844,0.5581,0.4137,0.3436,0.2932,0.2112,0.1209,0.0569,0.0468,-0.0094,-0.0666,-0.0754,-0.085,-0.0948,-0.1517,-0.1624,-0.202,-0.3283,-0.332,-0.307,-0.2515,-0.2522,-0.2724,-0.2724,-0.2826,-0.3027,-0.3027,-0.363,-0.4131,-0.4232,-0.4232,-0.421,-0.4252,-0.4245,-0.4245,-0.4245,-0.5225,-0.5847,-0.5922,-0.6839,-0.7411,-0.7357,-0.8236,-0.8804,-0.8806,-0.9712,-1.0207,-1.0207,-0.9569,-0.9569,-1.0115,-1.1052,-1.1735,1.5552,1.5846,1.6178,1.6325,0.0,0.0,1.7168,1.6943,1.6689,1.6582,1.6504,1.6602,1.71,1.7148,1.7412,1.834,1.8469,1.8531,1.8773,1.8556,1.777,1.6349,1.618,1.6035,1.5524,1.5648,1.5796,1.5835,1.5729,1.5595,1.5373,1.562,1.5729,1.5467,1.5186,1.4863,1.4826,1.3649,1.29,1.2493,1.19,1.1064,1.01,0.9762,0.919,0.8593,0.8458,0.8337,0.8357,0.8286,0.839,0.8502,0.7876,0.7319,0.6828,0.6221,0.5932,0.5789,0.516,0.4847,0.4483,0.3259,0.2367,0.1662,0.0992,0.0182,-0.0556,-0.055,-0.1113,-0.1691,-0.1764,-0.1863,-0.2156,-0.2716,-0.291,-0.3299,-0.4454,-0.4884,-0.4859,-0.4162,-0.4205,-0.4327,-0.4327,-0.4429,-0.4529,-0.4529,-0.5029,-0.5429,-0.5429,-0.5395,-0.5347,-0.5287,-0.5241,-0.5234,-0.5278,-0.6252,-0.6964,-0.7134,-0.8042,-0.857,-0.8517,-0.941,-0.9976,-1.0043,-1.089,-1.1397,-1.1488,-1.0885,-1.0885,-1.1483,-1.2589,-1.3162,1.4952,1.5226,1.5624,1.5524,1.6208,0.0,1.6364,1.6494,1.6504,1.584,1.5889,1.6094,1.6191,1.6393,1.6772,1.7298,1.6741,1.6692,1.7789,1.7199,1.6388,1.5443,1.5023,1.4756,1.4705,1.5064,1.5433,1.5441,1.5203,1.493,1.4657,1.534,1.5382,1.449,1.4032,1.3483,1.2921,1.193,1.0992,1.0337,1.0196,0.9634,0.8647,0.8587,0.8336,0.8065,0.8004,0.7918,0.7831,0.7341,0.7421,0.7688,0.7368,0.6526,0.5387,0.5287,0.4802,0.4225,0.4146,0.3537,0.2755,0.2614,0.1433,-0.0,-0.009,-0.0718,-0.1436,-0.1524,-0.1727,-0.2029,-0.212,-0.2336,-0.2746,-0.3686,-0.4102,-0.4434,-0.5442,-0.5954,-0.6289,-0.6483,-0.6423,-0.6423,-0.6423,-0.6423,-0.6423,-0.6423,-0.6523,-0.6617,-0.6606,-0.6412,-0.6341,-0.6407,-0.6208,-0.6194,-0.6415,-0.7382,-0.8062,-0.8286,-0.9307,-0.9805,-0.9655,-1.0582,-1.1092,-1.1154,-1.2077,-1.2687,-1.3064,-1.2711,-1.2631,-1.2887,-1.3841,-1.4433,1.3777,1.397,1.4185,1.4848,1.5284,0.0,1.7158,1.6963,1.6738,1.7327,1.6612,1.6094,1.678,1.6287,1.6195,1.7312,1.6372,1.5744,1.6486,1.5914,1.513,1.4506,1.4281,1.4101,1.4085,1.3975,1.395,1.4174,1.4118,1.3902,1.3513,1.395,1.3635,1.2388,1.2785,1.2753,1.198,1.1197,1.0674,1.0347,0.9409,0.8918,0.9016,0.8359,0.8183,0.8369,0.8114,0.7601,0.7002,0.7087,0.7254,0.7443,0.6263,0.5692,0.5489,0.4773,0.395,0.3153,0.3141,0.2513,0.162,0.0808,0.0269,-0.0179,-0.0897,-0.1256,-0.1614,-0.2596,-0.2871,-0.3239,-0.4405,-0.4779,-0.4885,-0.5248,-0.5323,-0.567,-0.6588,-0.7135,-0.7556,-0.8203,-0.727,-0.6423,-0.6423,-0.6423,-0.6423,-0.6423,-0.7123,-0.7684,-0.7573,-0.7537,-0.7521,-0.7461,-0.7322,-0.7458,-0.7886,-0.8725,-0.9334,-0.9723,-1.0278,-1.0685,-1.087,-1.1647,-1.2123,-1.2339,-1.3281,-1.4253,-1.529,-1.4489,-1.4136,-1.4136,-1.5112,-1.5814,1.3081,1.3223,1.351,1.4055,1.4556,0.0,0.0,1.605,1.6027,1.6607,1.6017,1.5527,1.6071,1.5852,1.5718,1.6081,1.5186,1.4538,1.4841,1.4453,1.3848,1.3252,1.3072,1.3026,1.3106,1.2989,1.3106,1.3347,1.327,1.2969,1.2414,1.2785,1.239,1.1067,1.1546,1.1388,1.0433,0.9579,0.9242,0.9251,0.8549,0.8267,0.8412,0.7898,0.7568,0.7411,0.6957,0.6579,0.6205,0.6031,0.6004,0.6129,0.5521,0.5063,0.4664,0.3832,0.3254,0.2862,0.2388,0.1609,0.0636,0.018,-0.0356,-0.0796,-0.1252,-0.1792,-0.2417,-0.3041,-0.3753,-0.4465,-0.5181,-0.545,-0.5716,-0.6251,-0.6428,-0.6697,-0.7676,-0.8042,-0.8398,-0.8866,-0.8317,-0.7704,-0.7704,-0.7862,-0.7885,-0.7714,-0.8193,-0.8553,-0.8566,-0.8577,-0.8552,-0.8651,-0.8906,-0.9276,-0.9648,-1.0395,-1.1066,-1.1375,-1.1621,-1.1789,-1.1919,-1.2747,-1.3444,-1.4048,-1.4633,-1.5553,-1.6807,-1.6447,-1.6009,-1.5682,-1.638,-1.7094,1.2647,1.2867,1.3113,1.3375,1.4031,1.4687,0.0,0.0,0.0,1.5544,1.5379,1.5172,1.5377,1.5409,1.5256,1.4814,1.404,1.3438,1.3328,1.2985,1.2654,1.2235,1.1992,1.1964,1.2084,1.2186,1.226,1.2322,1.2241,1.188,1.1059,1.155,1.1254,0.9821,1.0209,0.9909,0.8831,0.8202,0.7977,0.8138,0.7899,0.7677,0.7604,0.7155,0.6693,0.6134,0.5727,0.5469,0.5325,0.488,0.4683,0.4542,0.4797,0.4534,0.3867,0.3106,0.2748,0.2472,0.156,0.0617,-0.0181,-0.0267,-0.0788,-0.1387,-0.1594,-0.2403,-0.3288,-0.3641,-0.4703,-0.5673,-0.5824,-0.5996,-0.6358,-0.7176,-0.7362,-0.7548,-0.838,-0.8698,-0.8857,-0.9066,-0.9233,-0.938,-0.9235,-0.9329,-0.9444,-0.9389,-0.9461,-0.9634,-0.996,-0.9904,-0.988,-1.0027,-1.0567,-1.1065,-1.129,-1.1976,-1.2499,-1.2633,-1.2768,-1.2904,-1.2942,-1.3873,-1.4846,-1.5838,-1.604,-1.6815,-1.8246,-1.8234,-1.7935,-1.7414,-1.7629,-1.8311,1.251,1.2613,1.2778,1.3256,1.3602,1.401,1.4873,0.0,1.5548,1.6254,0.0,1.5685,1.6172,0.0,0.0,1.4851,1.3882,1.2944,1.2591,1.1821,1.151,1.1962,1.1724,1.1456,1.1516,1.1449,1.1068,1.0172,1.0473,1.0364,0.9401,0.9907,0.9553,0.7983,0.8827,0.8827,0.7767,0.8003,0.8132,0.8155,0.7785,0.7343,0.6905,0.6489,0.5985,0.5469,0.5416,0.5056,0.4543,0.4483,0.4125,0.3651,0.3987,0.4036,0.3867,0.3106,0.2274,0.1354,0.0506,-0.0339,-0.1107,-0.1189,-0.1186,-0.1443,-0.2338,-0.2872,-0.3561,-0.5378,-0.607,-0.6557,-0.7439,-0.7737,-0.778,-0.811,-0.815,-0.8279,-0.8532,-0.8698,-0.8779,-0.8916,-0.9858,-1.0329,-0.9486,-0.9399,-0.9668,-1.0459,-1.0833,-1.1227,-1.1915,-1.1949,-1.1932,-1.1969,-1.2089,-1.2261,-1.2709,-1.2689,-1.2739,-1.2979,-1.3557,-1.3919,-1.3971,-1.4977,-1.6103,-1.7387,-1.7219,-1.8121,-2.0148,-1.941,-1.9103,-1.9434,-1.9125,-1.9261,1.2043,1.2366,1.2616,1.2567,1.3136,1.3813,1.4296,1.4378,1.4616,1.5467,0.0,0.0,0.0,0.0,0.0,0.0,1.2839,1.2265,1.1721,1.0989,1.0753,1.148,1.1088,1.066,1.0318,1.0091,0.9788,0.94,0.9486,0.9232,0.8579,0.885,0.8428,0.7313,0.8085,0.8155,0.7241,0.7547,0.7617,0.7517,0.6917,0.6514,0.6235,0.5474,0.4968,0.4697,0.4411,0.4147,0.3858,0.3858,0.3715,0.3441,0.3204,0.3049,0.3008,0.2135,0.1287,0.0412,-0.0412,-0.0999,-0.1344,-0.1904,-0.2161,-0.2435,-0.3258,-0.4204,-0.5088,-0.5936,-0.6776,-0.7431,-0.7867,-0.8012,-0.8061,-0.8243,-0.8373,-0.8508,-0.8698,-0.8975,-0.9123,-0.9246,-0.999,-1.0617,-1.0287,-1.0706,-1.114,-1.1441,-1.1602,-1.1833,-1.225,-1.2319,-1.2365,-1.2516,-1.3014,-1.3411,-1.3623,-1.4037,-1.4277,-1.4406,-1.4804,-1.522,-1.5779,-1.6557,-1.7564,-1.8611,-1.8979,-1.9956,-2.1502,-2.1071,-2.1201,-2.1724,-2.0536,-2.04,1.1747,1.2103,1.2371,1.2061,1.2732,1.3416,1.36,1.3449,1.3541,1.443,1.3858,0.0,0.0,0.0,1.3318,1.2138,0.0,1.171,1.0885,1.0284,1.0165,1.0661,1.0184,0.965,0.915,0.8805,0.8583,0.8382,0.8318,0.8111,0.7711,0.7706,0.7429,0.6876,0.7429,0.7429,0.6876,0.6809,0.674,0.6592,0.5913,0.5518,0.5385,0.4649,0.4157,0.3882,0.3536,0.3426,0.3426,0.3426,0.3282,0.3066,0.2565,0.2099,0.1705,0.1044,0.0459,-0.0079,-0.0956,-0.1459,-0.1811,-0.2425,-0.2924,-0.3449,-0.4304,-0.5319,-0.6217,-0.6463,-0.7204,-0.7931,-0.7882,-0.787,-0.8,-0.818,-0.843,-0.8687,-0.8875,-0.9135,-0.9389,-0.9798,-1.0572,-1.1197,-1.1712,-1.2091,-1.2377,-1.2443,-1.2504,-1.2674,-1.3099,-1.3184,-1.3184,-1.3451,-1.4055,-1.4482,-1.4482,-1.4999,-1.5506,-1.5824,-1.6057,-1.6535,-1.7398,-1.8093,-1.892,-1.9925,-2.0594,-2.1532,-2.2903,-2.2581,-2.2649,-2.3174,-2.1789,-2.143,1.193,1.1888,1.1944,1.2086,1.2195,1.244,1.2777,1.2663,1.2713,1.3413,1.2865,1.2419,1.2913,1.2841,1.2339,1.1472,1.1606,0.0,0.0,0.976,0.9576,0.955,0.8992,0.8491,0.8057,0.8052,0.7519,0.6362,0.6759,0.6891,0.6511,0.6436,0.6436,0.6436,0.6436,0.6436,0.6436,0.5892,0.5627,0.5631,0.509,0.4558,0.4033,0.4038,0.3701,0.3232,0.3234,0.3234,0.3234,0.3234,0.2829,0.222,0.222,0.1301,0.007,0.0145,0.0146,-0.0,-0.0903,-0.1848,-0.2744,-0.2821,-0.3522,-0.4557,-0.5456,-0.5981,-0.6394,-0.7126,-0.7609,-0.7728,-0.7545,-0.7658,-0.7867,-0.8045,-0.8393,-0.8739,-0.8839,-0.9121,-0.9607,-1.0738,-1.166,-1.2589,-1.3808,-1.3033,-1.2595,-1.3535,-1.388,-1.4307,-1.5173,-1.5257,-1.5257,-1.5347,-1.5347,-1.5347,-1.5347,-1.534,-1.5824,-1.6838,-1.7172,-1.7658,-1.8523,-1.9156,-2.0126,-2.154,-2.1753,-2.2695,-2.4433,-2.3557,-2.3205,-2.3174,-2.2708,-2.234,1.1879,1.1903,1.1867,1.1605,1.1922,1.2265,1.2299,1.2206,1.2227,1.2993,1.2352,1.1672,1.1846,1.1567,1.1082,1.0359,1.0101,0.9717,0.0,0.8316,0.7846,0.8119,0.78,0.7459,0.7188,0.6922,0.6654,0.6215,0.6437,0.6414,0.5885,0.5885,0.5683,0.5348,0.5348,0.5396,0.5498,0.5196,0.5129,0.5222,0.4596,0.4159,0.3961,0.3627,0.336,0.3226,0.3226,0.2956,0.2551,0.2551,0.2149,0.1411,0.094,0.0473,0.0,0.0,-0.0287,-0.0805,-0.1276,-0.1976,-0.2911,-0.3659,-0.453,-0.5544,-0.6457,-0.6869,-0.7102,-0.7422,-0.7659,-0.7802,-0.7739,-0.7876,-0.8077,-0.826,-0.852,-0.8824,-0.9065,-0.9361,-0.9705,-1.0269,-1.1569,-1.2674,-1.3105,-1.3789,-1.4475,-1.4741,-1.4915,-1.5082,-1.5347,-1.5431,-1.5431,-1.5431,-1.5431,-1.5423,-1.5582,-1.6221,-1.7098,-1.8035,-1.8212,-1.8771,-1.964,-2.0566,-2.1598,-2.2666,-2.3254,-2.388,-2.454,-2.4229,-2.3857,-2.3416,-2.3269,-2.2767,1.1869,1.1768,1.1696,1.1263,1.1455,1.1747,1.1761,1.151,1.151,1.2381,1.1475,1.0679,1.1127,1.0672,1.006,0.9637,0.9197,0.8643,0.0,0.6984,0.6409,0.6614,0.6556,0.6499,0.6559,0.5994,0.5691,0.5876,0.5815,0.5632,0.5342,0.5348,0.5173,0.4886,0.484,0.4882,0.502,0.4408,0.4185,0.4259,0.3381,0.2954,0.2954,0.2621,0.242,0.242,0.242,0.2217,0.1813,0.1813,0.1343,0.0672,0.0202,-0.0202,-0.0472,-0.0411,-0.0913,-0.1729,-0.2195,-0.2974,-0.3922,-0.4561,-0.5542,-0.6538,-0.703,-0.7319,-0.7419,-0.7622,-0.7723,-0.7715,-0.7859,-0.8025,-0.8192,-0.8245,-0.8526,-0.8861,-0.9124,-0.9377,-0.9766,-1.0489,-1.1764,-1.293,-1.3451,-1.4734,-1.5597,-1.5431,-1.5431,-1.5423,-1.5506,-1.5506,-1.5665,-1.6064,-1.6064,-1.6221,-1.669,-1.7415,-1.8212,-1.9079,-1.9335,-1.996,-2.0987,-2.1869,-2.2675,-2.3432,-2.4157,-2.454,-2.454,-2.447,-2.4086,-2.3496,-2.3488,-2.308]}]]